[[{"header":{"parameterUnit":"m.s-1","parameterCategory":1,"la1":31.0,"la2":29.5877,"lo1":-88.7671,"lo2":-86.6584,"dy":0.0162,"dx":0.0185,"nx":115,"ny":88,"refTime":"2024-02-02T18:00:00:Z","depth":0,"parameterNumber":2,"parameterNumberName":"U-component_of_WINDS"},"data":[0.0,0.0,0.0,0.0,0.0,0.0,0.0,0.0,0.0,0.0,0.0,0.0,0.0,0.0,0.0,0.0,0.0,0.0,0.0,0.0,0.0,0.0,0.0,0.0,0.0,0.0,0.0,0.0,0.0,0.0,0.0,0.0,0.0,0.0,0.0,0.0,0.0,0.0,0.0,0.0,0.0,0.0,0.0,0.0,0.0,0.0,0.0,0.0,0.0,0.0,0.0,0.0,0.0,0.0,0.0,0.0,0.0,0.0,0.0,0.0,0.0,0.0,0.0,0.0,0.0,0.0,0.0,0.0,0.0,0.0,0.0,0.0,0.0,0.0,0.0,0.0,0.0,0.0,0.0,0.0,0.0,0.0,0.0,0.0,0.0,0.0,0.0,0.0,0.0,0.0,0.0,0.0,0.0,0.0,0.0,0.0,0.0,0.0,0.0,0.0,0.0,0.0,0.0,0.0,0.0,0.0,0.0,0.0,0.0,0.0,0.0,0.0,0.0,0.0,0.0,0.0,0.0,0.0,0.0,0.0,0.0,0.0,0.0,0.0,0.0,0.0,0.0,0.0,0.0,0.0,0.0,0.0,0.0,0.0,0.0,0.0,0.0,0.0,0.0,0.0,0.0,0.0,0.0,0.0,0.0,0.0,0.0,0.0,0.0,0.0,0.0,0.0,0.0,0.0,0.0,0.0,0.0,0.0,0.0,0.0,0.0,0.0,0.0,0.0,0.0,0.0,0.0,0.0,0.0,0.0,0.0,0.0,0.0,0.0,0.0,0.0,0.0,0.0,0.0,0.0,0.0,0.0,0.0,0.0,0.0,0.0,0.0,0.0,0.0,0.0,0.0,0.0,0.0,0.0,0.0,0.0,0.0,0.0,0.0,0.0,0.0,0.0,0.0,0.0,0.0,0.0,0.0,0.0,0.0,0.0,0.0,0.0,0.0,0.0,0.0,0.0,0.0,0.0,0.0,0.0,0.0,0.0,0.0,0.0,0.0,0.0,0.0,0.0,0.0,0.0,0.0,0.0,0.0,0.0,0.0,0.0,0.0,0.0,0.0,0.0,0.0,0.0,0.0,0.0,0.0,0.0,0.0,0.0,0.0,0.0,0.0,0.0,0.0,0.0,0.0,0.0,0.0,0.0,0.0,0.0,0.0,0.0,0.0,0.0,0.0,0.0,0.0,0.0,0.0,0.0,0.0,0.0,0.0,0.0,0.0,0.0,0.0,0.0,0.0,0.0,0.0,0.0,0.0,0.0,0.0,0.0,0.0,0.0,0.0,0.0,0.0,0.0,0.0,0.0,0.0,0.0,0.0,0.0,0.0,0.0,0.0,0.0,0.0,0.0,0.0,0.0,0.0,0.0,0.0,0.0,0.0,0.0,0.0,0.0,0.0,0.0,0.0,0.0,0.0,0.0,0.0,0.0,0.0,0.0,0.0,0.0,0.0,0.0,0.0,0.0,0.0,0.0,0.0,0.0,0.0,0.0,0.0,0.0,0.0,0.0,0.0,0.0,0.0,0.0,0.0,0.0,0.0,0.0,0.0,0.0,0.0,0.0,0.0,0.0,0.0,0.0,0.0,0.0,0.0,0.0,0.0,0.0,0.0,0.0,0.0,0.0,0.0,0.0,0.0,0.0,0.0,0.0,0.0,0.0,0.0,0.0,0.0,0.0,0.0,0.0,0.0,0.0,0.0,0.0,0.0,0.0,0.0,0.0,0.0,0.0,0.0,0.0,0.0,0.0,0.0,0.0,0.0,0.0,0.0,0.0,0.0,0.0,0.0,0.0,0.0,0.0,0.0,0.0,0.0,0.0,0.0,0.0,0.0,0.0,0.0,0.0,0.0,0.0,0.0,0.0,0.0,0.0,0.0,0.0,0.0,0.0,0.0,0.0,0.0,0.0,0.0,0.0,0.0,0.0,0.0,0.0,0.0,0.0,0.0,0.0,0.0,0.0,0.0,0.0,0.0,0.0,0.0,0.0,0.0,0.0,0.0,0.0,0.0,0.0,0.0,0.0,0.0,0.0,0.0,0.0,0.0,0.0,0.0,0.0,0.0,0.0,0.0,0.0,0.0,0.0,0.0,0.0,0.0,0.0,0.0,0.0,0.0,0.0,0.0,0.0,0.0,0.0,0.0,0.0,0.0,0.0,0.0,0.0,0.0,0.0,0.0,0.0,0.0,0.0,0.0,0.0,0.0,0.0,0.0,0.0,0.0,0.0,0.0,0.0,0.0,0.0,0.0,0.0,0.0,0.0,0.0,0.0,0.0,0.0,0.0,0.0,0.0,0.0,0.0,0.0,0.0,0.0,0.0,0.0,0.0,0.0,0.0,0.0,0.0,0.0,0.0,0.0,0.0,0.0,0.0,0.0,0.0,0.0,0.0,0.0,0.0,0.0,0.0,0.0,0.0,0.0,0.0,0.0,0.0,0.0,0.0,0.0,0.0,0.0,0.0,0.0,0.0,0.0,0.0,0.0,0.0,0.0,0.0,0.0,0.0,0.0,0.0,0.0,0.0,0.0,0.0,0.0,0.0,0.0,0.0,0.0,0.0,0.0,0.0,0.0,0.0,0.0,0.0,0.0,0.0,0.0,0.0,0.0,0.0,0.0,0.0,0.0,0.0,0.0,0.0,0.0,0.0,0.0,0.0,0.0,0.0,0.0,0.0,0.0,0.0,0.0,0.0,0.0,0.0,0.0,0.0,0.0,0.0,0.0,0.0,0.0,0.0,0.0,0.0,0.0,0.0,0.0,0.0,0.0,0.0,0.0,0.0,0.0,0.0,0.0,0.0,0.0,0.0,0.0,0.0,0.0,0.0,0.0,0.0,0.0,0.0,0.0,0.0,0.0,0.0,0.0,0.0,0.0,0.0,0.0,0.0,0.0,0.0,0.0,0.0,0.0,0.0,0.0,0.0,0.0,0.0,0.0,0.0,0.0,0.0,0.0,0.0,0.0,0.0,0.0,0.0,0.0,0.0,0.0,0.0,0.0,0.0,0.0,0.0,0.0,0.0,0.0,0.0,0.0,0.0,0.0,0.0,0.0,0.0,0.0,0.0,0.0,0.0,0.0,0.0,0.0,0.0,0.0,0.0,0.0,0.0,0.0,0.0,0.0,0.0,0.0,0.0,0.0,0.0,0.0,0.0,0.0,0.0,0.0,0.0,0.0,0.0,0.0,0.0,0.0,0.0,0.0,0.0,0.0,0.0,0.0,0.0,0.0,0.0,0.0,0.0,0.0,0.0,0.0,0.0,0.0,0.0,0.0,0.0,0.0,0.0,0.0,0.0,0.0,0.0,0.0,0.0,0.0,0.0,0.0,0.0,0.0,0.0,0.0,0.0,0.0,0.0,0.0,0.0,0.0,0.0,0.0,0.0,0.0,0.0,0.0,0.0,0.0,0.0,0.0,0.0,0.0,0.0,0.0,0.0,0.0,0.0,0.0,0.0,0.0,0.0,0.0,0.0,0.0,0.0,0.0,0.0,0.0,0.0,0.0,0.0,0.0,0.0,0.0,0.0,0.0,0.0,0.0,0.0,0.0,0.0,0.0,0.0,0.0,0.0,0.0,0.0,0.0,0.0,0.0,0.0,0.0,0.0,0.0,0.0,0.0,0.0,0.0,0.0,0.0,0.0,0.0,0.0,0.0,0.0,0.0,0.0,0.0,0.0,0.0,0.0,0.0,0.0,0.0,0.0,0.0,0.0,0.0,0.0,0.0,0.0,0.0,0.0,0.0,0.0,0.0,0.0,0.0,0.0,0.0,0.0,0.0,0.0,0.0,0.0,0.0,0.0,0.0,0.0,0.0,0.0,0.0,0.0,0.0,0.0,0.0,0.0,0.0,0.0,0.0,0.0,0.0,0.0,0.0,0.0,0.0,0.0,0.0,0.0,0.0,0.0,0.0,0.0,0.0,0.0,0.0,0.0,0.0,0.0,0.0,0.0,0.0,0.0,0.0,0.0,0.0,0.0,0.0,0.0,0.0,0.0,0.0,0.0,0.0,0.0,0.0,0.0,0.0,0.0,0.0,0.0,0.0,0.0,0.0,0.0,0.0,0.0,0.0,0.0,0.0,0.0,0.0,0.0,0.0,0.0,0.0,0.0,0.0,0.0,0.0,0.0,0.0,0.0,0.0,0.0,0.0,0.0,0.0,0.0,0.0,0.0,0.0,0.0,0.0,0.0,0.0,0.0,0.0,0.0,0.0,0.0,0.0,0.0,0.0,0.0,0.0,0.0,0.0,0.0,0.0,0.0,0.0,0.0,0.0,0.0,0.0,-2.1695,0.0,0.0,0.0,0.0,0.0,0.0,0.0,0.0,0.0,0.0,0.0,0.0,0.0,0.0,0.0,0.0,0.0,0.0,0.0,0.0,0.0,0.0,0.0,0.0,0.0,0.0,0.0,0.0,0.0,0.0,0.0,0.0,0.0,0.0,0.0,0.0,0.0,0.0,0.0,0.0,0.0,0.0,0.0,0.0,0.0,0.0,0.0,0.0,0.0,0.0,0.0,0.0,0.0,0.0,0.0,0.0,0.0,0.0,0.0,0.0,0.0,0.0,0.0,0.0,0.0,0.0,0.0,0.0,0.0,0.0,0.0,0.0,0.0,0.0,0.0,0.0,0.0,0.0,0.0,0.0,0.0,0.0,0.0,0.0,0.0,0.0,0.0,0.0,0.0,0.0,0.0,0.0,0.0,0.0,0.0,0.0,0.0,0.0,0.0,0.0,0.0,0.0,0.0,0.0,0.0,0.0,0.0,0.0,0.0,0.0,-2.0737,-2.0501,-2.1947,-2.232,-2.1368,0.0,0.0,0.0,0.0,0.0,0.0,0.0,0.0,0.0,0.0,0.0,0.0,0.0,0.0,0.0,0.0,0.0,0.0,0.0,0.0,0.0,0.0,0.0,0.0,0.0,0.0,0.0,0.0,0.0,0.0,0.0,0.0,0.0,0.0,0.0,0.0,0.0,0.0,0.0,0.0,0.0,0.0,0.0,0.0,0.0,0.0,0.0,0.0,0.0,0.0,0.0,0.0,0.0,0.0,0.0,0.0,0.0,0.0,0.0,0.0,0.0,0.0,0.0,0.0,0.0,0.0,0.0,0.0,0.0,0.0,0.0,0.0,0.0,0.0,0.0,0.0,0.0,0.0,0.0,0.0,0.0,0.0,0.0,0.0,0.0,0.0,0.0,0.0,0.0,0.0,0.0,0.0,0.0,0.0,0.0,0.0,0.0,0.0,0.0,0.0,0.0,0.0,0.0,0.0,0.0,0.0,0.0,0.0,0.0,0.0,0.0,0.0,-2.1927,-2.2269,-2.1586,0.0,0.0,0.0,0.0,0.0,0.0,0.0,0.0,0.0,0.0,0.0,0.0,0.0,0.0,0.0,0.0,0.0,0.0,0.0,0.0,0.0,0.0,0.0,0.0,0.0,0.0,0.0,0.0,0.0,0.0,0.0,0.0,0.0,0.0,0.0,0.0,0.0,0.0,0.0,0.0,0.0,0.0,0.0,0.0,0.0,0.0,0.0,0.0,0.0,0.0,0.0,0.0,0.0,0.0,0.0,0.0,0.0,0.0,0.0,0.0,0.0,0.0,0.0,0.0,0.0,0.0,0.0,0.0,0.0,0.0,0.0,0.0,0.0,0.0,0.0,0.0,0.0,0.0,0.0,0.0,0.0,0.0,0.0,0.0,0.0,0.0,0.0,0.0,0.0,0.0,0.0,0.0,0.0,0.0,0.0,0.0,0.0,0.0,0.0,0.0,0.0,0.0,0.0,0.0,0.0,0.0,0.0,0.0,0.0,0.0,-2.0542,-2.1963,-2.2193,0.0,-2.2844,0.0,0.0,0.0,0.0,0.0,0.0,0.0,0.0,0.0,0.0,0.0,0.0,0.0,0.0,0.0,0.0,0.0,0.0,0.0,0.0,0.0,0.0,0.0,0.0,0.0,0.0,0.0,0.0,0.0,0.0,0.0,0.0,0.0,0.0,0.0,0.0,0.0,0.0,0.0,0.0,0.0,0.0,0.0,0.0,0.0,0.0,0.0,0.0,0.0,0.0,0.0,0.0,0.0,0.0,0.0,0.0,0.0,0.0,0.0,0.0,0.0,0.0,0.0,0.0,0.0,0.0,0.0,0.0,0.0,0.0,0.0,0.0,0.0,0.0,0.0,0.0,0.0,0.0,0.0,0.0,0.0,0.0,0.0,0.0,0.0,0.0,0.0,0.0,0.0,0.0,0.0,0.0,0.0,0.0,0.0,0.0,0.0,0.0,0.0,0.0,0.0,0.0,0.0,0.0,0.0,0.0,0.0,0.0,0.0,0.0,-2.0625,-2.1321,-2.1682,-2.2118,0.0,0.0,0.0,0.0,0.0,0.0,0.0,0.0,0.0,0.0,0.0,0.0,0.0,0.0,0.0,0.0,0.0,0.0,0.0,0.0,0.0,0.0,0.0,0.0,0.0,0.0,0.0,0.0,0.0,0.0,0.0,0.0,0.0,0.0,0.0,0.0,0.0,0.0,0.0,0.0,0.0,0.0,0.0,0.0,0.0,0.0,0.0,0.0,0.0,0.0,0.0,0.0,0.0,0.0,0.0,0.0,0.0,0.0,0.0,0.0,0.0,0.0,0.0,0.0,0.0,0.0,0.0,0.0,0.0,0.0,0.0,0.0,0.0,0.0,0.0,0.0,0.0,0.0,0.0,0.0,0.0,0.0,0.0,0.0,0.0,0.0,0.0,0.0,0.0,0.0,0.0,0.0,0.0,0.0,0.0,0.0,0.0,0.0,0.0,0.0,0.0,0.0,0.0,0.0,0.0,0.0,0.0,0.0,0.0,0.0,-2.052,-2.0813,-2.1205,-2.1524,-2.1888,-2.2255,0.0,0.0,0.0,0.0,0.0,0.0,0.0,0.0,0.0,0.0,0.0,0.0,0.0,0.0,0.0,0.0,0.0,0.0,0.0,0.0,0.0,0.0,0.0,0.0,0.0,0.0,0.0,0.0,0.0,0.0,0.0,0.0,0.0,0.0,0.0,0.0,0.0,0.0,0.0,0.0,0.0,0.0,0.0,0.0,0.0,0.0,0.0,0.0,0.0,0.0,0.0,0.0,0.0,0.0,0.0,0.0,0.0,0.0,0.0,0.0,0.0,0.0,0.0,0.0,0.0,0.0,0.0,0.0,0.0,0.0,0.0,0.0,0.0,0.0,0.0,0.0,0.0,0.0,0.0,0.0,0.0,0.0,0.0,0.0,0.0,0.0,0.0,0.0,0.0,0.0,0.0,0.0,0.0,0.0,0.0,0.0,0.0,0.0,0.0,0.0,0.0,0.0,0.0,0.0,0.0,0.0,0.0,0.0,-2.2349,-2.1045,-2.1061,-2.2458,-2.1994,-2.2023,0.0,0.0,0.0,0.0,0.0,0.0,0.0,0.0,0.0,0.0,0.0,0.0,0.0,0.0,0.0,0.0,0.0,0.0,0.0,0.0,0.0,0.0,0.0,0.0,0.0,0.0,0.0,0.0,0.0,0.0,0.0,0.0,0.0,0.0,0.0,0.0,0.0,0.0,0.0,0.0,0.0,0.0,0.0,0.0,0.0,0.0,0.0,0.0,0.0,0.0,0.0,0.0,0.0,0.0,0.0,0.0,0.0,0.0,0.0,0.0,0.0,0.0,0.0,0.0,0.0,0.0,0.0,0.0,0.0,0.0,0.0,0.0,0.0,0.0,0.0,0.0,0.0,0.0,0.0,0.0,0.0,0.0,0.0,0.0,0.0,0.0,0.0,0.0,0.0,0.0,0.0,0.0,0.0,0.0,0.0,0.0,0.0,0.0,0.0,0.0,0.0,0.0,0.0,0.0,0.0,0.0,0.0,0.0,0.0,-2.1176,-2.096,-2.1278,-2.1994,-2.1818,-2.1831,0.0,0.0,0.0,0.0,0.0,0.0,0.0,0.0,0.0,0.0,0.0,0.0,0.0,0.0,0.0,0.0,0.0,0.0,0.0,0.0,0.0,0.0,0.0,0.0,0.0,0.0,0.0,0.0,0.0,0.0,0.0,0.0,0.0,0.0,0.0,0.0,0.0,0.0,0.0,0.0,0.0,0.0,0.0,0.0,0.0,0.0,0.0,0.0,0.0,0.0,0.0,0.0,0.0,0.0,0.0,0.0,0.0,0.0,0.0,0.0,0.0,0.0,0.0,0.0,0.0,0.0,0.0,0.0,0.0,0.0,0.0,0.0,0.0,0.0,0.0,0.0,0.0,0.0,0.0,0.0,0.0,0.0,0.0,0.0,0.0,0.0,0.0,0.0,0.0,0.0,0.0,0.0,0.0,0.0,0.0,0.0,0.0,0.0,0.0,0.0,0.0,0.0,0.0,0.0,0.0,0.0,0.0,0.0,0.0,-2.0929,0.0,-2.173,-2.1846,-2.1642,-2.1538,0.0,0.0,0.0,0.0,0.0,0.0,0.0,0.0,0.0,0.0,0.0,0.0,0.0,0.0,0.0,0.0,0.0,0.0,0.0,0.0,0.0,0.0,0.0,0.0,0.0,0.0,0.0,0.0,0.0,0.0,0.0,0.0,0.0,0.0,0.0,0.0,0.0,0.0,0.0,0.0,0.0,0.0,0.0,0.0,0.0,0.0,0.0,0.0,0.0,0.0,0.0,0.0,0.0,0.0,0.0,0.0,0.0,0.0,0.0,0.0,0.0,0.0,0.0,0.0,0.0,0.0,0.0,0.0,0.0,0.0,0.0,0.0,0.0,0.0,0.0,0.0,0.0,0.0,0.0,0.0,0.0,0.0,0.0,0.0,0.0,0.0,0.0,0.0,0.0,0.0,0.0,0.0,0.0,0.0,0.0,0.0,0.0,0.0,0.0,0.0,0.0,0.0,0.0,0.0,0.0,0.0,0.0,0.0,-2.2173,-2.2214,-2.2483,-2.2394,-2.2067,-2.1496,-2.122,0.0,0.0,0.0,0.0,0.0,0.0,0.0,0.0,0.0,0.0,0.0,0.0,0.0,0.0,0.0,0.0,0.0,0.0,0.0,0.0,0.0,0.0,0.0,0.0,0.0,0.0,0.0,0.0,0.0,0.0,0.0,0.0,0.0,0.0,0.0,0.0,0.0,0.0,0.0,0.0,0.0,0.0,0.0,0.0,0.0,0.0,0.0,0.0,0.0,0.0,0.0,0.0,0.0,0.0,0.0,0.0,0.0,0.0,0.0,0.0,0.0,0.0,0.0,0.0,0.0,0.0,0.0,0.0,0.0,0.0,0.0,0.0,0.0,0.0,0.0,0.0,0.0,0.0,0.0,0.0,0.0,0.0,0.0,0.0,0.0,0.0,0.0,0.0,0.0,0.0,0.0,0.0,0.0,0.0,0.0,0.0,0.0,0.0,0.0,0.0,0.0,0.0,0.0,0.0,0.0,0.0,0.0,0.0,0.0,-2.2476,-2.1918,-2.1815,-2.2074,-2.1099,-2.087,0.0,0.0,0.0,0.0,0.0,0.0,0.0,0.0,0.0,0.0,0.0,0.0,0.0,0.0,0.0,0.0,0.0,0.0,0.0,0.0,0.0,0.0,0.0,0.0,0.0,0.0,0.0,0.0,0.0,0.0,0.0,0.0,0.0,0.0,0.0,0.0,0.0,0.0,0.0,0.0,0.0,0.0,0.0,0.0,0.0,0.0,0.0,0.0,0.0,0.0,0.0,0.0,0.0,0.0,0.0,0.0,0.0,0.0,0.0,0.0,0.0,0.0,0.0,0.0,0.0,0.0,0.0,0.0,0.0,0.0,0.0,0.0,0.0,0.0,0.0,0.0,0.0,0.0,0.0,0.0,0.0,0.0,0.0,0.0,0.0,0.0,0.0,0.0,0.0,0.0,0.0,0.0,0.0,0.0,0.0,0.0,0.0,0.0,0.0,0.0,0.0,0.0,0.0,0.0,0.0,0.0,0.0,0.0,0.0,-2.3056,-2.2162,-2.1858,-2.2072,-2.1392,-2.1092,-2.1421,0.0,0.0,0.0,0.0,0.0,0.0,0.0,0.0,0.0,0.0,0.0,0.0,0.0,0.0,0.0,0.0,0.0,0.0,0.0,0.0,0.0,0.0,0.0,0.0,0.0,0.0,0.0,0.0,0.0,0.0,0.0,0.0,0.0,0.0,0.0,0.0,0.0,0.0,0.0,0.0,0.0,0.0,0.0,0.0,0.0,0.0,0.0,0.0,0.0,0.0,0.0,0.0,0.0,0.0,0.0,0.0,0.0,0.0,0.0,0.0,0.0,0.0,0.0,0.0,0.0,0.0,0.0,0.0,0.0,0.0,0.0,0.0,0.0,0.0,0.0,0.0,0.0,0.0,0.0,0.0,0.0,0.0,0.0,0.0,0.0,0.0,0.0,0.0,0.0,0.0,0.0,0.0,0.0,0.0,0.0,0.0,0.0,0.0,0.0,0.0,0.0,0.0,0.0,0.0,0.0,0.0,0.0,0.0,-2.383,-2.3026,-2.2497,-2.223,-2.2081,-2.1817,0.0,0.0,0.0,0.0,0.0,0.0,0.0,0.0,0.0,0.0,0.0,0.0,0.0,0.0,0.0,0.0,0.0,0.0,0.0,0.0,0.0,0.0,0.0,0.0,0.0,0.0,0.0,0.0,0.0,0.0,0.0,0.0,0.0,0.0,0.0,0.0,0.0,0.0,0.0,0.0,0.0,0.0,0.0,0.0,0.0,0.0,0.0,0.0,0.0,0.0,0.0,0.0,0.0,0.0,0.0,0.0,0.0,0.0,0.0,0.0,0.0,0.0,0.0,0.0,0.0,0.0,0.0,0.0,0.0,0.0,0.0,0.0,0.0,0.0,0.0,0.0,0.0,0.0,0.0,0.0,0.0,0.0,0.0,0.0,0.0,0.0,0.0,0.0,0.0,0.0,0.0,0.0,0.0,0.0,0.0,0.0,0.0,0.0,0.0,0.0,0.0,0.0,0.0,0.0,0.0,0.0,0.0,0.0,0.0,-2.3028,-2.3105,-2.312,-2.3022,-2.223,-2.1729,0.0,0.0,0.0,0.0,0.0,0.0,0.0,0.0,0.0,0.0,0.0,0.0,0.0,0.0,0.0,0.0,0.0,0.0,0.0,0.0,0.0,0.0,0.0,0.0,0.0,0.0,0.0,0.0,0.0,0.0,0.0,0.0,0.0,0.0,0.0,0.0,0.0,0.0,0.0,0.0,0.0,0.0,0.0,0.0,0.0,0.0,0.0,0.0,0.0,0.0,0.0,0.0,0.0,0.0,0.0,0.0,0.0,0.0,0.0,0.0,0.0,0.0,0.0,0.0,0.0,0.0,0.0,0.0,0.0,0.0,0.0,0.0,0.0,0.0,0.0,0.0,0.0,0.0,0.0,0.0,0.0,0.0,0.0,0.0,0.0,0.0,0.0,0.0,0.0,0.0,0.0,0.0,0.0,0.0,0.0,0.0,0.0,0.0,0.0,0.0,0.0,0.0,0.0,0.0,0.0,0.0,0.0,0.0,-2.3668,-2.3301,-2.3753,-2.3832,-2.3421,-2.2954,-2.2632,0.0,0.0,0.0,0.0,0.0,0.0,0.0,0.0,0.0,0.0,0.0,0.0,0.0,0.0,0.0,0.0,0.0,0.0,0.0,0.0,0.0,0.0,0.0,0.0,0.0,0.0,0.0,0.0,0.0,0.0,0.0,0.0,0.0,0.0,0.0,0.0,0.0,0.0,0.0,0.0,0.0,0.0,0.0,0.0,0.0,0.0,0.0,0.0,0.0,0.0,0.0,0.0,0.0,0.0,0.0,0.0,0.0,0.0,0.0,0.0,0.0,0.0,0.0,0.0,0.0,0.0,0.0,0.0,0.0,0.0,0.0,0.0,0.0,0.0,0.0,0.0,0.0,0.0,0.0,0.0,0.0,0.0,0.0,0.0,0.0,0.0,0.0,0.0,0.0,0.0,0.0,0.0,0.0,0.0,0.0,0.0,0.0,0.0,0.0,0.0,0.0,0.0,0.0,0.0,0.0,0.0,0.0,0.0,-2.4797,-2.4084,-2.4618,-2.4492,-2.3615,-2.401,-2.3855,0.0,0.0,0.0,0.0,0.0,0.0,0.0,0.0,0.0,0.0,0.0,0.0,0.0,0.0,0.0,0.0,0.0,0.0,0.0,0.0,0.0,0.0,0.0,0.0,0.0,0.0,0.0,0.0,0.0,0.0,0.0,0.0,0.0,0.0,0.0,0.0,0.0,0.0,0.0,0.0,0.0,0.0,0.0,0.0,0.0,0.0,0.0,0.0,0.0,0.0,0.0,0.0,0.0,0.0,0.0,0.0,0.0,0.0,0.0,0.0,0.0,0.0,0.0,0.0,0.0,0.0,0.0,0.0,0.0,0.0,0.0,0.0,0.0,0.0,0.0,0.0,0.0,0.0,0.0,0.0,0.0,0.0,0.0,0.0,0.0,0.0,0.0,0.0,0.0,0.0,0.0,0.0,0.0,0.0,0.0,0.0,0.0,0.0,0.0,0.0,0.0,0.0,0.0,0.0,0.0,0.0,0.0,0.0,-2.4595,-2.4383,-2.4723,-2.4763,-2.4557,-2.4236,-2.3517,0.0,0.0,0.0,0.0,0.0,0.0,0.0,0.0,0.0,0.0,0.0,0.0,0.0,0.0,0.0,0.0,0.0,0.0,0.0,0.0,0.0,0.0,0.0,0.0,0.0,0.0,0.0,0.0,0.0,0.0,0.0,0.0,0.0,0.0,0.0,0.0,0.0,0.0,0.0,0.0,0.0,0.0,0.0,0.0,0.0,0.0,0.0,0.0,-2.2899,0.0,0.0,0.0,0.0,0.0,0.0,0.0,0.0,0.0,0.0,0.0,0.0,0.0,0.0,0.0,0.0,0.0,0.0,0.0,0.0,0.0,0.0,0.0,0.0,0.0,0.0,0.0,0.0,0.0,0.0,0.0,0.0,0.0,0.0,0.0,0.0,0.0,0.0,0.0,0.0,0.0,0.0,0.0,0.0,0.0,0.0,0.0,0.0,0.0,0.0,0.0,0.0,0.0,0.0,0.0,0.0,0.0,0.0,0.0,-2.5179,-2.4879,-2.5127,-2.4919,-2.4367,-2.3985,-2.3725,0.0,0.0,0.0,0.0,0.0,0.0,0.0,0.0,0.0,0.0,0.0,0.0,0.0,0.0,0.0,0.0,0.0,0.0,0.0,0.0,0.0,0.0,0.0,0.0,0.0,0.0,0.0,0.0,0.0,0.0,0.0,0.0,0.0,0.0,0.0,0.0,0.0,0.0,0.0,0.0,0.0,0.0,0.0,0.0,0.0,0.0,0.0,0.0,0.0,0.0,0.0,0.0,0.0,0.0,0.0,0.0,0.0,0.0,0.0,0.0,0.0,0.0,0.0,0.0,0.0,0.0,0.0,0.0,0.0,0.0,0.0,0.0,0.0,0.0,0.0,0.0,0.0,0.0,0.0,0.0,0.0,0.0,0.0,0.0,0.0,0.0,0.0,0.0,0.0,0.0,0.0,0.0,0.0,0.0,0.0,0.0,0.0,0.0,0.0,0.0,0.0,0.0,0.0,0.0,0.0,0.0,0.0,-2.5625,-2.5843,-2.5544,-2.5497,-2.5063,-2.4043,-2.3776,-2.4125,-2.508,0.0,0.0,0.0,0.0,0.0,0.0,0.0,0.0,0.0,0.0,0.0,0.0,0.0,0.0,0.0,0.0,0.0,0.0,0.0,0.0,0.0,0.0,0.0,0.0,0.0,0.0,0.0,0.0,0.0,0.0,0.0,0.0,0.0,0.0,0.0,0.0,0.0,0.0,-2.5552,-2.6376,0.0,0.0,0.0,0.0,0.0,0.0,0.0,0.0,-2.412,0.0,0.0,0.0,0.0,0.0,0.0,0.0,0.0,0.0,0.0,0.0,0.0,0.0,0.0,0.0,0.0,0.0,0.0,0.0,0.0,0.0,0.0,0.0,0.0,0.0,0.0,0.0,0.0,0.0,0.0,0.0,0.0,0.0,0.0,0.0,0.0,0.0,0.0,0.0,0.0,0.0,0.0,0.0,0.0,0.0,0.0,0.0,0.0,0.0,0.0,0.0,0.0,0.0,0.0,0.0,0.0,-2.644,-2.6132,-2.6186,-2.6494,-2.567,-2.5289,-2.5438,-2.4286,-2.3996,-2.4812,0.0,0.0,0.0,0.0,0.0,0.0,0.0,0.0,0.0,0.0,0.0,0.0,0.0,0.0,0.0,0.0,0.0,0.0,0.0,0.0,0.0,0.0,0.0,0.0,0.0,0.0,0.0,0.0,0.0,0.0,0.0,0.0,0.0,0.0,0.0,0.0,0.0,0.0,0.0,-2.8605,-2.8817,0.0,0.0,0.0,0.0,0.0,0.0,0.0,0.0,-2.4584,0.0,0.0,0.0,0.0,0.0,0.0,0.0,0.0,0.0,0.0,0.0,0.0,0.0,0.0,0.0,0.0,0.0,0.0,0.0,0.0,0.0,0.0,0.0,0.0,0.0,0.0,0.0,0.0,0.0,0.0,0.0,0.0,0.0,0.0,0.0,0.0,0.0,0.0,0.0,0.0,0.0,0.0,0.0,0.0,0.0,0.0,0.0,0.0,0.0,0.0,0.0,0.0,0.0,0.0,0.0,-2.6533,-2.6613,-2.6614,-2.6492,-2.5873,-2.5426,-2.5216,-2.4171,-2.3971,0.0,0.0,0.0,0.0,0.0,0.0,0.0,0.0,0.0,0.0,0.0,0.0,0.0,0.0,0.0,0.0,0.0,0.0,0.0,0.0,0.0,0.0,0.0,0.0,0.0,0.0,0.0,0.0,0.0,0.0,0.0,0.0,0.0,0.0,0.0,0.0,0.0,0.0,0.0,0.0,-2.9786,-3.003,-2.9725,0.0,0.0,0.0,0.0,0.0,0.0,-2.6171,-2.5999,0.0,0.0,0.0,0.0,0.0,0.0,0.0,0.0,0.0,0.0,0.0,0.0,0.0,0.0,0.0,0.0,0.0,0.0,0.0,0.0,0.0,0.0,0.0,0.0,0.0,0.0,0.0,0.0,0.0,0.0,0.0,0.0,0.0,0.0,0.0,0.0,0.0,0.0,0.0,0.0,0.0,0.0,0.0,0.0,0.0,0.0,0.0,0.0,0.0,0.0,0.0,0.0,0.0,0.0,0.0,-2.6466,-2.7001,-2.7012,-2.6528,-2.6225,-2.5711,-2.5033,-2.4236,-2.4087,0.0,0.0,0.0,0.0,0.0,0.0,0.0,0.0,0.0,0.0,0.0,0.0,0.0,0.0,0.0,0.0,0.0,0.0,0.0,0.0,0.0,0.0,0.0,0.0,0.0,0.0,0.0,0.0,0.0,0.0,0.0,0.0,0.0,0.0,0.0,0.0,0.0,0.0,0.0,0.0,0.0,-3.1323,-3.1549,-3.0628,0.0,0.0,0.0,0.0,-2.7814,-2.796,0.0,0.0,0.0,0.0,0.0,0.0,0.0,0.0,0.0,0.0,0.0,0.0,0.0,0.0,0.0,0.0,0.0,0.0,0.0,0.0,0.0,0.0,0.0,0.0,0.0,0.0,0.0,0.0,0.0,0.0,0.0,0.0,0.0,0.0,0.0,0.0,0.0,0.0,0.0,0.0,0.0,0.0,0.0,0.0,0.0,0.0,0.0,0.0,0.0,0.0,0.0,0.0,0.0,0.0,0.0,0.0,-2.676,-2.7094,-2.7375,-2.7479,-2.6633,-2.6102,-2.5985,-2.5231,-2.4802,0.0,0.0,0.0,0.0,0.0,0.0,0.0,0.0,0.0,0.0,0.0,0.0,0.0,0.0,0.0,0.0,0.0,0.0,0.0,0.0,0.0,0.0,0.0,0.0,0.0,0.0,0.0,0.0,0.0,0.0,0.0,0.0,0.0,0.0,0.0,0.0,0.0,0.0,0.0,0.0,0.0,-3.34,-3.1823,-3.1514,-3.1305,0.0,0.0,-3.0478,-3.1419,-3.1267,0.0,0.0,0.0,0.0,0.0,0.0,0.0,0.0,0.0,0.0,0.0,0.0,0.0,0.0,0.0,0.0,0.0,0.0,0.0,0.0,0.0,0.0,0.0,0.0,0.0,0.0,0.0,0.0,0.0,0.0,0.0,0.0,0.0,0.0,0.0,0.0,0.0,0.0,0.0,0.0,0.0,0.0,0.0,0.0,0.0,0.0,0.0,0.0,0.0,0.0,0.0,0.0,0.0,0.0,0.0,-2.7196,-2.7295,-2.7455,-2.7573,-2.7601,-2.68,-2.6339,-2.6183,-2.5348,-2.5124,0.0,0.0,0.0,0.0,0.0,0.0,0.0,0.0,0.0,0.0,0.0,0.0,0.0,0.0,0.0,0.0,0.0,0.0,0.0,0.0,0.0,0.0,0.0,0.0,0.0,0.0,0.0,0.0,0.0,0.0,0.0,0.0,0.0,0.0,0.0,0.0,0.0,0.0,0.0,0.0,0.0,0.0,-3.4918,-3.4515,0.0,0.0,0.0,-3.3338,-3.2927,0.0,0.0,0.0,0.0,0.0,0.0,0.0,0.0,0.0,0.0,0.0,0.0,0.0,0.0,0.0,0.0,0.0,0.0,0.0,0.0,0.0,0.0,0.0,0.0,0.0,0.0,0.0,0.0,0.0,0.0,0.0,0.0,0.0,0.0,0.0,0.0,0.0,0.0,0.0,0.0,0.0,0.0,0.0,0.0,0.0,0.0,0.0,0.0,0.0,0.0,0.0,0.0,0.0,0.0,0.0,0.0,0.0,-2.7848,-2.7939,-2.7875,-2.7735,-2.7249,-2.6803,-2.6449,-2.5609,0.0,0.0,0.0,0.0,0.0,0.0,0.0,0.0,0.0,0.0,0.0,0.0,0.0,0.0,0.0,0.0,0.0,0.0,0.0,0.0,0.0,0.0,0.0,0.0,0.0,0.0,0.0,-2.3799,0.0,0.0,0.0,0.0,0.0,0.0,0.0,0.0,0.0,0.0,0.0,0.0,0.0,0.0,-3.6787,-3.733,-3.7022,-3.6628,0.0,0.0,-3.5807,-3.4842,-3.5091,-3.4904,0.0,0.0,0.0,0.0,0.0,0.0,0.0,0.0,0.0,0.0,0.0,0.0,0.0,0.0,0.0,0.0,0.0,0.0,0.0,0.0,0.0,0.0,0.0,0.0,0.0,0.0,0.0,0.0,0.0,0.0,0.0,0.0,0.0,0.0,0.0,0.0,0.0,0.0,0.0,0.0,0.0,0.0,0.0,0.0,0.0,0.0,0.0,0.0,0.0,0.0,0.0,0.0,0.0,0.0,-2.7757,-2.8276,-2.8426,-2.8551,-2.8478,-2.8257,-2.7816,-2.7241,-2.6386,-2.6101,0.0,0.0,0.0,0.0,0.0,0.0,0.0,0.0,0.0,0.0,0.0,0.0,0.0,0.0,0.0,0.0,0.0,0.0,0.0,0.0,0.0,0.0,0.0,0.0,0.0,0.0,0.0,0.0,0.0,0.0,0.0,0.0,0.0,0.0,0.0,0.0,0.0,0.0,0.0,0.0,0.0,-3.7349,-3.7457,-3.7747,-3.8177,0.0,-3.8058,-3.7568,-3.8122,-3.7946,-3.7343,-3.6123,0.0,0.0,0.0,0.0,0.0,0.0,0.0,0.0,0.0,0.0,0.0,0.0,0.0,0.0,0.0,0.0,0.0,0.0,0.0,0.0,0.0,0.0,0.0,0.0,0.0,0.0,0.0,0.0,-2.8234,0.0,0.0,0.0,0.0,0.0,0.0,0.0,0.0,0.0,0.0,0.0,0.0,0.0,0.0,0.0,0.0,0.0,0.0,0.0,0.0,0.0,0.0,0.0,0.0,-2.8991,-2.9341,-2.96,-2.9731,-2.9548,-2.8924,-2.8379,-2.7899,-2.7014,-2.654,0.0,0.0,0.0,0.0,0.0,0.0,0.0,0.0,0.0,0.0,0.0,0.0,0.0,0.0,0.0,0.0,0.0,0.0,0.0,0.0,0.0,0.0,0.0,0.0,0.0,0.0,0.0,0.0,-2.5028,-2.5563,-2.668,0.0,0.0,0.0,0.0,0.0,0.0,0.0,0.0,0.0,0.0,-3.9874,-4.0344,-4.0577,0.0,0.0,-4.0297,-3.9704,-3.9813,-3.9175,-3.8383,-3.7503,-3.6289,0.0,0.0,0.0,0.0,0.0,0.0,0.0,0.0,0.0,0.0,0.0,0.0,0.0,0.0,0.0,0.0,0.0,0.0,0.0,0.0,0.0,0.0,0.0,0.0,0.0,0.0,0.0,0.0,0.0,0.0,0.0,0.0,0.0,0.0,0.0,0.0,0.0,0.0,0.0,0.0,0.0,0.0,0.0,0.0,0.0,0.0,0.0,0.0,0.0,0.0,0.0,0.0,-2.9884,-3.034,-3.0662,-3.071,-3.0566,-2.9862,-2.9182,-2.8628,-2.7743,-2.7234,0.0,0.0,0.0,0.0,0.0,0.0,0.0,0.0,0.0,0.0,0.0,0.0,0.0,0.0,0.0,0.0,0.0,0.0,0.0,0.0,0.0,0.0,0.0,0.0,0.0,0.0,0.0,0.0,-2.6008,-2.6567,-2.7624,0.0,0.0,0.0,0.0,0.0,0.0,0.0,0.0,0.0,0.0,-4.1439,-4.2307,-4.2656,-4.2766,-4.2656,-4.2051,-4.15,-4.1225,-4.0492,-3.974,-3.9025,0.0,0.0,0.0,0.0,0.0,0.0,0.0,0.0,0.0,0.0,0.0,0.0,0.0,0.0,0.0,0.0,0.0,0.0,0.0,0.0,0.0,0.0,0.0,0.0,0.0,0.0,0.0,-2.9018,0.0,0.0,-2.9005,0.0,0.0,0.0,0.0,0.0,0.0,0.0,0.0,0.0,0.0,0.0,0.0,0.0,0.0,0.0,0.0,0.0,0.0,0.0,0.0,0.0,0.0,-3.0193,-3.1095,-3.1285,-3.1404,-3.1404,-3.1007,-3.0405,-2.9537,-2.8585,-2.8255,-2.8733,0.0,0.0,0.0,0.0,0.0,0.0,0.0,0.0,0.0,0.0,0.0,0.0,0.0,0.0,0.0,0.0,0.0,0.0,0.0,0.0,0.0,0.0,0.0,0.0,0.0,0.0,-2.702,-2.8112,-2.8737,0.0,0.0,0.0,0.0,0.0,0.0,0.0,0.0,0.0,-3.8815,-4.0529,-4.1858,-4.2839,-4.3536,-4.3903,-4.3554,-4.3114,-4.2821,-4.2803,-4.2142,-4.15,0.0,0.0,0.0,0.0,0.0,0.0,0.0,0.0,0.0,0.0,0.0,0.0,0.0,0.0,0.0,0.0,0.0,0.0,0.0,0.0,0.0,0.0,0.0,0.0,0.0,0.0,0.0,-2.918,-2.9544,0.0,0.0,0.0,0.0,0.0,0.0,0.0,0.0,0.0,0.0,0.0,-2.8536,-2.8731,0.0,0.0,0.0,0.0,0.0,0.0,0.0,0.0,0.0,0.0,0.0,0.0,-3.1656,-3.2179,-3.2713,-3.2674,-3.219,-3.1863,-3.1274,-3.0405,-2.9844,-2.9392,-2.9159,0.0,0.0,0.0,0.0,0.0,0.0,0.0,0.0,0.0,0.0,0.0,0.0,0.0,0.0,0.0,0.0,0.0,0.0,0.0,0.0,0.0,0.0,0.0,0.0,0.0,-2.7374,0.0,0.0,0.0,0.0,0.0,0.0,0.0,0.0,0.0,0.0,-3.6598,-3.8547,-4.0428,-4.2169,-4.354,-4.4398,-4.471,-4.4948,0.0,0.0,0.0,0.0,0.0,0.0,0.0,0.0,0.0,0.0,0.0,0.0,0.0,0.0,-3.8689,-3.6674,-3.5767,-3.5623,-3.6518,0.0,0.0,0.0,0.0,0.0,0.0,0.0,0.0,0.0,0.0,0.0,0.0,0.0,0.0,-2.9502,-2.9978,-3.0162,0.0,0.0,0.0,0.0,0.0,0.0,0.0,0.0,-2.9237,-2.9147,-2.9163,-2.9189,-2.8994,-2.8608,-2.9103,-2.9009,0.0,0.0,0.0,0.0,0.0,0.0,0.0,0.0,-3.2396,-3.2846,-3.3536,-3.362,-3.3129,-3.2696,-3.2232,-3.1564,-3.0909,-3.0292,-2.9573,-2.9218,-2.9014,0.0,0.0,0.0,0.0,0.0,0.0,0.0,0.0,0.0,0.0,0.0,0.0,0.0,0.0,0.0,0.0,0.0,0.0,0.0,0.0,0.0,0.0,0.0,-2.9002,0.0,0.0,0.0,0.0,0.0,0.0,0.0,0.0,0.0,-3.6826,-3.8644,-4.0506,-4.1888,-4.3343,-4.4563,-4.5407,0.0,0.0,0.0,0.0,0.0,0.0,0.0,-4.3921,-4.3921,-4.3921,-4.3866,-4.3738,-4.405,-4.4031,-4.3114,0.0,0.0,-4.0052,-3.9171,-3.9116,-3.9777,-3.9575,-3.941,-3.9832,-3.9905,-3.9978,0.0,0.0,0.0,0.0,-2.8211,0.0,0.0,0.0,-3.0172,-3.0146,0.0,-3.0669,0.0,0.0,0.0,0.0,-3.0431,-3.0216,0.0,0.0,-2.9957,-2.996,-3.0202,-2.9948,-2.9695,-2.9528,-2.9763,-2.995,-3.0051,-2.935,0.0,0.0,0.0,0.0,0.0,0.0,-3.2427,-3.3028,-3.3833,-3.4256,-3.4212,-3.3627,-3.3129,-3.2852,-3.1942,-3.1003,-3.0064,-3.0269,-3.0005,-2.9017,-2.9609,0.0,0.0,0.0,0.0,0.0,0.0,0.0,0.0,0.0,0.0,0.0,0.0,0.0,0.0,0.0,0.0,0.0,0.0,0.0,0.0,-3.0171,0.0,0.0,0.0,0.0,0.0,0.0,0.0,0.0,0.0,-3.983,-3.9179,-4.0431,-4.193,-4.3072,0.0,0.0,0.0,0.0,-4.6507,-4.6544,-4.6525,-4.6507,-4.6562,-4.6213,-4.5938,-4.592,0.0,0.0,-4.5443,-4.57,-4.5828,-4.5425,-4.5627,-4.5205,-4.2876,-4.2051,-4.1886,-4.2252,-4.1996,-4.1904,-4.2234,-4.2252,-4.2289,-3.0111,0.0,0.0,0.0,0.0,-2.9683,-3.0497,-3.1797,-3.1092,-3.1024,-3.1515,-3.132,0.0,0.0,0.0,0.0,0.0,0.0,-3.065,-3.0663,-3.0649,-3.0831,-3.1376,-3.1302,-3.1321,-3.1478,-3.1491,-3.1401,-3.1129,-3.1237,-3.1195,-3.0931,0.0,0.0,0.0,0.0,-3.3671,-3.426,-3.4864,-3.5191,-3.5108,-3.4822,-3.441,-3.3852,-3.355,-3.2744,-3.142,-3.1587,-3.1213,-3.0276,-3.0336,0.0,0.0,0.0,0.0,0.0,0.0,0.0,0.0,0.0,0.0,0.0,0.0,0.0,0.0,0.0,0.0,0.0,0.0,0.0,-3.0533,-3.1777,-3.261,0.0,0.0,0.0,0.0,0.0,0.0,0.0,0.0,0.0,-4.2073,-4.2912,-4.3798,0.0,0.0,-4.6444,-4.6745,-4.6855,-4.713,-4.7681,-4.7534,0.0,-4.8121,-4.7644,-4.7167,-4.7167,-4.7185,-4.7149,-4.7039,-4.7332,-4.7387,-4.6709,-4.691,-4.6837,-4.592,-4.4655,-4.4031,-4.4288,-4.3884,-4.3554,-4.3884,-4.3976,-4.3995,-3.2292,-3.0885,-3.023,-3.0242,-3.0804,-3.056,-3.1213,-3.2356,-3.1611,-3.1542,-3.2008,-3.1865,-3.1579,-3.1164,-3.1251,0.0,0.0,0.0,-3.1399,-3.1414,-3.1402,-3.1634,-3.2132,-3.2257,-3.2374,-3.2436,-3.2517,-3.2533,-3.2299,-3.2602,-3.2848,-3.3118,0.0,-3.2691,-3.3089,-3.3913,-3.4492,-3.4806,-3.5346,-3.5647,-3.5534,-3.5281,-3.4828,-3.4364,-3.4126,-3.3543,-3.2603,-3.2464,-3.201,-3.1022,-3.0904,-3.0662,0.0,0.0,0.0,0.0,0.0,0.0,0.0,0.0,0.0,0.0,0.0,-2.8052,-2.8544,0.0,0.0,0.0,-3.0918,-3.17,-3.1999,-3.3411,0.0,0.0,0.0,0.0,0.0,0.0,0.0,-4.1516,-4.2639,-4.352,-4.4244,-4.4869,-4.5328,-4.5399,-4.6438,-4.735,-4.7809,0.0,-4.8047,-4.8671,-4.8561,-4.8579,-4.9056,-4.8744,-4.8414,-4.8414,-4.8286,-4.8176,-4.8176,-4.8249,-4.8102,-4.7736,-4.7772,-4.7846,-4.7607,-4.6635,-4.5865,-4.5975,-4.5627,-4.5388,-4.5608,-4.5627,-4.5645,-3.4217,-3.4006,-3.2023,-3.1353,-3.1404,-3.1164,-3.1594,-3.2338,-3.2085,-3.1964,-3.1964,-3.2426,-3.2455,-3.2195,-3.2353,0.0,-3.2245,-3.2245,-3.2173,-3.2229,-3.2229,-3.2362,-3.2786,-3.2964,-3.3028,-3.2885,-3.3125,-3.3381,-3.3653,-3.364,-3.4143,-3.5116,-3.4135,-3.3559,-3.3615,-3.4462,-3.5043,-3.5072,-3.557,-3.583,-3.5772,-3.525,-3.4818,-3.4743,-3.4243,-3.3917,-3.3678,-3.3235,-3.2528,-3.1575,-3.1543,-3.1401,-3.1108,0.0,0.0,0.0,0.0,0.0,0.0,0.0,0.0,0.0,0.0,0.0,0.0,0.0,0.0,-3.1772,-3.2874,0.0,-3.3222,-3.4966,0.0,0.0,0.0,-3.9112,-4.0301,-4.1531,-4.2557,-4.3309,0.0,0.0,-4.57,-4.6374,-4.6711,-4.6402,-4.7049,-4.7908,-4.8809,-4.8928,-4.9093,-4.9478,-4.9551,-4.9551,-4.9624,-4.9551,-4.9459,-4.9386,-4.9203,-4.8946,-4.8909,-4.8616,-4.8377,-4.8322,-4.8304,-4.8267,-4.8267,-4.7882,-4.7626,-4.724,-4.7094,-4.7039,-4.6984,-4.6965,-4.6947,-3.5286,-3.4605,-3.4596,-3.3993,-3.3139,-3.2893,-3.3082,-3.369,-3.3437,-3.3328,-3.328,-3.2774,-3.247,-3.2227,-3.2261,-3.2383,-3.2519,-3.2531,-3.2483,-3.2495,-3.2495,-3.2968,-3.3877,-3.3721,-3.4094,-3.4872,-3.4795,-3.4728,-3.4767,-3.5186,-3.5392,-3.5472,-3.5991,-3.6017,-3.565,-3.5606,-3.6002,-3.6545,-3.6744,-3.6706,-3.6594,-3.6716,-3.6636,-3.6313,-3.6326,-3.5984,-3.5385,-3.5052,-3.4504,-3.3562,-3.3405,-3.3014,-3.235,-3.2252,0.0,0.0,0.0,0.0,0.0,0.0,0.0,0.0,0.0,-3.056,-3.1193,0.0,-3.2379,0.0,-3.3966,-3.5013,-3.5908,-3.697,0.0,0.0,-4.0981,-4.1953,-4.3181,-4.3915,-4.4612,-4.539,-4.5974,-4.654,-4.7226,-4.774,-4.8104,-4.8101,-4.8389,-4.8727,-4.9294,-4.9368,-4.9496,-4.9881,-4.9991,-5.0083,-5.0321,-5.0175,-4.9881,-4.9551,-4.9423,-4.9368,-4.9368,-4.9038,-4.8763,-4.8744,-4.8487,-4.8304,-4.8286,-4.8194,-4.8121,-4.7974,-4.7534,-4.7112,-4.7112,-4.7112,-4.7112,-3.6125,-3.5631,-3.5875,-3.5682,-3.5129,-3.4402,-3.4115,-3.4342,-3.4076,-3.3968,-3.3944,-3.3497,-3.3219,-3.3074,-3.2966,-3.299,-3.3111,-3.3002,-3.2942,-3.2942,-3.2942,-3.3273,-3.391,-3.4195,-3.4599,-3.5128,-3.5271,-3.5391,-3.5391,-3.5785,-3.6056,-3.6204,-3.6881,-3.7225,-3.7316,-3.6867,-3.6923,-3.73,-3.7168,-3.6945,-3.6741,-3.7009,-3.7157,-3.7007,-3.6947,-3.6789,-3.6446,-3.5915,-3.5304,-3.469,-3.4375,-3.4179,-3.3908,-3.3582,-3.3413,0.0,0.0,0.0,0.0,0.0,0.0,0.0,0.0,0.0,0.0,0.0,-3.3954,-3.4753,-3.6027,-3.7127,-3.7801,-3.8927,-4.0151,-4.1314,-4.2657,-4.4,-4.508,-4.594,-4.6727,-4.7518,-4.7587,-4.7874,-4.8526,-4.8573,-4.8819,-4.926,-4.9384,-4.9533,-4.9735,-4.9918,-5.0138,-5.0358,-5.0395,-5.0468,-5.0688,-5.0541,-5.0321,-5.0083,-4.99,-4.979,-4.9771,-4.9441,-4.9129,-4.8946,-4.8726,-4.8506,-4.8322,-4.8286,-4.8286,-4.8231,-4.7937,-4.7662,-4.7626,-4.7626,-4.7626,-3.6901,-3.6599,-3.637,-3.6602,-3.6843,-3.5654,-3.5087,-3.4937,-3.4682,-3.4524,-3.4348,-3.4233,-3.4336,-3.4275,-3.3907,-3.3799,-3.3888,-3.3646,-3.3512,-3.3376,-3.3512,-3.3625,-3.3688,-3.4318,-3.4621,-3.4829,-3.5252,-3.5525,-3.5511,-3.5894,-3.639,-3.6949,-3.7244,-3.7777,-3.8396,-3.7987,-3.768,-3.7636,-3.7358,-3.7051,-3.6729,-3.6868,-3.7124,-3.7318,-3.7001,-3.693,-3.7102,-3.6328,-3.573,-3.5484,-3.5147,-3.5246,-3.5665,-3.5045,-3.4787,0.0,-3.5228,0.0,0.0,0.0,0.0,0.0,0.0,0.0,0.0,-3.4878,-3.558,-3.7067,-3.8413,-3.9308,-3.9609,-4.0974,-4.1981,-4.2341,-4.397,-4.5502,-4.6519,-4.7662,-4.8625,-4.9431,-4.918,-4.9078,-4.9578,-4.9253,-4.9296,-5.0035,-5.009,-5.0175,-5.023,-5.0468,-5.067,-5.0725,-5.0725,-5.0688,-5.0706,-5.0706,-5.0688,-5.067,-5.0431,-5.0193,-5.0101,-4.9826,-4.9459,-4.9111,-4.8946,-4.8781,-4.8432,-4.8341,-4.8286,-4.8286,-4.8249,-4.8212,-4.8231,-4.8212,-4.8286,-3.7335,-3.6901,-3.6841,-3.6698,-3.6395,-3.6129,-3.6378,-3.7059,-3.6782,-3.6183,-3.5193,-3.473,-3.4724,-3.4848,-3.4135,-3.4013,-3.4555,-3.4505,-3.402,-3.3376,-3.4157,-3.4594,-3.4817,-3.4208,-3.4511,-3.5365,-3.505,-3.487,-3.487,-3.6296,-3.6991,-3.6977,-3.8105,-3.8629,-3.8543,0.0,0.0,0.0,-3.7914,-3.7724,-3.7387,-3.7313,-3.7478,-3.7876,-3.7516,0.0,-3.7897,-3.7296,-3.6952,-3.7173,-3.6842,0.0,0.0,0.0,0.0,0.0,0.0,0.0,0.0,0.0,0.0,0.0,-3.826,-3.7787,-3.6738,-3.7531,-3.8521,-3.9583,-4.017,-4.1004,-4.2271,-4.2667,-4.3811,-4.59,-4.6617,-4.7404,-4.8708,-4.9092,-4.9449,-4.9955,-4.9907,-5.0035,-5.0395,-5.0383,-5.0401,-5.056,-5.0615,-5.0615,-5.0596,-5.0651,-5.0706,-5.0725,-5.0725,-5.0725,-5.0725,-5.0725,-5.0725,-5.0706,-5.067,-5.0486,-5.0211,-5.0101,-4.9863,-4.9478,-4.9129,-4.8909,-4.8781,-4.8524,-4.8322,-4.8286,-4.8286,-4.8286,-4.8286,-4.8286,-4.8286,-3.7456,-3.6985,-3.6973,-3.6978,0.0,-3.6846,-3.738,-3.8051,-3.6909,-3.5963,-3.5243,-3.4881,-3.5041,-3.5474,-3.5065,-3.522,-3.5762,-3.5819,-3.5403,-3.4718,-3.5192,-3.5291,-3.5151,-3.5011,-3.528,-3.5819,-3.562,-3.5626,-3.5613,-3.6865,-3.7461,-3.7307,-3.8658,-3.9187,-3.9026,-3.9327,-3.9091,-3.8295,-3.8148,-3.8192,-3.822,-3.8234,-3.8477,-3.8974,-3.8913,0.0,0.0,0.0,0.0,0.0,0.0,0.0,0.0,-3.8716,0.0,-3.8798,-3.9272,-3.9444,-3.9177,-3.9528,-3.9975,-4.0457,-4.0705,-4.0413,-3.9328,-3.9956,-4.073,-4.139,-4.2154,-4.3003,-4.4072,-4.4446,-4.531,-4.7,-4.7655,-4.826,-4.9278,-4.9786,-5.0193,-5.0376,-5.0413,-5.0505,-5.0688,-5.0725,-5.0725,-5.0725,-5.0725,-5.0725,-5.0725,-5.0725,-5.0725,-5.0725,-5.0725,-5.0725,-5.0725,-5.0725,-5.0725,-5.0725,-5.0725,-5.0633,-5.045,-5.0431,-5.0285,-4.99,-4.9643,-4.9423,-4.9001,-4.8891,-4.8763,-4.8414,-4.8451,-4.8506,-4.8341,-4.8286,-4.8286,-3.7517,-3.7046,-3.7046,-3.7224,-3.7299,-3.7286,-3.7641,-3.7907,-3.6354,0.0,0.0,-3.5204,-3.5556,-3.6104,-3.6066,-3.6409,-3.6953,-3.6946,-3.6584,-3.5974,-3.6138,-3.6026,-3.5527,-3.5811,-3.6021,-3.6119,-3.6344,-3.6404,-3.6377,-3.733,-3.7825,-3.789,-3.9019,-3.9568,-3.9722,-4.024,-3.9971,-3.9032,-3.8752,-3.8811,-3.9266,-3.9404,-3.9697,-4.0093,-4.0164,-4.0213,-4.0059,-3.9691,-3.9308,-3.918,-3.9164,-3.9356,-3.9755,-4.0158,-4.0433,-4.0494,-4.1293,-4.1586,-4.1212,-4.1768,-4.2261,-4.2426,-4.2807,-4.2641,-4.1746,-4.1962,-4.2357,-4.2994,-4.3907,-4.4633,-4.5191,-4.5909,-4.6665,-4.7355,-4.8153,-4.8867,-4.9525,-5.0194,-5.0688,-5.0725,-5.0706,-5.0725,-5.0706,-5.0725,-5.0725,-5.0725,-5.0725,-5.0725,-5.0725,-5.0725,-5.0725,-5.0725,-5.0725,-5.0725,-5.0725,-5.0725,-5.0725,-5.0725,-5.0725,-5.0688,-5.0633,-5.067,-5.056,-5.0156,-5.0138,-4.9845,-4.9313,-4.9313,-4.9239,-4.8543,-4.8653,-4.8781,-4.8396,-4.8286,-4.8286,-3.7782,-3.7311,-3.7311,-3.7146,-3.6686,-3.6674,-3.6675,-3.6565,-3.656,-3.626,-3.579,-3.579,-3.6141,-3.67,-3.6384,-3.6717,-3.7292,-3.7329,-3.6803,-3.6116,-3.6829,-3.7032,-3.6658,-3.596,-3.597,-3.638,-3.5995,-3.5733,-3.5939,-3.7441,-3.8049,-3.8068,-3.925,-4.0002,-4.027,-4.0771,-4.1028,-4.0831,-4.0785,-4.0633,-4.048,-4.0523,-4.0528,-4.0467,-4.0225,-4.0363,-4.0917,-4.0562,-4.0481,-4.0724,-4.074,-4.1047,-4.1777,-4.1809,-4.2289,-4.2935,-4.317,-4.3271,-4.3186,-4.332,-4.3689,-4.4395,-4.4989,-4.4564,-4.3135,-4.2969,-4.3335,-4.4135,-4.4764,-4.5277,-4.5995,-4.6457,-4.7252,-4.8473,-4.8806,-4.9364,-5.0321,-5.0566,-5.0725,-5.0725,-5.0725,-5.0725,-5.0725,-5.0725,-5.0725,-5.0725,-5.0725,-5.0725,-5.0725,-5.0725,-5.0725,-5.0725,-5.0725,-5.0725,-5.0725,-5.0725,-5.0725,-5.0725,-5.0725,-5.0633,-5.0358,-5.0541,-5.0578,-5.0211,-5.0175,-5.0083,-4.99,-4.968,-4.9368,-4.8909,-4.8891,-4.8799,-4.8377,-4.8286,-4.8286,-3.8175,-3.7565,-3.742,-3.7142,-3.6904,-3.6992,-3.6895,-3.6771,-3.6877,-3.6639,-3.6143,-3.6471,-3.6865,-3.7283,-3.7359,-3.7689,-3.8378,-3.856,-3.8184,-3.7482,-3.7969,-3.7842,-3.7356,-3.6997,-3.6932,-3.7131,-3.6735,-3.6537,-3.6733,-3.7908,-3.8412,-3.8395,-3.9951,-4.0926,-4.1437,-4.1958,-4.228,-4.2173,-4.159,-4.1314,-4.1402,-4.1507,-4.1562,-4.1753,-4.1905,-4.2061,-4.2231,-4.237,-4.2473,-4.244,-4.244,-4.267,-4.3178,-4.3516,-4.3784,-4.4131,-4.4695,-4.4901,-4.4593,-4.4798,-4.5174,-4.5549,-4.5875,-4.567,-4.4937,-4.4785,-4.4954,-4.5345,-4.5789,-4.6149,-4.6508,-4.7056,-4.7785,-4.8789,-4.9142,-4.967,-5.0389,-5.0626,-5.0725,-5.0725,-5.0725,-5.0725,-5.0725,-5.0725,-5.0725,-5.0725,-5.0725,-5.0725,-5.0725,-5.0725,-5.0725,-5.0725,-5.0725,-5.0725,-5.0725,-5.0725,-5.0725,-5.0725,-5.0725,-5.0651,-5.0468,-5.0633,-5.0615,-5.0505,-5.045,-5.0358,-5.0211,-5.0175,-4.9808,-4.9093,-4.9111,-4.8983,-4.8506,-4.8286,-4.8286,-3.8783,-3.8155,-3.7959,-3.7677,-3.7372,-3.763,-3.7542,-3.7476,-3.7585,-3.731,-3.6765,-3.7152,-3.7473,-3.784,-3.8237,-3.8681,-3.9114,-3.9312,-3.9174,-3.8706,-3.8706,-3.8478,-3.801,-3.7956,-3.7916,-3.7876,-3.7622,-3.7587,-3.7798,-3.8473,-3.9123,-3.9565,-4.0994,-4.1994,-4.2633,-4.3193,-4.3534,-4.3503,-4.2557,-4.217,-4.2392,-4.2532,-4.285,-4.322,-4.3705,-4.389,-4.3877,-4.4193,-4.4234,-4.4054,-4.4038,-4.4204,-4.4553,-4.4896,-4.515,-4.5277,-4.6058,-4.6283,-4.5971,-4.6283,-4.6491,-4.6491,-4.6491,-4.6491,-4.6491,-4.6474,-4.6406,-4.6303,-4.6508,-4.6782,-4.6954,-4.7502,-4.8178,-4.8872,-4.9335,-4.9708,-5.015,-5.048,-5.0472,-5.0363,-5.0485,-5.0626,-5.0535,-5.0621,-5.0725,-5.0725,-5.0725,-5.0725,-5.0725,-5.0725,-5.0725,-5.0725,-5.0725,-5.0725,-5.0725,-5.0725,-5.0725,-5.0725,-5.0725,-5.0706,-5.0688,-5.0706,-5.0706,-5.0688,-5.0706,-5.0596,-5.0358,-5.0486,-5.0193,-4.9368,-4.9294,-4.9221,-4.8469,-4.8286,-4.8286,-3.973,-3.9299,-3.9124,-3.8932,-3.8353,-3.8425,-3.8387,-3.8483,-3.8957,-3.8803,-3.7892,-3.7758,-3.7618,-3.7793,-3.8584,-3.9038,-3.9025,-3.8887,-3.874,-3.874,-3.8638,-3.8638,-3.8584,-3.8357,-3.8223,-3.8183,-3.7916,-3.8122,-3.8574,-3.9195,-4.0303,-4.1896,-4.2674,-4.3309,-4.3877,-4.4522,-4.4758,-4.4868,-4.4695,-4.4203,-4.3347,-4.3886,-4.4242,-4.4133,-4.4531,-4.5063,-4.565,-4.5419,-4.5234,-4.5201,-4.5201,-4.5473,-4.5792,-4.5843,-4.6326,-4.6999,-4.7245,-4.7262,-4.7245,-4.7262,-4.7228,-4.7262,-4.7333,-4.735,-4.735,-4.7367,-4.6954,-4.6543,-4.6611,-4.6936,-4.7279,-4.7707,-4.8316,-4.904,-4.9291,-4.9384,-4.9673,-5.0028,-4.9957,-4.9193,-4.9969,-5.0287,-5.0172,-5.0412,-5.0725,-5.0725,-5.0725,-5.0725,-5.0725,-5.0725,-5.0725,-5.0725,-5.0725,-5.0725,-5.0725,-5.0725,-5.0725,-5.0725,-5.0725,-5.0725,-5.0725,-5.0725,-5.0725,-5.0725,-5.0725,-5.067,-5.067,-5.0688,-5.0431,-4.9632,-4.934,-4.9258,-4.8524,-4.8322,-4.8322,-4.0287,-3.9818,-3.95,-3.938,-3.9254,-3.9195,-3.9131,-3.9131,-3.9361,-3.9066,-3.8356,-3.8229,-3.824,-3.8252,-3.8808,-3.9041,-3.9132,-3.8851,-3.8718,-3.8744,-3.8891,-3.8891,-3.8731,-3.8784,-3.8704,-3.8517,-3.8223,-3.8432,-3.9088,-3.9827,-4.109,-4.2653,-4.3098,-4.3653,-4.4538,-4.4869,-4.4979,-4.4979,-4.4979,-4.4757,-4.4423,-4.4614,-4.4861,-4.4984,-4.5372,-4.5927,-4.6599,-4.658,-4.6587,-4.6587,-4.6587,-4.6655,-4.6808,-4.6808,-4.6982,-4.7365,-4.7365,-4.7365,-4.7365,-4.7682,-4.7893,-4.7893,-4.8419,-4.8541,-4.8346,-4.8733,-4.8609,-4.7711,-4.7313,-4.7279,-4.7673,-4.8049,-4.8517,-4.9061,-4.9457,-4.9713,-4.9807,-5.0043,-5.0099,-4.9901,-4.9831,-5.0112,-5.0294,-5.0621,-5.0725,-5.0725,-5.0725,-5.0761,-5.0725,-5.0725,-5.0725,-5.0725,-5.0725,-5.0725,-5.0725,-5.0725,-5.0725,-5.0725,-5.0725,-5.0725,-5.0725,-5.0725,-5.0725,-5.0725,-5.0725,-5.0725,-5.0706,-5.0602,-5.0419,-4.9665,-4.9078,-4.8806,-4.8262,-4.8453,-4.8479,-4.0904,-4.05,-3.9859,-3.992,-4.0146,-3.9857,-3.9739,-3.9726,-3.9739,-3.9361,-3.8887,-3.9009,-3.8911,-3.887,-3.9045,-3.9163,-3.9241,-3.9092,-3.8958,-3.8985,-3.9185,-3.9172,-3.8998,-3.9172,-3.9289,-3.9178,-3.8998,-3.9155,-3.9875,-4.069,-4.1915,-4.326,-4.3484,-4.4042,-4.5154,-4.5265,-4.5265,-4.5265,-4.5265,-4.5218,-4.5138,-4.5218,-4.5438,-4.59,-4.6287,-4.6831,-4.7589,-4.7664,-4.7673,-4.7673,-4.7587,-4.7519,-4.7519,-4.7645,-4.7734,-4.7909,-4.7945,-4.798,-4.8171,-4.8419,-4.8614,-4.8842,-4.9425,-4.9566,-4.9388,-4.9813,-4.9865,-4.904,-4.8517,-4.8254,-4.8204,-4.8392,-4.8666,-4.9111,-4.9636,-4.9821,-4.9682,-4.9835,-4.9933,-4.9886,-4.9921,-5.0223,-5.0832,-5.1,-5.0945,-5.1073,-5.1092,-5.0982,-5.0908,-5.089,-5.0872,-5.0743,-5.0621,-5.0517,-5.0621,-5.0725,-5.0725,-5.0725,-5.0725,-5.0725,-5.0725,-5.0725,-5.0725,-5.0725,-5.0725,-5.0725,-5.0725,-5.0584,-5.0407,-4.9574,-4.8886,-4.846,-4.8017,-4.8415,-4.8499,-4.1758,-4.1212,-4.064,-4.0573,-4.0759,-4.0601,-4.0481,-4.0347,-4.036,-4.0104,-3.9605,-3.9982,-3.9956,-3.9405,-3.9238,-3.9374,-3.9814,-3.9653,-3.9506,-3.9506,-3.9559,-3.9573,-3.9559,-3.9573,-3.9915,-4.0397,-4.0137,-4.0458,-4.1374,-4.2005,-4.2919,-4.4057,-4.4125,-4.4707,-4.5692,-4.5901,-4.5964,-4.5901,-4.5917,-4.5805,-4.5551,-4.579,-4.6334,-4.7026,-4.7214,-4.7749,-4.8721,-4.8632,-4.8409,-4.8426,-4.8067,-4.7895,-4.7878,-4.8101,-4.8596,-4.9301,-4.9142,-4.9266,-4.9832,-4.9673,-4.962,-5.0045,-5.0223,-5.0169,-5.0169,-5.0366,-5.0294,-5.0115,-5.008,-4.9737,-4.9199,-4.8809,-4.8929,-4.9437,-4.9556,-4.9513,-4.9238,-4.9537,-4.929,-4.9118,-4.9842,-5.0742,-5.1612,-5.1532,-5.1422,-5.1623,-5.1807,-5.166,-5.1257,-5.1202,-5.1092,-5.0731,-5.0394,-5.0081,-5.0517,-5.0394,-5.0498,-5.0498,-5.029,-5.0621,-5.0725,-5.0725,-5.0725,-5.0725,-5.0725,-5.0725,-5.0725,-5.0444,-5.0126,-4.9421,-4.8617,-4.8211,-4.8087,-4.8053,-4.8224,-4.2497,-4.1955,-4.1369,-4.0882,-4.0628,-4.0521,-4.0481,-4.0481,-4.0481,-4.036,-4.0104,-3.9982,-3.9982,-4.0104,-3.9634,-3.9598,-4.0014,-3.9733,-3.9599,-3.9613,-3.9786,-4.0011,-4.0206,-4.0369,-4.0712,-4.111,-4.0999,-4.1371,-4.2076,-4.2917,-4.3735,-4.4392,-4.4665,-4.5237,-4.5915,-4.6028,-4.6028,-4.6028,-4.6028,-4.5964,-4.5869,-4.5964,-4.6302,-4.6957,-4.719,-4.7833,-4.9077,-4.8683,-4.8478,-4.8478,-4.8458,-4.8465,-4.8554,-4.8859,-4.9372,-4.9921,-4.985,-4.9903,-5.0241,-5.0402,-5.0598,-5.0831,-5.1297,-5.1442,-5.137,-5.1658,-5.182,-5.1223,-5.1117,-5.099,-5.0548,-4.9826,-4.9481,-4.9599,-4.9591,-4.9556,-4.9471,-4.9522,-4.9513,-4.9561,-5.0113,-5.0509,-5.0704,-5.0981,-5.1275,-5.1238,-5.1605,-5.1623,-5.1165,-5.1128,-5.1183,-5.0835,-5.0517,-5.0394,-5.0099,-4.9768,-4.9541,-4.9541,-4.9645,-4.9872,-4.9977,-5.0186,-5.0186,-5.0517,-5.0621,-5.0725,-5.0725,-5.0394,-4.9936,-4.9412,-4.8588,-4.8186,-4.829,-4.8225,-4.8465,-4.3151,-4.2613,-4.1913,-4.1423,-4.0895,-4.0695,-4.0615,-4.0601,-4.0521,-4.0481,-4.036,-3.9982,-4.0104,-4.0347,-3.9982,-4.0119,-4.0401,-4.0319,-4.0238,-4.0491,-4.068,-4.0893,-4.1128,-4.1385,-4.161,-4.2009,-4.2251,-4.2402,-4.2757,-4.3371,-4.4079,-4.4873,-4.501,-4.5409,-4.6089,-4.6203,-4.6171,-4.6076,-4.6139,-4.6203,-4.6187,-4.6091,-4.643,-4.725,-4.742,-4.7906,-4.89,-4.8882,-4.8946,-4.913,-4.9127,-4.9296,-4.9512,-4.9921,-5.0295,-5.0849,-5.0795,-5.0867,-5.1154,-5.1441,-5.1638,-5.1765,-5.2325,-5.2507,-5.2182,-5.2745,-5.2654,-5.2181,-5.2037,-5.2092,-5.169,-5.1018,-5.0544,-5.022,-5.0162,-5.0162,-5.0144,-5.0144,-5.0371,-5.064,-5.0777,-5.0777,-5.0759,-5.1236,-5.1481,-5.1458,-5.1917,-5.1807,-5.133,-5.1293,-5.1293,-5.0835,-5.0517,-5.0081,-4.9663,-4.9244,-4.9349,-4.9454,-4.9122,-4.9244,-4.9559,-4.9768,-4.9977,-5.029,-5.0517,-5.0621,-5.0517,-5.0186,-4.9714,-4.9206,-4.8575,-4.8034,-4.8171,-4.8393,-4.8639,-4.3567,-4.319,-4.2586,-4.2228,-4.1675,-4.1206,-4.1018,-4.0951,-4.071,-4.071,-4.071,-4.0602,-4.0602,-4.0602,-4.071,-4.0818,-4.1382,-4.1461,-4.1689,-4.2064,-4.2212,-4.2226,-4.2304,-4.2318,-4.2721,-4.3307,-4.363,-4.3576,-4.3504,-4.3651,-4.4176,-4.4916,-4.5004,-4.5539,-4.6584,-4.6536,-4.6377,-4.6203,-4.6377,-4.6536,-4.6536,-4.6266,-4.6719,-4.7948,-4.7911,-4.8049,-4.8701,-4.9224,-4.9726,-5.0279,-5.0058,-5.0252,-5.0921,-5.1081,-5.1458,-5.2179,-5.2085,-5.2268,-5.2799,-5.2597,-5.2579,-5.2799,-5.3072,-5.3054,-5.2927,-5.3091,-5.3,-5.2891,-5.2873,-5.2782,-5.2363,-5.2217,-5.1889,-5.1485,-5.1138,-5.1138,-5.1265,-5.1375,-5.1595,-5.1835,-5.1676,-5.2019,-5.2562,-5.2268,-5.21,-5.2394,-5.2522,-5.221,-5.1678,-5.1642,-5.1495,-5.0859,-5.0394,-5.0081,-4.9349,-4.8719,-4.9139,-4.9454,-4.9034,-4.8807,-4.9244,-4.9454,-4.9663,-4.9977,-5.0498,-5.0602,-5.0621,-5.029,-4.9973,-4.9448,-4.8662,-4.8192,-4.8469,-4.8831,-4.8671,-4.4151,-4.4163,-4.3594,-4.2931,-4.2311,-4.2284,-4.201,-4.1603,-4.1681,-4.1785,-4.1785,-4.1785,-4.1785,-4.1785,-4.1785,-4.2147,-4.2763,-4.2763,-4.2629,-4.2509,-4.2388,-4.2643,-4.3018,-4.3138,-4.3599,-4.4211,-4.4204,-4.4236,-4.4355,-4.4373,-4.4739,-4.5382,-4.5572,-4.6112,-4.6902,-4.6695,-4.6505,-4.6441,-4.652,-4.6568,-4.66,-4.6695,-4.702,-4.7411,-4.7917,-4.8301,-4.851,-4.9171,-4.983,-5.0511,-5.0566,-5.0954,-5.1837,-5.2016,-5.2306,-5.2744,-5.2834,-5.2815,-5.3035,-5.3035,-5.2999,-5.3091,-5.3127,-5.3109,-5.3109,-5.3109,-5.3109,-5.3109,-5.3109,-5.3018,-5.2909,-5.2909,-5.2472,-5.1485,-5.1375,-5.1485,-5.1485,-5.1485,-5.1485,-5.1651,-5.1675,-5.173,-5.2091,-5.2053,-5.2247,-5.2082,-5.2284,-5.2229,-5.144,-5.144,-5.133,-5.0712,-5.0449,-5.0081,-4.9454,-4.8929,-4.9139,-4.9034,-4.8614,-4.8509,-4.8824,-4.9034,-4.9244,-4.9768,-5.029,-5.0602,-5.0621,-5.0462,-5.0163,-4.9814,-4.9343,-4.9239,-4.9153,-4.9132,-4.9039,-4.5,-4.4968,-4.4441,-4.383,-4.311,-4.3077,-4.2773,-4.2459,-4.2435,-4.2374,-4.2374,-4.2374,-4.2374,-4.2374,-4.2374,-4.282,-4.3536,-4.3551,-4.3487,-4.3423,-4.3309,-4.3593,-4.4056,-4.4085,-4.4414,-4.4788,-4.4777,-4.4719,-4.4777,-4.489,-4.5203,-4.5747,-4.5911,-4.644,-4.7135,-4.7061,-4.6902,-4.6806,-4.6902,-4.6949,-4.708,-4.7259,-4.7586,-4.7996,-4.8521,-4.8909,-4.9198,-4.9571,-5.0078,-5.0511,-5.1035,-5.1856,-5.2835,-5.2852,-5.2925,-5.3256,-5.3347,-5.3347,-5.3366,-5.3512,-5.3567,-5.3549,-5.3439,-5.3347,-5.3329,-5.3365,-5.3345,-5.3109,-5.3345,-5.3345,-5.3109,-5.3109,-5.2782,-5.2126,-5.2016,-5.2016,-5.2016,-5.2016,-5.2016,-5.2181,-5.2128,-5.211,-5.2291,-5.2235,-5.243,-5.21,-5.2137,-5.2192,-5.1385,-5.1275,-5.1073,-5.0872,-5.0639,-5.0186,-4.9663,-4.9349,-4.9139,-4.8614,-4.8087,-4.8087,-4.8316,-4.8421,-4.8632,-4.9559,-5.0186,-5.0394,-5.0517,-5.0621,-5.0462,-5.0235,-4.9936,-4.948,-4.9286,-4.9322,-4.9318,-4.588,-4.5254,-4.5254,-4.4835,-4.4221,-4.3769,-4.3502,-4.3309,-4.3003,-4.2855,-4.2855,-4.287,-4.2735,-4.2629,-4.2792,-4.3203,-4.3794,-4.3987,-4.4388,-4.4884,-4.4919,-4.489,-4.505,-4.505,-4.5094,-4.5304,-4.5245,-4.5128,-4.4967,-4.4957,-4.5277,-4.607,-4.593,-4.6392,-4.7345,-4.7532,-4.731,-4.7172,-4.7394,-4.7521,-4.7521,-4.7794,-4.8356,-4.9112,-4.949,-4.9862,-5.0136,-5.0187,-5.026,-5.0598,-5.1666,-5.2689,-5.3384,-5.3274,-5.3421,-5.3751,-5.3769,-5.3769,-5.3861,-5.4007,-5.4209,-5.4172,-5.3934,-5.3769,-5.3843,-5.3969,-5.3894,-5.3529,-5.3801,-5.3764,-5.331,-5.331,-5.3201,-5.3164,-5.2927,-5.2891,-5.3109,-5.3,-5.2891,-5.3,-5.3109,-5.3091,-5.2927,-5.267,-5.2724,-5.265,-5.2339,-5.2045,-5.1733,-5.144,-5.1183,-5.1073,-5.1037,-5.0845,-5.0411,-4.9897,-4.9686,-4.9001,-4.8315,-4.7999,-4.8105,-4.8105,-4.821,-4.9157,-4.9872,-5.0204,-5.0412,-5.0517,-5.0548,-5.0334,-4.9981,-4.9471,-4.9507,-4.9737,-4.9791,-4.6629,-4.6005,-4.6005,-4.563,-4.5029,-4.5307,-4.5152,-4.4821,-4.5068,-4.5026,-4.5026,-4.4667,-4.4443,-4.4458,-4.4211,-4.4371,-4.4516,-4.4826,-4.5103,-4.5597,-4.5582,-4.5406,-4.5319,-4.5304,-4.5436,-4.5597,-4.5465,-4.5362,-4.5494,-4.5382,-4.5586,-4.6118,-4.6209,-4.6539,-4.7445,-4.7401,-4.7323,-4.7505,-4.7537,-4.7617,-4.7648,-4.8026,-4.8121,-4.8404,-4.9161,-4.9673,-4.9853,-5.0317,-5.0638,-5.0964,-5.2023,-5.2995,-5.345,-5.3711,-5.3915,-5.4025,-5.4172,-5.4191,-5.4191,-5.4301,-5.4356,-5.4338,-5.4598,-5.4838,-5.4838,-5.4856,-5.4781,-5.4615,-5.454,-5.4226,-5.3787,-5.3915,-5.3897,-5.3531,-5.3329,-5.3146,-5.3109,-5.3109,-5.3109,-5.3109,-5.3109,-5.3109,-5.3072,-5.2999,-5.2779,-5.2485,-5.232,-5.2174,-5.1862,-5.1733,-5.155,-5.166,-5.166,-5.1536,-5.1163,-5.0697,-5.0148,-4.946,-4.8772,-4.8105,-4.8105,-4.8105,-4.821,-4.8632,-4.9349,-4.9786,-5.0099,-5.0394,-5.037,-5.0383,-5.0401,-5.0157,-5.0212,-5.0407,-5.0407,-4.6754,-4.6629,-4.6395,-4.6255,-4.6043,-4.6167,-4.6129,-4.601,-4.6162,-4.6216,-4.6097,-4.5875,-4.5712,-4.5848,-4.5442,-4.5346,-4.5582,-4.5529,-4.567,-4.5948,-4.5977,-4.5875,-4.5743,-4.5714,-4.5801,-4.5948,-4.5801,-4.599,-4.6113,-4.6074,-4.6171,-4.6616,-4.6631,-4.6874,-4.7415,-4.7605,-4.7548,-4.7637,-4.781,-4.8046,-4.8062,-4.8826,-4.9143,-4.9379,-4.9988,-5.0521,-5.0417,-5.0737,-5.1016,-5.14,-5.2003,-5.261,-5.3287,-5.3628,-5.3964,-5.4109,-5.4352,-5.4576,-5.4613,-5.4723,-5.4851,-5.4908,-5.5265,-5.5358,-5.5432,-5.5561,-5.5541,-5.5153,-5.5056,-5.4633,-5.4174,-5.4321,-5.4229,-5.3732,-5.3512,-5.3311,-5.3146,-5.3109,-5.3109,-5.3109,-5.3109,-5.3109,-5.3109,-5.3109,-5.2889,-5.2614,-5.2522,-5.2284,-5.2027,-5.199,-5.199,-5.2045,-5.192,-5.1722,-5.1576,-5.1021,-5.0591,-4.9902,-4.9089,-4.8421,-4.8105,-4.7999,-4.8105,-4.821,-4.8842,-4.9367,-4.9663,-5.0081,-5.0358,-5.0444,-5.0602,-5.0725,-5.0725,-5.0725,-5.0725,-4.6879,-4.7252,-4.6629,-4.6754,-4.7148,-4.658,-4.6828,-4.7178,-4.6837,-4.6546,-4.6546,-4.6411,-4.658,-4.6735,-4.6269,-4.6328,-4.6729,-4.6157,-4.6101,-4.6277,-4.6226,-4.6182,-4.6167,-4.6138,-4.6167,-4.6211,-4.6255,-4.6467,-4.6552,-4.671,-4.6792,-4.7009,-4.7056,-4.7209,-4.73,-4.7755,-4.7963,-4.7892,-4.8172,-4.8514,-4.8753,-4.9633,-5.0125,-5.0227,-5.1174,-5.169,-5.1414,-5.1389,-5.1429,-5.1557,-5.1618,-5.2246,-5.3095,-5.3412,-5.3768,-5.4247,-5.4772,-5.4998,-5.5034,-5.5273,-5.5493,-5.5515,-5.5709,-5.588,-5.5955,-5.5972,-5.5934,-5.5507,-5.5426,-5.5133,-5.4746,-5.4486,-5.4172,-5.3916,-5.3787,-5.3531,-5.3237,-5.3109,-5.3109,-5.3109,-5.3109,-5.3109,-5.3109,-5.3109,-5.3054,-5.2687,-5.265,-5.2559,-5.2394,-5.2357,-5.232,-5.2284,-5.2121,-5.1905,-5.174,-5.1433,-5.1002,-5.0398,-4.9476,-4.8614,-4.7999,-4.7788,-4.7788,-4.8105,-4.8614,-4.9034,-4.9367,-4.9663,-5.0186,-5.0412,-5.0517,-5.0621,-5.0725,-5.0725,-5.0725,-4.8355,-4.7983,-4.7237,-4.7362,-4.7907,-4.7573,-4.7743,-4.8276,-4.8105,-4.7943,-4.7943,-4.7585,-4.7408,-4.7517,-4.736,-4.7253,-4.6942,-4.6874,-4.671,-4.624,-4.627,-4.627,-4.627,-4.6284,-4.627,-4.627,-4.627,-4.6351,-4.6541,-4.6899,-4.687,-4.6671,-4.7556,-4.7634,-4.7038,-4.762,-4.7955,-4.804,-4.8235,-4.8581,-4.9167,-4.9767,-5.0245,-5.0468,-5.1306,-5.1913,-5.206,-5.1885,-5.1812,-5.1923,-5.2094,-5.257,-5.3336,-5.4022,-5.4459,-5.4855,-5.5155,-5.5401,-5.542,-5.5475,-5.5548,-5.553,-5.6024,-5.6327,-5.6327,-5.6347,-5.6403,-5.6141,-5.5955,-5.5563,-5.5395,-5.4726,-5.4356,-5.4209,-5.3971,-5.3622,-5.3237,-5.3109,-5.3109,-5.3109,-5.3109,-5.3109,-5.3109,-5.3109,-5.2999,-5.2779,-5.276,-5.2815,-5.276,-5.2705,-5.2669,-5.2614,-5.2506,-5.2414,-5.225,-5.1868,-5.1166,-5.0558,-4.9635,-4.8737,-4.8016,-4.7682,-4.7682,-4.7999,-4.8404,-4.8824,-4.9244,-4.9786,-5.0412,-5.0412,-5.0412,-5.0621,-5.0725,-5.0725,-5.0725,-4.8726,-4.8602,-4.7983,-4.8107,-4.8541,-4.8371,-4.8584,-4.91,-4.9006,-4.8888,-4.8768,-4.8528,-4.8503,-4.8555,-4.8413,-4.8034,-4.7863,-4.7396,-4.7003,-4.6644,-4.6519,-4.627,-4.6314,-4.6387,-4.6431,-4.6328,-4.6431,-4.66,-4.6976,-4.7477,-4.7851,-4.7447,-4.8322,-4.8248,-4.7616,-4.8095,-4.8401,-4.8504,-4.8822,-4.9049,-4.9533,-5.0017,-5.074,-5.1275,-5.1828,-5.2285,-5.2282,-5.2433,-5.2427,-5.247,-5.28,-5.3014,-5.3256,-5.3831,-5.4502,-5.4959,-5.5434,-5.5434,-5.5548,-5.5548,-5.5548,-5.5548,-5.6117,-5.6363,-5.6476,-5.6476,-5.6476,-5.6383,-5.6122,-5.573,-5.5749,-5.5373,-5.4833,-5.4613,-5.4429,-5.4044,-5.3531,-5.3237,-5.3109,-5.3109,-5.3109,-5.3109,-5.3109,-5.3109,-5.3091,-5.2925,-5.2925,-5.298,-5.298,-5.2925,-5.298,-5.2962,-5.3017,-5.2962,-5.2797,-5.2215,-5.1329,-5.0542,-4.96,-4.8649,-4.784,-4.7611,-4.7576,-4.7999,-4.8509,-4.8929,-4.9454,-5.0081,-5.0517,-5.0517,-5.0621,-5.0621,-5.0725,-5.0725,-5.0725,-4.885,-4.9344,-4.8587,-4.8726,-4.9297,-4.8909,-4.9167,-4.9608,-4.9396,-4.9237,-4.9237,-4.9237,-4.938,-4.9634,-4.9258,-4.9094,-4.8772,-4.7968,-4.7377,-4.7377,-4.7003,-4.6938,-4.6902,-4.705,-4.7153,-4.6821,-4.6931,-4.7287,-4.7931,-4.856,-4.8811,-4.889,-4.9299,-4.9035,-4.8586,-4.8912,-4.9004,-4.8831,-4.9151,-4.9533,-4.9899,-5.0508,-5.16,-5.262,-5.2812,-5.2863,-5.2793,-5.2911,-5.3061,-5.2957,-5.3613,-5.3661,-5.3526,-5.3574,-5.4079,-5.4749,-5.532,-5.5434,-5.5548,-5.5548,-5.5548,-5.5566,-5.6022,-5.6249,-5.6344,-5.6249,-5.6249,-5.6156,-5.5971,-5.5672,-5.5748,-5.5481,-5.5236,-5.4998,-5.4906,-5.4576,-5.3989,-5.3494,-5.3384,-5.3127,-5.3237,-5.3311,-5.3182,-5.3109,-5.3109,-5.3109,-5.3109,-5.3109,-5.3109,-5.3109,-5.3109,-5.3109,-5.3109,-5.3109,-5.2962,-5.2155,-5.1254,-5.0864,-4.9779,-4.9019,-4.8244,-4.8368,-4.8333,-4.821,-4.8614,-4.9139,-4.9559,-4.9977,-5.0394,-5.0602,-5.0706,-5.0725,-5.0725,-5.0725,-5.0725,-4.996,-4.996,-4.9328,-4.9467,-4.9837,-4.9405,-4.9481,-4.9941,-4.9746,-4.9603,-4.9603,-4.9603,-4.9999,-5.0265,-5.0154,-4.979,-4.9344,-4.8509,-4.8137,-4.8028,-4.7934,-4.7916,-4.8157,-4.8309,-4.8525,-4.855,-4.8403,-4.8433,-4.9035,-4.9667,-4.9667,-4.9525,-5.0313,-5.0156,-4.9329,-4.9252,-4.9578,-4.9281,-4.9465,-4.9695,-5.0202,-5.1181,-5.2278,-5.3353,-5.3409,-5.3426,-5.3409,-5.3593,-5.3538,-5.308,-5.3674,-5.411,-5.4486,-5.4686,-5.4995,-5.537,-5.5507,-5.5621,-5.5621,-5.5585,-5.5566,-5.5548,-5.5662,-5.5662,-5.5662,-5.5662,-5.5776,-5.5757,-5.572,-5.5533,-5.557,-5.5511,-5.5328,-5.5071,-5.4924,-5.4759,-5.4356,-5.4136,-5.3824,-5.3421,-5.3476,-5.3512,-5.3347,-5.3182,-5.3109,-5.3109,-5.3109,-5.3109,-5.3109,-5.3109,-5.3109,-5.3109,-5.3109,-5.3109,-5.3072,-5.2009,-5.1101,-5.1293,-5.0543,-4.9849,-4.9248,-4.9387,-4.942,-4.8948,-4.879,-4.9157,-4.9576,-5.0136,-5.0276,-5.0644,-5.0694,-5.0743,-5.0725,-5.0725,-5.0725,-5.0222,-5.0222,-4.9837,-4.9853,-5.0099,-4.9837,-4.9837,-5.0191,-5.0032,-4.9968,-5.0091,-5.0319,-5.0685,-5.0994,-5.1214,-5.0821,-5.0115,-4.9299,-4.8973,-4.9004,-4.8923,-4.8811,-4.9166,-4.9288,-4.9583,-4.9894,-4.989,-4.9635,-4.9655,-5.0164,-5.0418,-5.0355,-5.0988,-5.0909,-5.0234,-5.0187,-5.0186,-4.9981,-4.9824,-4.9853,-5.0345,-5.145,-5.2549,-5.2986,-5.3595,-5.3769,-5.37,-5.3906,-5.3852,-5.3645,-5.4209,-5.475,-5.5211,-5.5411,-5.5678,-5.6074,-5.597,-5.586,-5.586,-5.586,-5.5786,-5.5566,-5.5548,-5.5548,-5.5548,-5.5548,-5.5548,-5.5548,-5.5548,-5.5548,-5.553,-5.5548,-5.5438,-5.5309,-5.5236,-5.5034,-5.4814,-5.4851,-5.4429,-5.3842,-5.3751,-5.3714,-5.3531,-5.3347,-5.3164,-5.3109,-5.3109,-5.3109,-5.3109,-5.3109,-5.3109,-5.3091,-5.3072,-5.2999,-5.298,-5.2265,-5.132,-5.1365,-5.1188,-5.0489,-4.9832,-4.9777,-4.9495,-4.916,-4.9283,-4.9528,-5.0125,-5.0864,-5.0722,-5.0704,-5.0809,-5.0982,-5.0798,-5.0725,-5.0725,-5.0222,-5.0222,-5.0222,-5.0222,-5.0222,-5.0222,-5.0222,-5.0222,-5.0206,-5.0191,-5.0345,-5.0821,-5.1295,-5.1556,-5.18,-5.1817,-5.1344,-5.0308,-4.9937,-5.014,-4.9905,-4.9744,-4.9929,-5.0098,-5.0523,-5.1015,-5.1171,-5.1136,-5.0678,-5.0887,-5.1142,-5.1223,-5.1462,-5.1398,-5.1319,-5.1034,-5.0969,-5.0763,-5.0604,-5.0413,-5.0826,-5.167,-5.2405,-5.2543,-5.3624,-5.4094,-5.394,-5.4198,-5.4147,-5.4196,-5.4642,-5.5278,-5.5578,-5.5734,-5.6086,-5.6653,-5.6483,-5.6226,-5.6153,-5.6135,-5.5933,-5.5603,-5.5566,-5.5548,-5.5548,-5.5548,-5.5548,-5.5548,-5.5548,-5.5548,-5.5548,-5.5548,-5.5548,-5.553,-5.5493,-5.5438,-5.5254,-5.5181,-5.5126,-5.4649,-5.4228,-5.3897,-5.3714,-5.3531,-5.3366,-5.3127,-5.3109,-5.3109,-5.3109,-5.3109,-5.3109,-5.3072,-5.3017,-5.2889,-5.2797,-5.2687,-5.1925,-5.1711,-5.1566,-5.1079,-5.0384,-4.9815,-4.9655,-4.9815,-4.9938,-5.0326,-5.0926,-5.1298,-5.1334,-5.1316,-5.1261,-5.1238,-5.1055,-5.0817,-5.0725,-5.0222,-5.0222,-5.0222,-5.0222,-5.0222,-5.0222,-5.0222,-5.0222,-5.0222,-5.0222,-5.0393,-5.096,-5.1589,-5.2078,-5.2183,-5.2183,-5.1825,-5.1099,-5.0826,-5.1155,-5.1082,-5.113,-5.1431,-5.1494,-5.1604,-5.1889,-5.2,-5.216,-5.1824,-5.1937,-5.2096,-5.2049,-5.1985,-5.2034,-5.1716,-5.1573,-5.1493,-5.1239,-5.1128,-5.1203,-5.1459,-5.2136,-5.2892,-5.3523,-5.4119,-5.4557,-5.4524,-5.4664,-5.4646,-5.425,-5.475,-5.5043,-5.5281,-5.5322,-5.5988,-5.6438,-5.6554,-5.6171,-5.6208,-5.6226,-5.6061,-5.5713,-5.5566,-5.5566,-5.5548,-5.5548,-5.5548,-5.5548,-5.5548,-5.5548,-5.5548,-5.5548,-5.5548,-5.5548,-5.5548,-5.553,-5.5456,-5.5383,-5.5328,-5.5273,-5.4796,-5.4264,-5.3916,-5.3732,-5.3567,-5.3311,-5.3109,-5.3146,-5.3127,-5.3146,-5.3109,-5.3072,-5.3035,-5.2925,-5.2889,-5.2742,-5.2507,-5.2128,-5.1802,-5.1583,-5.1136,-5.0706,-5.067,-5.083,-5.0846,-5.0792,-5.1005,-5.1397,-5.17,-5.1825,-5.1752,-5.1532,-5.1275,-5.1055,-5.089,-5.0468,-5.0698,-5.0329,-5.0452,-5.0698,-5.0329,-5.0222,-5.0222,-5.0222,-5.058,-5.1094,-5.1726,-5.2587,-5.3271,-5.3015,-5.2666,-5.2407,-5.1869,-5.1535,-5.1853,-5.1889,-5.1922,-5.2049,-5.2081,-5.2208,-5.2256,-5.232,-5.2304,-5.232,-5.232,-5.232,-5.232,-5.2304,-5.224,-5.2034,-5.1875,-5.1716,-5.1525,-5.1366,-5.1301,-5.1689,-5.2388,-5.3133,-5.3521,-5.4526,-5.4776,-5.4833,-5.48,-5.4681,-5.4197,-5.4491,-5.4733,-5.499,-5.5123,-5.5495,-5.6889,-5.6584,-5.6427,-5.6557,-5.6502,-5.6263,-5.5933,-5.5713,-5.5548,-5.5548,-5.5548,-5.5548,-5.5548,-5.5548,-5.5548,-5.5548,-5.5548,-5.5548,-5.5548,-5.5548,-5.5548,-5.5548,-5.5548,-5.5493,-5.5456,-5.5328,-5.4723,-5.4191,-5.3971,-5.3787,-5.3567,-5.3421,-5.3421,-5.3347,-5.3237,-5.3182,-5.3109,-5.3054,-5.298,-5.2999,-5.2944,-5.2925,-5.2599,-5.2344,-5.2126,-5.2037,-5.1874,-5.1657,-5.1477,-5.1351,-5.1369,-5.126,-5.1547,-5.214,-5.221,-5.2119,-5.1862,-5.1623,-5.1587,-5.1403,-5.0575,-5.105,-5.0452,-5.0452,-5.096,-5.0548,-5.0365,-5.0365,-5.0477,-5.0836,-5.1567,-5.2309,-5.3383,-5.4173,-5.3621,-5.3216,-5.3221,-5.2718,-5.2452,-5.2429,-5.2368,-5.2384,-5.2272,-5.2288,-5.2288,-5.232,-5.232,-5.232,-5.232,-5.232,-5.232,-5.232,-5.232,-5.2288,-5.224,-5.2097,-5.1938,-5.1906,-5.1841,-5.1792,-5.2011,-5.3013,-5.3513,-5.4012,-5.4617,-5.5259,-5.5002,-5.4848,-5.4659,-5.4368,-5.43,-5.4646,-5.4957,-5.5006,-5.5534,-5.6567,-5.6737,-5.6702,-5.6916,-5.6887,-5.6685,-5.6336,-5.5951,-5.5713,-5.5548,-5.5548,-5.5548,-5.5548,-5.5548,-5.5548,-5.5548,-5.5548,-5.5548,-5.5548,-5.5548,-5.5548,-5.5548,-5.5548,-5.5548,-5.5511,-5.5346,-5.5016,-5.4558,-5.4246,-5.4007,-5.3806,-5.3732,-5.3714,-5.3531,-5.3311,-5.3201,-5.3109,-5.3091,-5.3035,-5.3054,-5.3072,-5.3109,-5.3054,-5.2797,-5.2616,-5.2508,-5.2345,-5.2145,-5.2037,-5.1983,-5.2091,-5.2109,-5.2398,-5.2669,-5.2595,-5.2467,-5.2174,-5.199,-5.1972,-5.1862,-5.0575,-5.1189,-5.0468,-5.0222,-5.0361,-5.0572,-5.0699,-5.0683,-5.1017,-5.111,-5.1356,-5.2234,-5.3489,-5.3898,-5.4102,-5.4064,-5.4377,-5.3604,-5.3379,-5.3363,-5.3387,-5.2911,-5.256,-5.2432,-5.232,-5.232,-5.232,-5.232,-5.2335,-5.2399,-5.2351,-5.232,-5.2431,-5.2351,-5.2351,-5.2367,-5.232,-5.2384,-5.2336,-5.2539,-5.2902,-5.3785,-5.4522,-5.4772,-5.5273,-5.5738,-5.5704,-5.5396,-5.5053,-5.4676,-5.4642,-5.4714,-5.4992,-5.5112,-5.5714,-5.6465,-5.6943,-5.7046,-5.7301,-5.7235,-5.707,-5.6722,-5.6355,-5.597,-5.5695,-5.5566,-5.5548,-5.5548,-5.5548,-5.5548,-5.5548,-5.5548,-5.5548,-5.5548,-5.5548,-5.5548,-5.5548,-5.5548,-5.5548,-5.5548,-5.5383,-5.5108,-5.4961,-5.4649,-5.4136,-5.3897,-5.3732,-5.3714,-5.3457,-5.3256,-5.3182,-5.3109,-5.3109,-5.3091,-5.3091,-5.3109,-5.3109,-5.3109,-5.298,-5.2962,-5.2927,-5.2817,-5.258,-5.2653,-5.2581,-5.2781,-5.2927,-5.2944,-5.2889,-5.2944,-5.2815,-5.254,-5.2158,-5.203,-5.1957,-5.0457,-5.0911,-5.0664,-5.066,-5.0853,-5.0712,-5.0995,-5.1292,-5.1346,-5.1837,-5.2622,-5.3622,-5.4409,-5.4909,-5.4773,-5.4679,-5.4741,-5.4503,-5.4178,-5.3922,-5.3501,-5.3183,-5.2816,-5.256,-5.232,-5.232,-5.2335,-5.2463,-5.2637,-5.2637,-5.2812,-5.2828,-5.2749,-5.2828,-5.2844,-5.2733,-5.2749,-5.2878,-5.2704,-5.2703,-5.3503,-5.4087,-5.4764,-5.5159,-5.5789,-5.6012,-5.5824,-5.5687,-5.5396,-5.5139,-5.5053,-5.5041,-5.501,-5.5183,-5.577,-5.6452,-5.6794,-5.7145,-5.7593,-5.751,-5.718,-5.685,-5.6575,-5.6336,-5.5896,-5.5713,-5.5585,-5.5548,-5.5548,-5.5548,-5.5548,-5.5548,-5.5548,-5.5548,-5.5548,-5.5548,-5.5548,-5.5548,-5.5548,-5.5548,-5.5475,-5.5291,-5.5181,-5.5071,-5.4484,-5.3971,-5.3824,-5.3659,-5.3421,-5.3219,-5.3146,-5.3109,-5.3109,-5.3109,-5.3109,-5.3109,-5.3109,-5.3109,-5.3109,-5.3109,-5.3109,-5.3091,-5.2908,-5.3091,-5.3109,-5.3091,-5.3072,-5.3091,-5.3091,-5.3054,-5.3017,-5.2925,-5.2542,-5.216,-5.2087,-5.0524,-5.0747,-5.0858,-5.0995,-5.1191,-5.1155,-5.1314,-5.1737,-5.1698,-5.2252,-5.3566,-5.4178,-5.4722,-5.5228,-5.5408,-5.5267,-5.5188,-5.5057,-5.4899,-5.4594,-5.4202,-5.3837,-5.3454,-5.3088,-5.2752,-5.2672,-5.2494,-5.2653,-5.2987,-5.2987,-5.3178,-5.3435,-5.355,-5.3566,-5.3193,-5.3162,-5.3114,-5.3146,-5.323,-5.3362,-5.4346,-5.4693,-5.5131,-5.5766,-5.6188,-5.6252,-5.6081,-5.5978,-5.5789,-5.555,-5.5378,-5.5331,-5.5319,-5.5322,-5.5756,-5.6288,-5.659,-5.7134,-5.7639,-5.7712,-5.7363,-5.7052,-5.6777,-5.652,-5.619,-5.5805,-5.5566,-5.5548,-5.5548,-5.5548,-5.5548,-5.5548,-5.5548,-5.5548,-5.5548,-5.5548,-5.5548,-5.5548,-5.5548,-5.5548,-5.5456,-5.5365,-5.4998,-5.4833,-5.4521,-5.4099,-5.4099,-5.3806,-5.3366,-5.3201,-5.3127,-5.3109,-5.3109,-5.3109,-5.3109,-5.3109,-5.3109,-5.3109,-5.3109,-5.3109,-5.3109,-5.3109,-5.3109,-5.3109,-5.3109,-5.3109,-5.3109,-5.3109,-5.3109,-5.3109,-5.3072,-5.3035,-5.298,-5.2616,-5.2434,-5.0747,-5.0778,-5.1112,-5.1239,-5.1381,-5.1605,-5.1842,-5.1937,-5.2161,-5.2575,-5.3126,-5.3725,-5.4187,-5.4662,-5.5455,-5.5716,-5.5733,-5.5767,-5.5544,-5.531,-5.4997,-5.4854,-5.4202,-5.3726,-5.3473,-5.3652,-5.3313,-5.3053,-5.3467,-5.3598,-5.3674,-5.416,-5.4439,-5.4474,-5.3531,-5.3352,-5.3352,-5.3483,-5.4005,-5.4445,-5.519,-5.5409,-5.5849,-5.6401,-5.6416,-5.632,-5.6286,-5.6252,-5.6081,-5.5858,-5.5807,-5.585,-5.5893,-5.5336,-5.5879,-5.6934,-5.6493,-5.683,-5.7831,-5.795,-5.7712,-5.7363,-5.6971,-5.6685,-5.6245,-5.586,-5.5566,-5.5585,-5.5548,-5.5548,-5.5548,-5.5548,-5.5548,-5.5548,-5.5548,-5.5548,-5.5548,-5.5548,-5.5548,-5.5548,-5.5511,-5.5365,-5.4869,-5.4484,-5.4338,-5.4209,-5.4283,-5.3971,-5.3384,-5.3182,-5.3127,-5.3109,-5.3109,-5.3109,-5.3109,-5.3109,-5.3109,-5.3109,-5.3109,-5.3109,-5.3109,-5.3109,-5.3109,-5.3109,-5.3109,-5.3109,-5.3109,-5.3109,-5.3109,-5.3109,-5.3109,-5.3091,-5.3091,-5.3054,-5.2817,-5.1223,-5.1446,-5.1557,-5.1748,-5.1922,-5.1827,-5.2033,-5.2461,-5.2878,-5.3246,-5.38,-5.4021,-5.4747,-5.5578,-5.5813,-5.6166,-5.6166,-5.6183,-5.6085,-5.5976,-5.5631,-5.5378,-5.4871,-5.4395,-5.4177,-5.4295,-5.391,-5.386,-5.4474,-5.4343,-5.4568,-5.5058,-5.5486,-5.5486,-5.4796,-5.4288,-5.3781,-5.3908,-5.408,-5.4347,-5.5553,-5.5512,-5.5822,-5.6861,-5.6646,-5.6457,-5.644,-5.644,-5.632,-5.6166,-5.6132,-5.6086,-5.6167,-5.5626,-5.6018,-5.6559,-5.6049,-5.6649,-5.7344,-5.7593,-5.7676,-5.732,-5.7128,-5.6942,-5.6575,-5.619,-5.5878,-5.564,-5.5621,-5.5603,-5.5548,-5.5548,-5.5548,-5.5548,-5.5548,-5.5548,-5.5548,-5.5548,-5.5548,-5.5548,-5.553,-5.5511,-5.5199,-5.4796,-5.4576,-5.4136,-5.4117,-5.3769,-5.3219,-5.3146,-5.3109,-5.3109,-5.3109,-5.3109,-5.3109,-5.3109,-5.3109,-5.3109,-5.3109,-5.3109,-5.3109,-5.3109,-5.3109,-5.3109,-5.3109,-5.3109,-5.3109,-5.3109,-5.3109,-5.3109,-5.3109,-5.3109,-5.3109,-5.3091,-5.3072,-5.1573,-5.1795,-5.1922,-5.2097,-5.2256,-5.2065,-5.2225,-5.2638,-5.3086,-5.3566,-5.3931,-5.4456,-5.5091,-5.5867,-5.6263,-5.6389,-5.6389,-5.6389,-5.6389,-5.6389,-5.601,-5.5757,-5.5504,-5.5241,-5.5159,-5.5118,-5.5012,-5.4949,-5.5472,-5.5504,-5.575,-5.6178,-5.6393,-5.6327,-5.5865,-5.5238,-5.4528,-5.4608,-5.45,-5.4536,-5.5292,-5.5683,-5.5837,-5.6638,-5.6784,-5.6748,-5.6629,-5.656,-5.6509,-5.644,-5.6337,-5.6269,-5.6172,-5.6163,-5.6242,-5.6019,-5.6379,-5.6756,-5.6991,-5.763,-5.7666,-5.7297,-5.732,-5.729,-5.696,-5.6593,-5.6318,-5.608,-5.586,-5.5786,-5.5768,-5.575,-5.5585,-5.5585,-5.5566,-5.5566,-5.5548,-5.5548,-5.5548,-5.5548,-5.5548,-5.5548,-5.5511,-5.5254,-5.4924,-5.4411,-5.3897,-5.3531,-5.3182,-5.3127,-5.3109,-5.3109,-5.3109,-5.3109,-5.3109,-5.3109,-5.3109,-5.3109,-5.3109,-5.3109,-5.3109,-5.3109,-5.3109,-5.3109,-5.3109,-5.3109,-5.3109,-5.3109,-5.3109,-5.3109,-5.3109,-5.3109,-5.3109,-5.3109,-5.3109,-5.1811,-5.1843,-5.2161,-5.2304,-5.2304,-5.2272,-5.2288,-5.2432,-5.3055,-5.3311,-5.3566,-5.4871,-5.5504,-5.5631,-5.6136,-5.6389,-5.6389,-5.6389,-5.6389,-5.6389,-5.6263,-5.6263,-5.6256,-5.6079,-5.6128,-5.6145,-5.609,-5.5931,-5.6443,-5.6426,-5.6855,-5.73,-5.7037,-5.7169,-5.6888,-5.6343,-5.5682,-5.5384,-5.497,-5.5022,-5.5618,-5.5915,-5.6207,-5.6836,-5.7133,-5.7083,-5.7039,-5.6902,-5.6731,-5.656,-5.6406,-5.6389,-5.6252,-5.6012,-5.6026,-5.6175,-5.6657,-5.6774,-5.6792,-5.7435,-5.7757,-5.7591,-5.7447,-5.7392,-5.7235,-5.696,-5.6722,-5.6502,-5.6318,-5.6226,-5.6171,-5.5915,-5.5658,-5.5621,-5.5585,-5.5566,-5.5548,-5.5548,-5.5548,-5.5548,-5.5548,-5.5548,-5.5511,-5.5309,-5.5144,-5.4759,-5.4264,-5.3916,-5.3549,-5.3146,-5.3127,-5.3109,-5.3109,-5.3109,-5.3109,-5.3109,-5.3109,-5.3109,-5.3109,-5.3109,-5.3109,-5.3109,-5.3109,-5.3109,-5.3109,-5.3109,-5.3109,-5.3109,-5.3109,-5.3109,-5.3109,-5.3109,-5.3109,-5.3109,-5.3109,-5.2161,-5.2177,-5.2272,-5.232,-5.232,-5.2304,-5.256,-5.3071,-5.3311,-5.3709,-5.4854,-5.5251,-5.5631,-5.6136,-5.6246,-5.6389,-5.6389,-5.6389,-5.6389,-5.6389,-5.6423,-5.6406,-5.6416,-5.6563,-5.6759,-5.7004,-5.6988,-5.6982,-5.7217,-5.7317,-5.7581,-5.809,-5.7959,-5.809,-5.7844,-5.7449,-5.6789,-5.6128,-5.5598,-5.5598,-5.5914,-5.6047,-5.6473,-5.6975,-5.7405,-5.739,-5.7382,-5.7108,-5.6902,-5.68,-5.6509,-5.6389,-5.6355,-5.6252,-5.6297,-5.5991,-5.6351,-5.6621,-5.6657,-5.6991,-5.7482,-5.7609,-5.7438,-5.7302,-5.7319,-5.7272,-5.707,-5.6923,-5.674,-5.663,-5.6502,-5.6263,-5.6043,-5.5951,-5.5841,-5.5676,-5.564,-5.5585,-5.5566,-5.5548,-5.5548,-5.5548,-5.5511,-5.5493,-5.5309,-5.4998,-5.4668,-5.4319,-5.3934,-5.3512,-5.3256,-5.3237,-5.3109,-5.3109,-5.3109,-5.3109,-5.3109,-5.3109,-5.3109,-5.3109,-5.3109,-5.3109,-5.3109,-5.3109,-5.3109,-5.3109,-5.3109,-5.3109,-5.3109,-5.3109,-5.3109,-5.3109,-5.3109,-5.3109,-5.3109,-5.232,-5.232,-5.232,-5.2432,-5.2688,-5.2688,-5.3199,-5.3964,-5.3821,-5.4329,-5.5378,-5.5757,-5.601,-5.6263,-5.6389,-5.6389,-5.6389,-5.6389,-5.6389,-5.6406,-5.6543,-5.6474,-5.6611,-5.7039,-5.7399,-5.7432,-5.7609,-5.7789,-5.7925,-5.7975,-5.8238,-5.8501,-5.8632,-5.8632,-5.837,-5.809,-5.7827,-5.7037,-5.6393,-5.6128,-5.6145,-5.6294,-5.6622,-5.7177,-5.7609,-5.7749,-5.769,-5.7365,-5.7125,-5.6937,-5.6577,-5.6389,-5.6337,-5.6252,-5.6098,-5.5918,-5.6139,-5.6526,-5.6648,-5.6692,-5.7189,-5.7442,-5.7279,-5.7127,-5.7256,-5.7365,-5.7473,-5.7345,-5.7162,-5.6978,-5.6832,-5.6667,-5.6538,-5.6391,-5.6116,-5.5841,-5.5731,-5.564,-5.5585,-5.5566,-5.5548,-5.5548,-5.5548,-5.5548,-5.5493,-5.5254,-5.5016,-5.4723,-5.4301,-5.3842,-5.3586,-5.3476,-5.3274,-5.3109,-5.3127,-5.3146,-5.3109,-5.3109,-5.3109,-5.3109,-5.3109,-5.3109,-5.3109,-5.3109,-5.3109,-5.3109,-5.3109,-5.3109,-5.3109,-5.3109,-5.3109,-5.3109,-5.3109,-5.3109,-5.3109,-5.2432,-5.256,-5.2432,-5.2816,-5.3311,-5.3438,-5.4092,-5.5251,-5.4727,-5.4854,-5.5504,-5.6136,-5.6389,-5.6389,-5.6389,-5.6389,-5.6423,-5.6457,-5.6526,-5.6457,-5.6851,-5.6868,-5.6988,-5.7485,-5.7724,-5.7879,-5.8005,-5.8284,-5.8467,-5.8501,-5.8501,-5.8632,-5.8632,-5.8632,-5.8632,-5.8501,-5.8221,-5.7959,-5.6773,-5.5996,-5.6376,-5.6624,-5.6789,-5.7415,-5.7988,-5.8427,-5.8101,-5.7742,-5.7348,-5.6988,-5.6646,-5.6423,-5.6286,-5.6149,-5.5961,-5.6039,-5.6259,-5.6454,-5.6579,-5.6542,-5.668,-5.6902,-5.6966,-5.6848,-5.7026,-5.7603,-5.773,-5.7694,-5.751,-5.7418,-5.7308,-5.7052,-5.685,-5.6703,-5.6483,-5.619,-5.597,-5.5823,-5.5658,-5.5621,-5.5603,-5.5585,-5.5548,-5.5548,-5.542,-5.5346,-5.5181,-5.4924,-5.4668,-5.4191,-5.3989,-5.3787,-5.3512,-5.3311,-5.3256,-5.3237,-5.3127,-5.3109,-5.3109,-5.3109,-5.3109,-5.3109,-5.3109,-5.3109,-5.3109,-5.3109,-5.3109,-5.3109,-5.3109,-5.3109,-5.3109,-5.3109,-5.3109,-5.3109,-5.3109,-5.3311,-5.3821,-5.3821,-5.3948,-5.4075,-5.4059,-5.46,-5.5378,-5.5251,-5.5504,-5.6136,-5.6263,-5.6423,-5.6474,-5.6474,-5.6492,-5.6509,-5.6731,-5.68,-5.6937,-5.7211,-5.7279,-5.7296,-5.7776,-5.7998,-5.8135,-5.8358,-5.8632,-5.8632,-5.8632,-5.8632,-5.8632,-5.8632,-5.8632,-5.8632,-5.8632,-5.8484,-5.8484,-5.73,-5.6376,-5.6376,-5.6509,-5.6641,-5.7169,-5.7679,-5.8467,-5.8272,-5.7861,-5.7587,-5.7296,-5.6697,-5.6457,-5.6372,-5.6286,-5.6252,-5.6292,-5.6499,-5.6554,-5.6611,-5.6351,-5.6298,-5.6296,-5.6291,-5.6422,-5.6758,-5.7593,-5.795,-5.7932,-5.7895,-5.7822,-5.7712,-5.7437,-5.7198,-5.7033,-5.685,-5.6538,-5.6226,-5.5988,-5.575,-5.5695,-5.5676,-5.5603,-5.5566,-5.5475,-5.5365,-5.5218,-5.5053,-5.4888,-5.4833,-5.4521,-5.4411,-5.4191,-5.3824,-5.3604,-5.3494,-5.3329,-5.3201,-5.3146,-5.3164,-5.3146,-5.3109,-5.3109,-5.3109,-5.3109,-5.3109,-5.3109,-5.3109,-5.3109,-5.3109,-5.3109,-5.3109,-5.3109,-5.3109,-5.3109,-5.3109,-5.3948,-5.4313,-5.4313,-5.4456,-5.4727,-5.4727,-5.5234,-5.5757,-5.5884,-5.6112,-5.6629,-5.6646,-5.6714,-5.6834,-5.6868,-5.6834,-5.6885,-5.7091,-5.7176,-5.7313,-5.7519,-5.757,-5.7793,-5.805,-5.8101,-5.8238,-5.8461,-5.8632,-5.8632,-5.8632,-5.8632,-5.8632,-5.8632,-5.8632,-5.8632,-5.8632,-5.8632,-5.8501,-5.7432,-5.6905,-5.6509,-5.6244,-5.6509,-5.7037,-5.7712,-5.8221,-5.8461,-5.805,-5.7759,-5.7365,-5.6766,-5.6457,-5.6389,-5.6355,-5.6372,-5.6446,-5.6434,-5.6564,-5.6499,-5.6153,-5.5791,-5.5827,-5.5791,-5.5996,-5.6417,-5.6997,-5.7712,-5.7694,-5.795,-5.7895,-5.7877,-5.7675,-5.7639,-5.7528,-5.7235,-5.6923,-5.6538,-5.6208,-5.6043,-5.597,-5.5823,-5.5585,-5.5548,-5.5548,-5.5438,-5.542,-5.5218,-5.5144,-5.5016,-5.4814,-5.4723,-5.4576,-5.4191,-5.3842,-5.3659,-5.3457,-5.3237,-5.3219,-5.3256,-5.3182,-5.3164,-5.3127,-5.3109,-5.3109,-5.3109,-5.3109,-5.3109,-5.3109,-5.3109,-5.3109,-5.3109,-5.3109,-5.3109,-5.3109,-5.3109,-5.4456,-5.444,-5.4583,-5.4964,-5.5504,-5.5521,-5.5918,-5.6348,-5.6474,-5.6731,-5.7108,-5.7142,-5.7296,-5.7416,-5.7502,-5.7502,-5.7519,-5.7536,-5.757,-5.769,-5.7981,-5.8128,-5.8344,-5.8533,-5.8585,-5.8619,-5.8774,-5.8729,-5.8632,-5.8632,-5.8632,-5.8632,-5.8632,-5.8632,-5.8632,-5.8632,-5.8615,-5.837,-5.7712,-5.7053,-5.6509,-5.5979,-5.6509,-5.7037,-5.7581,-5.7975,-5.825,-5.8272,-5.7896,-5.7382,-5.6817,-5.6509,-5.6389,-5.6389,-5.6389,-5.6355,-5.6481,-5.6429,-5.636,-5.6034,-5.5674,-5.5488,-5.5512,-5.5652,-5.6079,-5.6537,-5.7134,-5.7612,-5.785,-5.7969,-5.7969,-5.795,-5.7932,-5.7877,-5.7547,-5.7327,-5.6923,-5.6465,-5.63,-5.619,-5.5933,-5.5658,-5.5548,-5.5548,-5.553,-5.553,-5.5493,-5.5475,-5.5365,-5.5053,-5.4851,-5.4759,-5.4521,-5.4209,-5.3971,-5.3732,-5.3531,-5.3512,-5.3531,-5.3347,-5.3201,-5.3164,-5.3146,-5.3109,-5.3109,-5.3109,-5.3109,-5.3109,-5.3109,-5.3109,-5.3109,-5.3109,-5.3109,-5.3109,-5.3109,-5.5251,-5.5234,-5.574,-5.6119,-5.6136,-5.6263,-5.6433,-5.6817,-5.6851,-5.7211,-5.769,-5.7827,-5.7793,-5.7502,-5.7502,-5.7553,-5.7854,-5.7991,-5.7964,-5.805,-5.842,-5.8784,-5.9079,-5.9114,-5.9348,-5.9496,-5.9365,-5.9121,-5.8894,-5.8763,-5.8632,-5.8632,-5.8632,-5.8632,-5.8632,-5.8632,-5.8632,-5.837,-5.7696,-5.6905,-5.6641,-5.6376,-5.6376,-5.6905,-5.7317,-5.7959,-5.8267,-5.8272,-5.7896,-5.7416,-5.6868,-5.6543,-5.644,-5.6457,-5.644,-5.6389,-5.6389,-5.6389,-5.6269,-5.6063,-5.5738,-5.5378,-5.5388,-5.5287,-5.5633,-5.5888,-5.6608,-5.7308,-5.7547,-5.785,-5.7969,-5.785,-5.7831,-5.7859,-5.762,-5.7657,-5.7492,-5.6868,-5.6391,-5.6245,-5.6025,-5.5768,-5.5548,-5.5511,-5.5401,-5.5365,-5.5236,-5.5236,-5.5254,-5.5108,-5.4979,-5.4906,-5.4814,-5.4814,-5.4686,-5.4228,-5.4007,-5.3934,-5.3824,-5.3641,-5.3439,-5.3237,-5.3182,-5.3127,-5.3109,-5.3109,-5.3109,-5.3109,-5.3109,-5.3109,-5.3109,-5.3109,-5.3127,-5.3201,-5.3292]},{"header":{"parameterUnit":"m.s-1","parameterCategory":1,"la1":31.0,"la2":29.5877,"lo1":-88.7671,"lo2":-86.6584,"dy":0.0162,"dx":0.0185,"nx":115,"ny":88,"refTime":"2024-02-02T18:00:00:Z","depth":0,"parameterNumber":3,"parameterNumberName":"V-component_of_WINDS"},"data":[0.0,0.0,0.0,0.0,0.0,0.0,0.0,0.0,0.0,0.0,0.0,0.0,0.0,0.0,0.0,0.0,0.0,0.0,0.0,0.0,0.0,0.0,0.0,0.0,0.0,0.0,0.0,0.0,0.0,0.0,0.0,0.0,0.0,0.0,0.0,0.0,0.0,0.0,0.0,0.0,0.0,0.0,0.0,0.0,0.0,0.0,0.0,0.0,0.0,0.0,0.0,0.0,0.0,0.0,0.0,0.0,0.0,0.0,0.0,0.0,0.0,0.0,0.0,0.0,0.0,0.0,0.0,0.0,0.0,0.0,0.0,0.0,0.0,0.0,0.0,0.0,0.0,0.0,0.0,0.0,0.0,0.0,0.0,0.0,0.0,0.0,0.0,0.0,0.0,0.0,0.0,0.0,0.0,0.0,0.0,0.0,0.0,0.0,0.0,0.0,0.0,0.0,0.0,0.0,0.0,0.0,0.0,0.0,0.0,0.0,0.0,0.0,0.0,0.0,0.0,0.0,0.0,0.0,0.0,0.0,0.0,0.0,0.0,0.0,0.0,0.0,0.0,0.0,0.0,0.0,0.0,0.0,0.0,0.0,0.0,0.0,0.0,0.0,0.0,0.0,0.0,0.0,0.0,0.0,0.0,0.0,0.0,0.0,0.0,0.0,0.0,0.0,0.0,0.0,0.0,0.0,0.0,0.0,0.0,0.0,0.0,0.0,0.0,0.0,0.0,0.0,0.0,0.0,0.0,0.0,0.0,0.0,0.0,0.0,0.0,0.0,0.0,0.0,0.0,0.0,0.0,0.0,0.0,0.0,0.0,0.0,0.0,0.0,0.0,0.0,0.0,0.0,0.0,0.0,0.0,0.0,0.0,0.0,0.0,0.0,0.0,0.0,0.0,0.0,0.0,0.0,0.0,0.0,0.0,0.0,0.0,0.0,0.0,0.0,0.0,0.0,0.0,0.0,0.0,0.0,0.0,0.0,0.0,0.0,0.0,0.0,0.0,0.0,0.0,0.0,0.0,0.0,0.0,0.0,0.0,0.0,0.0,0.0,0.0,0.0,0.0,0.0,0.0,0.0,0.0,0.0,0.0,0.0,0.0,0.0,0.0,0.0,0.0,0.0,0.0,0.0,0.0,0.0,0.0,0.0,0.0,0.0,0.0,0.0,0.0,0.0,0.0,0.0,0.0,0.0,0.0,0.0,0.0,0.0,0.0,0.0,0.0,0.0,0.0,0.0,0.0,0.0,0.0,0.0,0.0,0.0,0.0,0.0,0.0,0.0,0.0,0.0,0.0,0.0,0.0,0.0,0.0,0.0,0.0,0.0,0.0,0.0,0.0,0.0,0.0,0.0,0.0,0.0,0.0,0.0,0.0,0.0,0.0,0.0,0.0,0.0,0.0,0.0,0.0,0.0,0.0,0.0,0.0,0.0,0.0,0.0,0.0,0.0,0.0,0.0,0.0,0.0,0.0,0.0,0.0,0.0,0.0,0.0,0.0,0.0,0.0,0.0,0.0,0.0,0.0,0.0,0.0,0.0,0.0,0.0,0.0,0.0,0.0,0.0,0.0,0.0,0.0,0.0,0.0,0.0,0.0,0.0,0.0,0.0,0.0,0.0,0.0,0.0,0.0,0.0,0.0,0.0,0.0,0.0,0.0,0.0,0.0,0.0,0.0,0.0,0.0,0.0,0.0,0.0,0.0,0.0,0.0,0.0,0.0,0.0,0.0,0.0,0.0,0.0,0.0,0.0,0.0,0.0,0.0,0.0,0.0,0.0,0.0,0.0,0.0,0.0,0.0,0.0,0.0,0.0,0.0,0.0,0.0,0.0,0.0,0.0,0.0,0.0,0.0,0.0,0.0,0.0,0.0,0.0,0.0,0.0,0.0,0.0,0.0,0.0,0.0,0.0,0.0,0.0,0.0,0.0,0.0,0.0,0.0,0.0,0.0,0.0,0.0,0.0,0.0,0.0,0.0,0.0,0.0,0.0,0.0,0.0,0.0,0.0,0.0,0.0,0.0,0.0,0.0,0.0,0.0,0.0,0.0,0.0,0.0,0.0,0.0,0.0,0.0,0.0,0.0,0.0,0.0,0.0,0.0,0.0,0.0,0.0,0.0,0.0,0.0,0.0,0.0,0.0,0.0,0.0,0.0,0.0,0.0,0.0,0.0,0.0,0.0,0.0,0.0,0.0,0.0,0.0,0.0,0.0,0.0,0.0,0.0,0.0,0.0,0.0,0.0,0.0,0.0,0.0,0.0,0.0,0.0,0.0,0.0,0.0,0.0,0.0,0.0,0.0,0.0,0.0,0.0,0.0,0.0,0.0,0.0,0.0,0.0,0.0,0.0,0.0,0.0,0.0,0.0,0.0,0.0,0.0,0.0,0.0,0.0,0.0,0.0,0.0,0.0,0.0,0.0,0.0,0.0,0.0,0.0,0.0,0.0,0.0,0.0,0.0,0.0,0.0,0.0,0.0,0.0,0.0,0.0,0.0,0.0,0.0,0.0,0.0,0.0,0.0,0.0,0.0,0.0,0.0,0.0,0.0,0.0,0.0,0.0,0.0,0.0,0.0,0.0,0.0,0.0,0.0,0.0,0.0,0.0,0.0,0.0,0.0,0.0,0.0,0.0,0.0,0.0,0.0,0.0,0.0,0.0,0.0,0.0,0.0,0.0,0.0,0.0,0.0,0.0,0.0,0.0,0.0,0.0,0.0,0.0,0.0,0.0,0.0,0.0,0.0,0.0,0.0,0.0,0.0,0.0,0.0,0.0,0.0,0.0,0.0,0.0,0.0,0.0,0.0,0.0,0.0,0.0,0.0,0.0,0.0,0.0,0.0,0.0,0.0,0.0,0.0,0.0,0.0,0.0,0.0,0.0,0.0,0.0,0.0,0.0,0.0,0.0,0.0,0.0,0.0,0.0,0.0,0.0,0.0,0.0,0.0,0.0,0.0,0.0,0.0,0.0,0.0,0.0,0.0,0.0,0.0,0.0,0.0,0.0,0.0,0.0,0.0,0.0,0.0,0.0,0.0,0.0,0.0,0.0,0.0,0.0,0.0,0.0,0.0,0.0,0.0,0.0,0.0,0.0,0.0,0.0,0.0,0.0,0.0,0.0,0.0,0.0,0.0,0.0,0.0,0.0,0.0,0.0,0.0,0.0,0.0,0.0,0.0,0.0,0.0,0.0,0.0,0.0,0.0,0.0,0.0,0.0,0.0,0.0,0.0,0.0,0.0,0.0,0.0,0.0,0.0,0.0,0.0,0.0,0.0,0.0,0.0,0.0,0.0,0.0,0.0,0.0,0.0,0.0,0.0,0.0,0.0,0.0,0.0,0.0,0.0,0.0,0.0,0.0,0.0,0.0,0.0,0.0,0.0,0.0,0.0,0.0,0.0,0.0,0.0,0.0,0.0,0.0,0.0,0.0,0.0,0.0,0.0,0.0,0.0,0.0,0.0,0.0,0.0,0.0,0.0,0.0,0.0,0.0,0.0,0.0,0.0,0.0,0.0,0.0,0.0,0.0,0.0,0.0,0.0,0.0,0.0,0.0,0.0,0.0,0.0,0.0,0.0,0.0,0.0,0.0,0.0,0.0,0.0,0.0,0.0,0.0,0.0,0.0,0.0,0.0,0.0,0.0,0.0,0.0,0.0,0.0,0.0,0.0,0.0,0.0,0.0,0.0,0.0,0.0,0.0,0.0,0.0,0.0,0.0,0.0,0.0,0.0,0.0,0.0,0.0,0.0,0.0,0.0,0.0,0.0,0.0,0.0,0.0,0.0,0.0,0.0,0.0,0.0,0.0,0.0,0.0,0.0,0.0,0.0,0.0,0.0,0.0,0.0,0.0,0.0,0.0,0.0,0.0,0.0,0.0,0.0,0.0,0.0,0.0,0.0,0.0,0.0,0.0,0.0,0.0,0.0,0.0,0.0,0.0,0.0,0.0,0.0,0.0,0.0,0.0,0.0,0.0,0.0,0.0,0.0,0.0,0.0,0.0,0.0,0.0,0.0,0.0,0.0,0.0,0.0,0.0,0.0,0.0,0.0,0.0,0.0,0.0,0.0,0.0,0.0,0.0,0.0,0.0,0.0,0.0,0.0,0.0,0.0,0.0,0.0,0.0,0.0,0.0,0.0,0.0,0.0,0.0,0.0,0.0,0.0,0.0,0.0,0.0,0.0,0.0,0.0,0.0,0.0,0.0,0.0,0.0,0.0,0.0,0.0,0.0,0.0,0.0,0.0,0.0,0.0,0.0,0.0,0.0,0.0,0.0,4.9305,0.0,0.0,0.0,0.0,0.0,0.0,0.0,0.0,0.0,0.0,0.0,0.0,0.0,0.0,0.0,0.0,0.0,0.0,0.0,0.0,0.0,0.0,0.0,0.0,0.0,0.0,0.0,0.0,0.0,0.0,0.0,0.0,0.0,0.0,0.0,0.0,0.0,0.0,0.0,0.0,0.0,0.0,0.0,0.0,0.0,0.0,0.0,0.0,0.0,0.0,0.0,0.0,0.0,0.0,0.0,0.0,0.0,0.0,0.0,0.0,0.0,0.0,0.0,0.0,0.0,0.0,0.0,0.0,0.0,0.0,0.0,0.0,0.0,0.0,0.0,0.0,0.0,0.0,0.0,0.0,0.0,0.0,0.0,0.0,0.0,0.0,0.0,0.0,0.0,0.0,0.0,0.0,0.0,0.0,0.0,0.0,0.0,0.0,0.0,0.0,0.0,0.0,0.0,0.0,0.0,0.0,0.0,0.0,0.0,0.0,5.1488,5.2045,5.0474,4.9839,5.034,0.0,0.0,0.0,0.0,0.0,0.0,0.0,0.0,0.0,0.0,0.0,0.0,0.0,0.0,0.0,0.0,0.0,0.0,0.0,0.0,0.0,0.0,0.0,0.0,0.0,0.0,0.0,0.0,0.0,0.0,0.0,0.0,0.0,0.0,0.0,0.0,0.0,0.0,0.0,0.0,0.0,0.0,0.0,0.0,0.0,0.0,0.0,0.0,0.0,0.0,0.0,0.0,0.0,0.0,0.0,0.0,0.0,0.0,0.0,0.0,0.0,0.0,0.0,0.0,0.0,0.0,0.0,0.0,0.0,0.0,0.0,0.0,0.0,0.0,0.0,0.0,0.0,0.0,0.0,0.0,0.0,0.0,0.0,0.0,0.0,0.0,0.0,0.0,0.0,0.0,0.0,0.0,0.0,0.0,0.0,0.0,0.0,0.0,0.0,0.0,0.0,0.0,0.0,0.0,0.0,0.0,0.0,0.0,0.0,0.0,0.0,0.0,5.1036,5.0461,5.1477,0.0,0.0,0.0,0.0,0.0,0.0,0.0,0.0,0.0,0.0,0.0,0.0,0.0,0.0,0.0,0.0,0.0,0.0,0.0,0.0,0.0,0.0,0.0,0.0,0.0,0.0,0.0,0.0,0.0,0.0,0.0,0.0,0.0,0.0,0.0,0.0,0.0,0.0,0.0,0.0,0.0,0.0,0.0,0.0,0.0,0.0,0.0,0.0,0.0,0.0,0.0,0.0,0.0,0.0,0.0,0.0,0.0,0.0,0.0,0.0,0.0,0.0,0.0,0.0,0.0,0.0,0.0,0.0,0.0,0.0,0.0,0.0,0.0,0.0,0.0,0.0,0.0,0.0,0.0,0.0,0.0,0.0,0.0,0.0,0.0,0.0,0.0,0.0,0.0,0.0,0.0,0.0,0.0,0.0,0.0,0.0,0.0,0.0,0.0,0.0,0.0,0.0,0.0,0.0,0.0,0.0,0.0,0.0,0.0,0.0,5.2994,5.3351,5.3087,0.0,5.2852,0.0,0.0,0.0,0.0,0.0,0.0,0.0,0.0,0.0,0.0,0.0,0.0,0.0,0.0,0.0,0.0,0.0,0.0,0.0,0.0,0.0,0.0,0.0,0.0,0.0,0.0,0.0,0.0,0.0,0.0,0.0,0.0,0.0,0.0,0.0,0.0,0.0,0.0,0.0,0.0,0.0,0.0,0.0,0.0,0.0,0.0,0.0,0.0,0.0,0.0,0.0,0.0,0.0,0.0,0.0,0.0,0.0,0.0,0.0,0.0,0.0,0.0,0.0,0.0,0.0,0.0,0.0,0.0,0.0,0.0,0.0,0.0,0.0,0.0,0.0,0.0,0.0,0.0,0.0,0.0,0.0,0.0,0.0,0.0,0.0,0.0,0.0,0.0,0.0,0.0,0.0,0.0,0.0,0.0,0.0,0.0,0.0,0.0,0.0,0.0,0.0,0.0,0.0,0.0,0.0,0.0,0.0,0.0,0.0,0.0,5.3381,5.2938,5.2833,5.2906,0.0,0.0,0.0,0.0,0.0,0.0,0.0,0.0,0.0,0.0,0.0,0.0,0.0,0.0,0.0,0.0,0.0,0.0,0.0,0.0,0.0,0.0,0.0,0.0,0.0,0.0,0.0,0.0,0.0,0.0,0.0,0.0,0.0,0.0,0.0,0.0,0.0,0.0,0.0,0.0,0.0,0.0,0.0,0.0,0.0,0.0,0.0,0.0,0.0,0.0,0.0,0.0,0.0,0.0,0.0,0.0,0.0,0.0,0.0,0.0,0.0,0.0,0.0,0.0,0.0,0.0,0.0,0.0,0.0,0.0,0.0,0.0,0.0,0.0,0.0,0.0,0.0,0.0,0.0,0.0,0.0,0.0,0.0,0.0,0.0,0.0,0.0,0.0,0.0,0.0,0.0,0.0,0.0,0.0,0.0,0.0,0.0,0.0,0.0,0.0,0.0,0.0,0.0,0.0,0.0,0.0,0.0,0.0,0.0,0.0,5.363,5.3349,5.2816,5.294,5.3171,5.3399,0.0,0.0,0.0,0.0,0.0,0.0,0.0,0.0,0.0,0.0,0.0,0.0,0.0,0.0,0.0,0.0,0.0,0.0,0.0,0.0,0.0,0.0,0.0,0.0,0.0,0.0,0.0,0.0,0.0,0.0,0.0,0.0,0.0,0.0,0.0,0.0,0.0,0.0,0.0,0.0,0.0,0.0,0.0,0.0,0.0,0.0,0.0,0.0,0.0,0.0,0.0,0.0,0.0,0.0,0.0,0.0,0.0,0.0,0.0,0.0,0.0,0.0,0.0,0.0,0.0,0.0,0.0,0.0,0.0,0.0,0.0,0.0,0.0,0.0,0.0,0.0,0.0,0.0,0.0,0.0,0.0,0.0,0.0,0.0,0.0,0.0,0.0,0.0,0.0,0.0,0.0,0.0,0.0,0.0,0.0,0.0,0.0,0.0,0.0,0.0,0.0,0.0,0.0,0.0,0.0,0.0,0.0,0.0,5.4459,5.3426,5.2958,5.323,5.4267,5.4339,0.0,0.0,0.0,0.0,0.0,0.0,0.0,0.0,0.0,0.0,0.0,0.0,0.0,0.0,0.0,0.0,0.0,0.0,0.0,0.0,0.0,0.0,0.0,0.0,0.0,0.0,0.0,0.0,0.0,0.0,0.0,0.0,0.0,0.0,0.0,0.0,0.0,0.0,0.0,0.0,0.0,0.0,0.0,0.0,0.0,0.0,0.0,0.0,0.0,0.0,0.0,0.0,0.0,0.0,0.0,0.0,0.0,0.0,0.0,0.0,0.0,0.0,0.0,0.0,0.0,0.0,0.0,0.0,0.0,0.0,0.0,0.0,0.0,0.0,0.0,0.0,0.0,0.0,0.0,0.0,0.0,0.0,0.0,0.0,0.0,0.0,0.0,0.0,0.0,0.0,0.0,0.0,0.0,0.0,0.0,0.0,0.0,0.0,0.0,0.0,0.0,0.0,0.0,0.0,0.0,0.0,0.0,0.0,0.0,5.3416,5.2872,5.3166,5.4267,5.3664,5.3363,0.0,0.0,0.0,0.0,0.0,0.0,0.0,0.0,0.0,0.0,0.0,0.0,0.0,0.0,0.0,0.0,0.0,0.0,0.0,0.0,0.0,0.0,0.0,0.0,0.0,0.0,0.0,0.0,0.0,0.0,0.0,0.0,0.0,0.0,0.0,0.0,0.0,0.0,0.0,0.0,0.0,0.0,0.0,0.0,0.0,0.0,0.0,0.0,0.0,0.0,0.0,0.0,0.0,0.0,0.0,0.0,0.0,0.0,0.0,0.0,0.0,0.0,0.0,0.0,0.0,0.0,0.0,0.0,0.0,0.0,0.0,0.0,0.0,0.0,0.0,0.0,0.0,0.0,0.0,0.0,0.0,0.0,0.0,0.0,0.0,0.0,0.0,0.0,0.0,0.0,0.0,0.0,0.0,0.0,0.0,0.0,0.0,0.0,0.0,0.0,0.0,0.0,0.0,0.0,0.0,0.0,0.0,0.0,0.0,5.3472,0.0,5.3615,5.4411,5.3398,5.2976,0.0,0.0,0.0,0.0,0.0,0.0,0.0,0.0,0.0,0.0,0.0,0.0,0.0,0.0,0.0,0.0,0.0,0.0,0.0,0.0,0.0,0.0,0.0,0.0,0.0,0.0,0.0,0.0,0.0,0.0,0.0,0.0,0.0,0.0,0.0,0.0,0.0,0.0,0.0,0.0,0.0,0.0,0.0,0.0,0.0,0.0,0.0,0.0,0.0,0.0,0.0,0.0,0.0,0.0,0.0,0.0,0.0,0.0,0.0,0.0,0.0,0.0,0.0,0.0,0.0,0.0,0.0,0.0,0.0,0.0,0.0,0.0,0.0,0.0,0.0,0.0,0.0,0.0,0.0,0.0,0.0,0.0,0.0,0.0,0.0,0.0,0.0,0.0,0.0,0.0,0.0,0.0,0.0,0.0,0.0,0.0,0.0,0.0,0.0,0.0,0.0,0.0,0.0,0.0,0.0,0.0,0.0,0.0,5.5753,5.481,5.4616,5.423,5.3604,5.371,5.3357,0.0,0.0,0.0,0.0,0.0,0.0,0.0,0.0,0.0,0.0,0.0,0.0,0.0,0.0,0.0,0.0,0.0,0.0,0.0,0.0,0.0,0.0,0.0,0.0,0.0,0.0,0.0,0.0,0.0,0.0,0.0,0.0,0.0,0.0,0.0,0.0,0.0,0.0,0.0,0.0,0.0,0.0,0.0,0.0,0.0,0.0,0.0,0.0,0.0,0.0,0.0,0.0,0.0,0.0,0.0,0.0,0.0,0.0,0.0,0.0,0.0,0.0,0.0,0.0,0.0,0.0,0.0,0.0,0.0,0.0,0.0,0.0,0.0,0.0,0.0,0.0,0.0,0.0,0.0,0.0,0.0,0.0,0.0,0.0,0.0,0.0,0.0,0.0,0.0,0.0,0.0,0.0,0.0,0.0,0.0,0.0,0.0,0.0,0.0,0.0,0.0,0.0,0.0,0.0,0.0,0.0,0.0,0.0,0.0,5.5631,5.4592,5.4507,5.5329,5.3908,5.3495,0.0,0.0,0.0,0.0,0.0,0.0,0.0,0.0,0.0,0.0,0.0,0.0,0.0,0.0,0.0,0.0,0.0,0.0,0.0,0.0,0.0,0.0,0.0,0.0,0.0,0.0,0.0,0.0,0.0,0.0,0.0,0.0,0.0,0.0,0.0,0.0,0.0,0.0,0.0,0.0,0.0,0.0,0.0,0.0,0.0,0.0,0.0,0.0,0.0,0.0,0.0,0.0,0.0,0.0,0.0,0.0,0.0,0.0,0.0,0.0,0.0,0.0,0.0,0.0,0.0,0.0,0.0,0.0,0.0,0.0,0.0,0.0,0.0,0.0,0.0,0.0,0.0,0.0,0.0,0.0,0.0,0.0,0.0,0.0,0.0,0.0,0.0,0.0,0.0,0.0,0.0,0.0,0.0,0.0,0.0,0.0,0.0,0.0,0.0,0.0,0.0,0.0,0.0,0.0,0.0,0.0,0.0,0.0,0.0,5.8344,5.6261,5.5667,5.6758,5.501,5.4414,5.5083,0.0,0.0,0.0,0.0,0.0,0.0,0.0,0.0,0.0,0.0,0.0,0.0,0.0,0.0,0.0,0.0,0.0,0.0,0.0,0.0,0.0,0.0,0.0,0.0,0.0,0.0,0.0,0.0,0.0,0.0,0.0,0.0,0.0,0.0,0.0,0.0,0.0,0.0,0.0,0.0,0.0,0.0,0.0,0.0,0.0,0.0,0.0,0.0,0.0,0.0,0.0,0.0,0.0,0.0,0.0,0.0,0.0,0.0,0.0,0.0,0.0,0.0,0.0,0.0,0.0,0.0,0.0,0.0,0.0,0.0,0.0,0.0,0.0,0.0,0.0,0.0,0.0,0.0,0.0,0.0,0.0,0.0,0.0,0.0,0.0,0.0,0.0,0.0,0.0,0.0,0.0,0.0,0.0,0.0,0.0,0.0,0.0,0.0,0.0,0.0,0.0,0.0,0.0,0.0,0.0,0.0,0.0,0.0,6.2485,5.9404,5.785,5.7911,5.6964,5.6102,0.0,0.0,0.0,0.0,0.0,0.0,0.0,0.0,0.0,0.0,0.0,0.0,0.0,0.0,0.0,0.0,0.0,0.0,0.0,0.0,0.0,0.0,0.0,0.0,0.0,0.0,0.0,0.0,0.0,0.0,0.0,0.0,0.0,0.0,0.0,0.0,0.0,0.0,0.0,0.0,0.0,0.0,0.0,0.0,0.0,0.0,0.0,0.0,0.0,0.0,0.0,0.0,0.0,0.0,0.0,0.0,0.0,0.0,0.0,0.0,0.0,0.0,0.0,0.0,0.0,0.0,0.0,0.0,0.0,0.0,0.0,0.0,0.0,0.0,0.0,0.0,0.0,0.0,0.0,0.0,0.0,0.0,0.0,0.0,0.0,0.0,0.0,0.0,0.0,0.0,0.0,0.0,0.0,0.0,0.0,0.0,0.0,0.0,0.0,0.0,0.0,0.0,0.0,0.0,0.0,0.0,0.0,0.0,0.0,6.37,6.284,6.2043,6.1371,5.9457,5.8309,0.0,0.0,0.0,0.0,0.0,0.0,0.0,0.0,0.0,0.0,0.0,0.0,0.0,0.0,0.0,0.0,0.0,0.0,0.0,0.0,0.0,0.0,0.0,0.0,0.0,0.0,0.0,0.0,0.0,0.0,0.0,0.0,0.0,0.0,0.0,0.0,0.0,0.0,0.0,0.0,0.0,0.0,0.0,0.0,0.0,0.0,0.0,0.0,0.0,0.0,0.0,0.0,0.0,0.0,0.0,0.0,0.0,0.0,0.0,0.0,0.0,0.0,0.0,0.0,0.0,0.0,0.0,0.0,0.0,0.0,0.0,0.0,0.0,0.0,0.0,0.0,0.0,0.0,0.0,0.0,0.0,0.0,0.0,0.0,0.0,0.0,0.0,0.0,0.0,0.0,0.0,0.0,0.0,0.0,0.0,0.0,0.0,0.0,0.0,0.0,0.0,0.0,0.0,0.0,0.0,0.0,0.0,0.0,6.4589,6.5801,6.6386,6.615,6.5011,6.2853,6.1141,0.0,0.0,0.0,0.0,0.0,0.0,0.0,0.0,0.0,0.0,0.0,0.0,0.0,0.0,0.0,0.0,0.0,0.0,0.0,0.0,0.0,0.0,0.0,0.0,0.0,0.0,0.0,0.0,0.0,0.0,0.0,0.0,0.0,0.0,0.0,0.0,0.0,0.0,0.0,0.0,0.0,0.0,0.0,0.0,0.0,0.0,0.0,0.0,0.0,0.0,0.0,0.0,0.0,0.0,0.0,0.0,0.0,0.0,0.0,0.0,0.0,0.0,0.0,0.0,0.0,0.0,0.0,0.0,0.0,0.0,0.0,0.0,0.0,0.0,0.0,0.0,0.0,0.0,0.0,0.0,0.0,0.0,0.0,0.0,0.0,0.0,0.0,0.0,0.0,0.0,0.0,0.0,0.0,0.0,0.0,0.0,0.0,0.0,0.0,0.0,0.0,0.0,0.0,0.0,0.0,0.0,0.0,0.0,6.767,6.801,6.952,6.9647,6.834,6.6418,6.4229,0.0,0.0,0.0,0.0,0.0,0.0,0.0,0.0,0.0,0.0,0.0,0.0,0.0,0.0,0.0,0.0,0.0,0.0,0.0,0.0,0.0,0.0,0.0,0.0,0.0,0.0,0.0,0.0,0.0,0.0,0.0,0.0,0.0,0.0,0.0,0.0,0.0,0.0,0.0,0.0,0.0,0.0,0.0,0.0,0.0,0.0,0.0,0.0,0.0,0.0,0.0,0.0,0.0,0.0,0.0,0.0,0.0,0.0,0.0,0.0,0.0,0.0,0.0,0.0,0.0,0.0,0.0,0.0,0.0,0.0,0.0,0.0,0.0,0.0,0.0,0.0,0.0,0.0,0.0,0.0,0.0,0.0,0.0,0.0,0.0,0.0,0.0,0.0,0.0,0.0,0.0,0.0,0.0,0.0,0.0,0.0,0.0,0.0,0.0,0.0,0.0,0.0,0.0,0.0,0.0,0.0,0.0,0.0,6.8035,6.8857,6.9814,7.0173,6.9831,6.8204,6.618,0.0,0.0,0.0,0.0,0.0,0.0,0.0,0.0,0.0,0.0,0.0,0.0,0.0,0.0,0.0,0.0,0.0,0.0,0.0,0.0,0.0,0.0,0.0,0.0,0.0,0.0,0.0,0.0,0.0,0.0,0.0,0.0,0.0,0.0,0.0,0.0,0.0,0.0,0.0,0.0,0.0,0.0,0.0,0.0,0.0,0.0,0.0,0.0,5.0393,0.0,0.0,0.0,0.0,0.0,0.0,0.0,0.0,0.0,0.0,0.0,0.0,0.0,0.0,0.0,0.0,0.0,0.0,0.0,0.0,0.0,0.0,0.0,0.0,0.0,0.0,0.0,0.0,0.0,0.0,0.0,0.0,0.0,0.0,0.0,0.0,0.0,0.0,0.0,0.0,0.0,0.0,0.0,0.0,0.0,0.0,0.0,0.0,0.0,0.0,0.0,0.0,0.0,0.0,0.0,0.0,0.0,0.0,0.0,6.9651,7.0256,7.1453,7.1608,7.0518,6.9658,6.8177,0.0,0.0,0.0,0.0,0.0,0.0,0.0,0.0,0.0,0.0,0.0,0.0,0.0,0.0,0.0,0.0,0.0,0.0,0.0,0.0,0.0,0.0,0.0,0.0,0.0,0.0,0.0,0.0,0.0,0.0,0.0,0.0,0.0,0.0,0.0,0.0,0.0,0.0,0.0,0.0,0.0,0.0,0.0,0.0,0.0,0.0,0.0,0.0,0.0,0.0,0.0,0.0,0.0,0.0,0.0,0.0,0.0,0.0,0.0,0.0,0.0,0.0,0.0,0.0,0.0,0.0,0.0,0.0,0.0,0.0,0.0,0.0,0.0,0.0,0.0,0.0,0.0,0.0,0.0,0.0,0.0,0.0,0.0,0.0,0.0,0.0,0.0,0.0,0.0,0.0,0.0,0.0,0.0,0.0,0.0,0.0,0.0,0.0,0.0,0.0,0.0,0.0,0.0,0.0,0.0,0.0,0.0,7.0403,7.1488,7.1885,7.3268,7.3046,7.1083,7.0802,6.9816,6.7982,0.0,0.0,0.0,0.0,0.0,0.0,0.0,0.0,0.0,0.0,0.0,0.0,0.0,0.0,0.0,0.0,0.0,0.0,0.0,0.0,0.0,0.0,0.0,0.0,0.0,0.0,0.0,0.0,0.0,0.0,0.0,0.0,0.0,0.0,0.0,0.0,0.0,0.0,5.1249,5.2758,0.0,0.0,0.0,0.0,0.0,0.0,0.0,0.0,5.2927,0.0,0.0,0.0,0.0,0.0,0.0,0.0,0.0,0.0,0.0,0.0,0.0,0.0,0.0,0.0,0.0,0.0,0.0,0.0,0.0,0.0,0.0,0.0,0.0,0.0,0.0,0.0,0.0,0.0,0.0,0.0,0.0,0.0,0.0,0.0,0.0,0.0,0.0,0.0,0.0,0.0,0.0,0.0,0.0,0.0,0.0,0.0,0.0,0.0,0.0,0.0,0.0,0.0,0.0,0.0,0.0,7.2642,7.1798,7.1945,7.3288,7.3249,7.2927,7.2337,7.1289,7.0439,6.9824,0.0,0.0,0.0,0.0,0.0,0.0,0.0,0.0,0.0,0.0,0.0,0.0,0.0,0.0,0.0,0.0,0.0,0.0,0.0,0.0,0.0,0.0,0.0,0.0,0.0,0.0,0.0,0.0,0.0,0.0,0.0,0.0,0.0,0.0,0.0,0.0,0.0,0.0,0.0,5.614,5.7171,0.0,0.0,0.0,0.0,0.0,0.0,0.0,0.0,5.3789,0.0,0.0,0.0,0.0,0.0,0.0,0.0,0.0,0.0,0.0,0.0,0.0,0.0,0.0,0.0,0.0,0.0,0.0,0.0,0.0,0.0,0.0,0.0,0.0,0.0,0.0,0.0,0.0,0.0,0.0,0.0,0.0,0.0,0.0,0.0,0.0,0.0,0.0,0.0,0.0,0.0,0.0,0.0,0.0,0.0,0.0,0.0,0.0,0.0,0.0,0.0,0.0,0.0,0.0,0.0,7.2899,7.312,7.3369,7.3787,7.4089,7.3582,7.2208,7.1205,7.0365,0.0,0.0,0.0,0.0,0.0,0.0,0.0,0.0,0.0,0.0,0.0,0.0,0.0,0.0,0.0,0.0,0.0,0.0,0.0,0.0,0.0,0.0,0.0,0.0,0.0,0.0,0.0,0.0,0.0,0.0,0.0,0.0,0.0,0.0,0.0,0.0,0.0,0.0,0.0,0.0,5.83,5.9097,5.9294,0.0,0.0,0.0,0.0,0.0,0.0,5.6283,5.6234,0.0,0.0,0.0,0.0,0.0,0.0,0.0,0.0,0.0,0.0,0.0,0.0,0.0,0.0,0.0,0.0,0.0,0.0,0.0,0.0,0.0,0.0,0.0,0.0,0.0,0.0,0.0,0.0,0.0,0.0,0.0,0.0,0.0,0.0,0.0,0.0,0.0,0.0,0.0,0.0,0.0,0.0,0.0,0.0,0.0,0.0,0.0,0.0,0.0,0.0,0.0,0.0,0.0,0.0,0.0,7.2716,7.4184,7.472,7.4396,7.4835,7.4145,7.2189,7.1141,7.0201,0.0,0.0,0.0,0.0,0.0,0.0,0.0,0.0,0.0,0.0,0.0,0.0,0.0,0.0,0.0,0.0,0.0,0.0,0.0,0.0,0.0,0.0,0.0,0.0,0.0,0.0,0.0,0.0,0.0,0.0,0.0,0.0,0.0,0.0,0.0,0.0,0.0,0.0,0.0,0.0,0.0,6.098,6.1918,6.0764,0.0,0.0,0.0,0.0,5.931,5.9284,0.0,0.0,0.0,0.0,0.0,0.0,0.0,0.0,0.0,0.0,0.0,0.0,0.0,0.0,0.0,0.0,0.0,0.0,0.0,0.0,0.0,0.0,0.0,0.0,0.0,0.0,0.0,0.0,0.0,0.0,0.0,0.0,0.0,0.0,0.0,0.0,0.0,0.0,0.0,0.0,0.0,0.0,0.0,0.0,0.0,0.0,0.0,0.0,0.0,0.0,0.0,0.0,0.0,0.0,0.0,0.0,7.3523,7.4441,7.5212,7.5756,7.469,7.3967,7.3635,7.1499,7.0283,0.0,0.0,0.0,0.0,0.0,0.0,0.0,0.0,0.0,0.0,0.0,0.0,0.0,0.0,0.0,0.0,0.0,0.0,0.0,0.0,0.0,0.0,0.0,0.0,0.0,0.0,0.0,0.0,0.0,0.0,0.0,0.0,0.0,0.0,0.0,0.0,0.0,0.0,0.0,0.0,0.0,6.382,6.3136,6.3553,6.3656,0.0,0.0,6.1973,6.2334,6.2541,0.0,0.0,0.0,0.0,0.0,0.0,0.0,0.0,0.0,0.0,0.0,0.0,0.0,0.0,0.0,0.0,0.0,0.0,0.0,0.0,0.0,0.0,0.0,0.0,0.0,0.0,0.0,0.0,0.0,0.0,0.0,0.0,0.0,0.0,0.0,0.0,0.0,0.0,0.0,0.0,0.0,0.0,0.0,0.0,0.0,0.0,0.0,0.0,0.0,0.0,0.0,0.0,0.0,0.0,0.0,7.2738,7.4992,7.5432,7.6013,7.6875,7.5419,7.438,7.3938,7.1582,7.0459,0.0,0.0,0.0,0.0,0.0,0.0,0.0,0.0,0.0,0.0,0.0,0.0,0.0,0.0,0.0,0.0,0.0,0.0,0.0,0.0,0.0,0.0,0.0,0.0,0.0,0.0,0.0,0.0,0.0,0.0,0.0,0.0,0.0,0.0,0.0,0.0,0.0,0.0,0.0,0.0,0.0,0.0,6.7257,6.7377,0.0,0.0,0.0,6.5784,6.5861,0.0,0.0,0.0,0.0,0.0,0.0,0.0,0.0,0.0,0.0,0.0,0.0,0.0,0.0,0.0,0.0,0.0,0.0,0.0,0.0,0.0,0.0,0.0,0.0,0.0,0.0,0.0,0.0,0.0,0.0,0.0,0.0,0.0,0.0,0.0,0.0,0.0,0.0,0.0,0.0,0.0,0.0,0.0,0.0,0.0,0.0,0.0,0.0,0.0,0.0,0.0,0.0,0.0,0.0,0.0,0.0,0.0,7.5996,7.6503,7.7108,7.7781,7.642,7.5169,7.4175,7.1821,0.0,0.0,0.0,0.0,0.0,0.0,0.0,0.0,0.0,0.0,0.0,0.0,0.0,0.0,0.0,0.0,0.0,0.0,0.0,0.0,0.0,0.0,0.0,0.0,0.0,0.0,0.0,5.3927,0.0,0.0,0.0,0.0,0.0,0.0,0.0,0.0,0.0,0.0,0.0,0.0,0.0,0.0,6.9187,7.0579,7.0742,7.055,0.0,0.0,6.9524,6.9314,6.9056,6.8319,0.0,0.0,0.0,0.0,0.0,0.0,0.0,0.0,0.0,0.0,0.0,0.0,0.0,0.0,0.0,0.0,0.0,0.0,0.0,0.0,0.0,0.0,0.0,0.0,0.0,0.0,0.0,0.0,0.0,0.0,0.0,0.0,0.0,0.0,0.0,0.0,0.0,0.0,0.0,0.0,0.0,0.0,0.0,0.0,0.0,0.0,0.0,0.0,0.0,0.0,0.0,0.0,0.0,0.0,7.4238,7.5879,7.7573,7.8442,7.851,7.7635,7.6423,7.4845,7.2496,7.1228,0.0,0.0,0.0,0.0,0.0,0.0,0.0,0.0,0.0,0.0,0.0,0.0,0.0,0.0,0.0,0.0,0.0,0.0,0.0,0.0,0.0,0.0,0.0,0.0,0.0,0.0,0.0,0.0,0.0,0.0,0.0,0.0,0.0,0.0,0.0,0.0,0.0,0.0,0.0,0.0,0.0,7.0614,7.1572,7.3094,7.3927,0.0,7.3109,7.2747,7.2458,7.2507,7.1544,6.8478,0.0,0.0,0.0,0.0,0.0,0.0,0.0,0.0,0.0,0.0,0.0,0.0,0.0,0.0,0.0,0.0,0.0,0.0,0.0,0.0,0.0,0.0,0.0,0.0,0.0,0.0,0.0,0.0,7.731,0.0,0.0,0.0,0.0,0.0,0.0,0.0,0.0,0.0,0.0,0.0,0.0,0.0,0.0,0.0,0.0,0.0,0.0,0.0,0.0,0.0,0.0,0.0,0.0,7.5525,7.719,7.8386,7.9255,7.9824,7.8139,7.6924,7.6393,7.3472,7.194,0.0,0.0,0.0,0.0,0.0,0.0,0.0,0.0,0.0,0.0,0.0,0.0,0.0,0.0,0.0,0.0,0.0,0.0,0.0,0.0,0.0,0.0,0.0,0.0,0.0,0.0,0.0,0.0,5.6545,5.7247,5.94,0.0,0.0,0.0,0.0,0.0,0.0,0.0,0.0,0.0,0.0,7.4403,7.6277,7.7125,0.0,0.0,7.639,7.5466,7.4878,7.4067,7.2762,7.0532,6.8611,0.0,0.0,0.0,0.0,0.0,0.0,0.0,0.0,0.0,0.0,0.0,0.0,0.0,0.0,0.0,0.0,0.0,0.0,0.0,0.0,0.0,0.0,0.0,0.0,0.0,0.0,0.0,0.0,0.0,0.0,0.0,0.0,0.0,0.0,0.0,0.0,0.0,0.0,0.0,0.0,0.0,0.0,0.0,0.0,0.0,0.0,0.0,0.0,0.0,0.0,0.0,0.0,7.6352,7.8271,7.936,8.0263,8.0944,7.9081,7.7792,7.7082,7.4202,7.2599,0.0,0.0,0.0,0.0,0.0,0.0,0.0,0.0,0.0,0.0,0.0,0.0,0.0,0.0,0.0,0.0,0.0,0.0,0.0,0.0,0.0,0.0,0.0,0.0,0.0,0.0,0.0,0.0,5.8588,5.9322,6.1503,0.0,0.0,0.0,0.0,0.0,0.0,0.0,0.0,0.0,0.0,7.773,7.9569,8.0224,8.0431,8.0224,7.9086,7.8051,7.7534,7.6154,7.474,7.3395,0.0,0.0,0.0,0.0,0.0,0.0,0.0,0.0,0.0,0.0,0.0,0.0,0.0,0.0,0.0,0.0,0.0,0.0,0.0,0.0,0.0,0.0,0.0,0.0,0.0,0.0,0.0,7.9727,0.0,0.0,7.969,0.0,0.0,0.0,0.0,0.0,0.0,0.0,0.0,0.0,0.0,0.0,0.0,0.0,0.0,0.0,0.0,0.0,0.0,0.0,0.0,0.0,0.0,7.665,7.894,8.0711,8.1544,8.1544,8.0776,7.9208,7.6947,7.4467,7.313,7.2943,0.0,0.0,0.0,0.0,0.0,0.0,0.0,0.0,0.0,0.0,0.0,0.0,0.0,0.0,0.0,0.0,0.0,0.0,0.0,0.0,0.0,0.0,0.0,0.0,0.0,0.0,6.1045,6.2225,6.3057,0.0,0.0,0.0,0.0,0.0,0.0,0.0,0.0,0.0,7.4961,7.7856,7.9982,8.0569,8.1879,8.2569,8.1914,8.1086,8.0534,8.05,7.9258,7.8051,0.0,0.0,0.0,0.0,0.0,0.0,0.0,0.0,0.0,0.0,0.0,0.0,0.0,0.0,0.0,0.0,0.0,0.0,0.0,0.0,0.0,0.0,0.0,0.0,0.0,0.0,0.0,8.2118,8.1448,0.0,0.0,0.0,0.0,0.0,0.0,0.0,0.0,0.0,0.0,0.0,8.6221,8.5249,0.0,0.0,0.0,0.0,0.0,0.0,0.0,0.0,0.0,0.0,0.0,0.0,7.9096,8.0401,8.1996,8.2684,8.2245,8.1408,8.0422,7.9208,7.6745,7.4615,7.2858,0.0,0.0,0.0,0.0,0.0,0.0,0.0,0.0,0.0,0.0,0.0,0.0,0.0,0.0,0.0,0.0,0.0,0.0,0.0,0.0,0.0,0.0,0.0,0.0,0.0,6.2212,0.0,0.0,0.0,0.0,0.0,0.0,0.0,0.0,0.0,0.0,7.3807,7.6063,7.8919,8.079,8.2319,8.35,8.4087,8.4535,0.0,0.0,0.0,0.0,0.0,0.0,0.0,0.0,0.0,0.0,0.0,0.0,0.0,0.0,7.4322,7.0262,6.8709,6.8431,6.9594,0.0,0.0,0.0,0.0,0.0,0.0,0.0,0.0,0.0,0.0,0.0,0.0,0.0,0.0,8.4779,8.4073,8.4007,0.0,0.0,0.0,0.0,0.0,0.0,0.0,0.0,8.6439,8.7746,8.9756,8.8843,8.825,8.8047,8.6979,8.4247,0.0,0.0,0.0,0.0,0.0,0.0,0.0,0.0,8.0945,8.2069,8.3266,8.3737,8.3302,8.2213,8.1305,8.0644,7.8216,7.5687,7.3197,7.3003,7.2495,0.0,0.0,0.0,0.0,0.0,0.0,0.0,0.0,0.0,0.0,0.0,0.0,0.0,0.0,0.0,0.0,0.0,0.0,0.0,0.0,0.0,0.0,0.0,6.4009,0.0,0.0,0.0,0.0,0.0,0.0,0.0,0.0,0.0,7.6348,7.772,7.9713,8.2209,8.3261,8.4253,8.5397,0.0,0.0,0.0,0.0,0.0,0.0,0.0,8.2604,8.2604,8.2604,8.25,8.2259,8.2845,8.2811,8.1086,0.0,0.0,7.5326,7.3671,7.3567,7.4809,7.443,7.4119,7.4912,7.505,7.5188,0.0,0.0,0.0,0.0,8.9814,0.0,0.0,0.0,8.7936,8.7863,0.0,8.7516,0.0,0.0,0.0,0.0,8.6233,8.7136,0.0,0.0,9.1181,9.2208,9.2951,9.2171,9.139,9.0541,8.96,8.8548,8.7276,8.2596,0.0,0.0,0.0,0.0,0.0,0.0,8.232,8.3846,8.4535,8.4786,8.4678,8.3229,8.1998,8.1056,7.8812,7.6495,7.4178,7.4685,7.4033,7.182,7.3056,0.0,0.0,0.0,0.0,0.0,0.0,0.0,0.0,0.0,0.0,0.0,0.0,0.0,0.0,0.0,0.0,0.0,0.0,0.0,0.0,6.6396,0.0,0.0,0.0,0.0,0.0,0.0,0.0,0.0,0.0,8.1664,8.033,8.176,8.3414,8.4762,0.0,0.0,0.0,0.0,8.7467,8.7536,8.7501,8.7467,8.757,8.6915,8.6398,8.6363,0.0,0.0,8.5466,8.5949,8.6191,8.5432,8.5811,8.5018,8.0638,7.9086,7.8775,7.9465,7.8982,7.881,7.9431,7.9465,7.9534,9.8876,0.0,0.0,0.0,0.0,9.4142,9.421,9.4686,9.3604,9.2721,9.1853,9.0639,0.0,0.0,0.0,0.0,0.0,0.0,9.0291,9.1976,9.2269,9.3155,9.4456,9.4234,9.361,9.2732,9.2439,9.152,9.0086,8.8517,8.6292,8.356,0.0,0.0,0.0,0.0,8.4936,8.5332,8.6563,8.6557,8.5283,8.4851,8.3331,8.0728,8.0008,7.8567,7.6325,7.579,7.5354,7.4935,7.4152,0.0,0.0,0.0,0.0,0.0,0.0,0.0,0.0,0.0,0.0,0.0,0.0,0.0,0.0,0.0,0.0,0.0,0.0,0.0,6.9187,6.9527,7.0133,0.0,0.0,0.0,0.0,0.0,0.0,0.0,0.0,0.0,8.6263,8.6067,8.619,0.0,0.0,8.781,8.7915,8.8122,8.8639,8.9674,8.9398,0.0,9.0502,8.9605,8.8708,8.8708,8.8743,8.8674,8.8467,8.9019,8.9122,8.7846,8.8226,8.8088,8.6363,8.3983,8.2811,8.3293,8.2535,8.1914,8.2535,8.2707,8.2742,10.3599,10.1417,9.9656,9.8918,9.8826,9.8043,9.7878,9.8123,9.6929,9.6006,9.5316,9.421,9.3028,9.1808,9.1407,0.0,0.0,0.0,9.3501,9.5266,9.5229,9.5934,9.7086,9.6757,9.6058,9.5212,9.4772,9.3816,9.2491,9.2385,9.1177,8.8873,0.0,8.6572,8.5919,8.6646,8.7006,8.6965,8.7759,8.7679,8.6586,8.5972,8.4342,8.17,8.163,8.0731,7.871,7.8133,7.7518,7.6782,7.5776,7.4947,0.0,0.0,0.0,0.0,0.0,0.0,0.0,0.0,0.0,0.0,0.0,6.943,6.9989,0.0,0.0,0.0,7.1534,7.1832,7.187,7.2474,0.0,0.0,0.0,0.0,0.0,0.0,0.0,8.4187,8.6464,8.8251,8.8982,8.9019,8.8961,8.91,8.9445,8.9761,8.9916,0.0,9.0364,9.1537,9.133,9.1364,9.2261,9.1675,9.1054,9.1054,9.0812,9.0605,9.0605,9.0743,9.0467,8.9778,8.9847,8.9985,8.9536,8.7708,8.626,8.6467,8.5811,8.5363,8.5777,8.5811,8.5846,10.8112,10.7852,10.5154,10.3357,10.232,10.1536,10.0584,9.9526,9.8746,9.8375,9.8375,9.7976,9.735,9.6571,9.5653,0.0,9.672,9.672,9.7567,9.9192,9.9192,9.9601,10.0161,9.9238,9.8352,9.7576,9.6545,9.5589,9.4706,9.4669,9.4448,9.3923,9.0995,8.9459,8.9313,8.8906,8.8678,8.8751,8.8595,8.8405,8.8261,8.6702,8.5106,8.3362,8.3442,8.2647,8.1055,8.0985,8.0007,7.7907,7.7583,7.6755,7.5101,0.0,0.0,0.0,0.0,0.0,0.0,0.0,0.0,0.0,0.0,0.0,0.0,0.0,0.0,7.4398,7.5156,0.0,7.4618,7.5413,0.0,0.0,0.0,7.9971,8.2173,8.3526,8.4891,8.6393,0.0,0.0,8.9692,9.1015,9.1676,9.0825,9.1108,9.1542,9.2038,9.2019,9.233,9.3054,9.3192,9.3192,9.333,9.3192,9.302,9.2882,9.2537,9.2054,9.1985,9.1433,9.0985,9.0881,9.0847,9.0778,9.0778,9.0054,8.9571,8.8846,8.857,8.8467,8.8364,8.8329,8.8295,11.0232,10.9752,10.8894,10.7405,10.5504,10.4721,10.4129,10.3687,10.2907,10.2573,10.2424,10.0494,9.9196,9.8453,9.8195,9.8566,9.9344,9.9381,9.9602,10.0009,10.0009,9.9978,9.9797,9.8984,9.8319,9.7797,9.6911,9.6396,9.6174,9.6021,9.5613,9.4874,9.3759,9.2618,9.1378,9.0682,9.0525,9.1023,9.0943,9.0284,8.8895,8.7025,8.553,8.4521,8.3793,8.3004,8.2114,8.0854,8.0069,7.9791,7.8458,7.7308,7.6444,7.6444,0.0,0.0,0.0,0.0,0.0,0.0,0.0,0.0,0.0,7.3552,7.371,0.0,7.469,0.0,7.7193,7.8182,7.9021,7.9737,0.0,0.0,8.3101,8.4145,8.567,8.6656,8.7792,8.9324,9.0473,9.1588,9.2685,9.3695,9.3903,9.2895,9.2216,9.2126,9.2709,9.2847,9.3089,9.3813,9.402,9.4192,9.4641,9.4365,9.3813,9.3192,9.2951,9.2847,9.2847,9.2226,9.1709,9.1675,9.1192,9.0847,9.0812,9.064,9.0502,9.0226,8.9398,8.8605,8.8605,8.8605,8.8605,11.2014,11.1311,11.0822,10.9817,10.8518,10.707,10.6177,10.5693,10.4876,10.4542,10.4467,10.3093,10.2238,10.1793,10.1458,10.1532,10.1904,10.157,10.1384,10.1384,10.1384,10.1276,10.0982,10.0019,9.9425,9.9198,9.7902,9.7236,9.7236,9.6675,9.6116,9.5559,9.4839,9.42,9.3534,9.2409,9.1966,9.232,9.1994,9.1157,8.9806,8.8257,8.7007,8.6136,8.5226,8.4358,8.357,8.2353,8.1681,8.1477,8.0252,7.9316,7.8923,7.8637,7.8242,0.0,0.0,0.0,0.0,0.0,0.0,0.0,0.0,0.0,0.0,0.0,7.7625,7.8981,8.0681,8.1942,8.2708,8.3479,8.4414,8.5416,8.6499,8.7532,8.8474,8.9438,9.0483,9.1525,9.2149,9.2704,9.3466,9.4058,9.4282,9.3876,9.3369,9.3158,9.3537,9.3882,9.4296,9.471,9.4779,9.4917,9.5331,9.5055,9.4641,9.4192,9.3847,9.3641,9.3606,9.2985,9.2399,9.2054,9.164,9.1226,9.0881,9.0812,9.0812,9.0709,9.0157,8.964,8.9571,8.9571,8.9571,11.3569,11.264,11.1935,11.1407,11.0916,10.8922,10.7587,10.6732,10.5952,10.547,10.5322,10.5359,10.5284,10.5099,10.4356,10.4022,10.391,10.3168,10.2759,10.2721,10.2759,10.2722,10.2537,10.1462,10.0905,10.0793,9.8864,9.7935,9.7899,9.6968,9.6366,9.5943,9.5158,9.499,9.5332,9.4022,9.3261,9.3153,9.2465,9.1704,9.0907,8.9838,8.8802,8.7915,8.6904,8.5957,8.5074,8.4302,8.3666,8.3092,8.2301,8.1791,8.178,8.1325,8.0968,0.0,8.0777,0.0,0.0,0.0,0.0,0.0,0.0,0.0,0.0,7.9737,8.0623,8.2526,8.4533,8.5756,8.5919,8.6877,8.7523,8.7783,8.9162,9.0274,9.0809,9.1802,9.2665,9.3212,9.3477,9.353,9.3488,9.3615,9.3945,9.435,9.4454,9.4365,9.4468,9.4917,9.5296,9.54,9.54,9.5331,9.5365,9.5365,9.5331,9.5296,9.4848,9.4399,9.4227,9.3709,9.302,9.2364,9.2054,9.1744,9.1088,9.0916,9.0812,9.0812,9.0743,9.0674,9.0709,9.0674,9.0812,11.4907,11.3569,11.3384,11.2526,11.1187,11.0781,10.9917,10.8782,10.7969,10.6976,10.5948,10.6101,10.5692,10.491,10.4282,10.391,10.3649,10.3501,10.3168,10.2721,10.3205,10.3018,10.2201,10.15,10.0943,10.0564,9.8977,9.8129,9.8129,9.7402,9.668,9.6016,9.6121,9.5911,9.5398,0.0,0.0,0.0,9.3841,9.337,9.2537,9.0922,8.9924,8.9503,8.7321,0.0,8.5621,8.4263,8.3732,8.4232,8.3482,0.0,0.0,0.0,0.0,0.0,0.0,0.0,0.0,0.0,0.0,0.0,8.4688,8.413,8.2759,8.356,8.4527,8.5371,8.6391,8.7683,8.9375,8.9706,9.0326,9.1561,9.1987,9.2287,9.2578,9.2817,9.3246,9.3951,9.4109,9.435,9.4779,9.5006,9.5041,9.5089,9.5193,9.5193,9.5158,9.5262,9.5365,9.54,9.54,9.54,9.54,9.54,9.54,9.5365,9.5296,9.4951,9.4434,9.4227,9.3778,9.3054,9.2399,9.1985,9.1744,9.1261,9.0881,9.0812,9.0812,9.0812,9.0812,9.0812,9.0812,11.5278,11.3829,11.3792,11.2969,0.0,11.1738,11.1313,11.0507,10.9122,10.7874,10.6878,10.6956,10.6657,10.6019,10.4797,10.4127,10.3859,10.293,10.2454,10.2276,10.2568,10.2492,10.2086,10.168,10.138,10.115,9.9894,9.9228,9.9191,9.8274,9.7588,9.7187,9.7204,9.6992,9.6593,9.6429,9.585,9.4783,9.442,9.3939,9.3422,9.2021,9.12,9.0988,8.9227,0.0,0.0,0.0,0.0,0.0,0.0,0.0,0.0,8.6196,0.0,8.6887,8.6674,8.6553,8.6717,8.6987,8.7212,8.7506,8.8295,8.7914,8.6048,8.692,8.7595,8.776,8.9127,9.0411,9.1371,9.2145,9.2899,9.35,9.3782,9.3955,9.3911,9.4129,9.4399,9.4744,9.4813,9.4986,9.5331,9.54,9.54,9.54,9.54,9.54,9.54,9.54,9.54,9.54,9.54,9.54,9.54,9.54,9.54,9.54,9.54,9.5227,9.4882,9.4848,9.4572,9.3847,9.3365,9.2951,9.2157,9.195,9.1709,9.1054,9.1123,9.1226,9.0916,9.0812,9.0812,11.5464,11.4015,11.4015,11.3299,11.2287,11.225,11.2091,11.1671,10.9843,0.0,0.0,10.7549,10.7433,10.7126,10.5489,10.4627,10.4353,10.2904,10.2246,10.2296,10.2404,10.2444,10.2452,10.2188,10.2073,10.1997,10.0879,10.0359,10.0286,9.9184,9.8536,9.8386,9.8112,9.7934,9.7702,9.7448,9.6798,9.5706,9.5018,9.4572,9.4215,9.3395,9.2676,9.2207,9.1281,9.0319,8.9447,8.8627,8.8028,8.7486,8.7451,8.7879,8.877,8.8631,8.8978,8.9894,8.9572,8.9437,8.9653,9.0085,9.0372,9.0467,9.1022,9.0669,8.9017,8.9477,8.9809,8.9636,9.1538,9.2792,9.2913,9.4127,9.4888,9.472,9.5018,9.5136,9.4884,9.515,9.5331,9.54,9.5365,9.54,9.5365,9.54,9.54,9.54,9.54,9.54,9.54,9.54,9.54,9.54,9.54,9.54,9.54,9.54,9.54,9.54,9.54,9.5331,9.5227,9.5296,9.5089,9.433,9.4296,9.3744,9.2744,9.2744,9.2606,9.1295,9.1502,9.1744,9.1019,9.0812,9.0812,11.6281,11.4832,11.4832,11.39,11.2489,11.2452,11.2041,11.1295,11.0063,10.8763,10.7355,10.7355,10.7237,10.6965,10.6041,10.5512,10.531,10.5049,10.4655,10.415,10.4728,10.4574,10.3878,10.3336,10.3001,10.2733,10.1295,10.0558,10.0443,9.981,9.912,9.8526,9.8692,9.839,9.752,9.7227,9.6949,9.6778,9.667,9.631,9.5654,9.5466,9.4615,9.3067,9.2235,9.1193,9.0045,8.9263,8.9085,8.9619,8.9654,9.033,9.1671,9.1742,9.1995,9.2601,9.2578,9.2531,9.2613,9.2637,9.2895,9.3339,9.3271,9.2392,9.0435,9.0341,9.0599,9.0994,9.2035,9.3088,9.4303,9.5251,9.5818,9.5907,9.6045,9.5847,9.5392,9.5351,9.54,9.54,9.54,9.54,9.54,9.54,9.54,9.54,9.54,9.54,9.54,9.54,9.54,9.54,9.54,9.54,9.54,9.54,9.54,9.54,9.54,9.5227,9.471,9.5055,9.5124,9.4434,9.4365,9.4192,9.3847,9.3434,9.2847,9.1985,9.195,9.1778,9.0985,9.0812,9.0812,11.6194,11.5613,11.5167,11.4312,11.3158,11.2594,11.1886,11.1104,11.0616,10.9501,10.802,10.7827,10.7445,10.6763,10.5867,10.5335,10.5086,10.452,10.4201,10.404,10.432,10.4325,10.4044,10.3757,10.3573,10.3419,10.2316,10.1764,10.1611,10.0719,10.0068,9.9698,9.9506,9.9109,9.8515,9.8251,9.8114,9.816,9.7389,9.6743,9.6365,9.632,9.5871,9.4892,9.4398,9.3644,9.2667,9.2173,9.1868,9.1797,9.1797,9.2293,9.3392,9.3321,9.3627,9.4371,9.4234,9.4137,9.4283,9.4186,9.4179,9.4432,9.4318,9.3896,9.2906,9.2849,9.2941,9.3229,9.3882,9.4619,9.5356,9.648,9.7166,9.706,9.6969,9.67,9.6283,9.5717,9.54,9.54,9.54,9.54,9.54,9.54,9.54,9.54,9.54,9.54,9.54,9.54,9.54,9.54,9.54,9.54,9.54,9.54,9.54,9.54,9.54,9.5262,9.4917,9.5227,9.5193,9.4986,9.4882,9.471,9.4434,9.4365,9.3675,9.233,9.2364,9.2123,9.1226,9.0812,9.0812,11.591,11.5707,11.5114,11.426,11.3333,11.2465,11.1794,11.1198,11.112,11.0306,10.9088,10.8668,10.8062,10.723,10.6135,10.5558,10.5315,10.4448,10.4083,10.4216,10.4216,10.43,10.443,10.4284,10.4173,10.4063,10.3366,10.2921,10.2802,10.1884,10.1259,10.1088,10.0516,10.0145,9.9832,9.9634,9.9528,9.9456,9.8462,9.7565,9.6915,9.7237,9.7098,9.6506,9.6459,9.6031,9.5177,9.4773,9.4322,9.3673,9.3638,9.3991,9.4734,9.4658,9.4926,9.5731,9.5488,9.5422,9.5573,9.5422,9.5321,9.5321,9.5321,9.5321,9.5321,9.5286,9.5146,9.4935,9.5356,9.5918,9.6269,9.7393,9.8236,9.8023,9.7879,9.7558,9.7112,9.6456,9.5931,9.5724,9.5703,9.5717,9.5544,9.5455,9.54,9.54,9.54,9.54,9.54,9.54,9.54,9.54,9.54,9.54,9.54,9.54,9.54,9.54,9.54,9.5365,9.5331,9.5365,9.5365,9.5331,9.5365,9.5158,9.471,9.4951,9.4399,9.2847,9.2709,9.2571,9.1157,9.0812,9.0812,11.5795,11.4539,11.4434,11.3468,11.2179,11.199,11.1879,11.1763,11.1557,11.1115,11.0438,10.9658,10.9251,10.8985,10.7836,10.7257,10.722,10.648,10.6077,10.6077,10.6156,10.6156,10.6009,10.5385,10.5018,10.4908,10.4173,10.3682,10.3515,10.3114,10.2644,10.2089,10.1766,10.1413,10.1211,10.0886,10.0824,10.0775,10.0681,9.9575,9.7647,9.886,9.8788,9.7122,9.7714,9.747,9.6246,9.5491,9.5103,9.5032,9.5032,9.5335,9.6005,9.6111,9.6312,9.6898,9.6866,9.6901,9.6866,9.6901,9.6831,9.6901,9.6779,9.6814,9.6814,9.6849,9.6269,9.5426,9.5567,9.6234,9.6936,9.7814,9.8516,9.8899,9.8862,9.851,9.7751,9.7921,9.7782,9.6286,9.6502,9.6601,9.5868,9.5565,9.54,9.54,9.54,9.54,9.54,9.54,9.54,9.54,9.54,9.54,9.54,9.54,9.54,9.54,9.54,9.54,9.54,9.54,9.54,9.54,9.54,9.5296,9.5296,9.5331,9.4848,9.3591,9.3039,9.264,9.1261,9.0881,9.0881,11.5768,11.5641,11.4718,11.3561,11.2405,11.1846,11.1662,11.1662,11.154,11.1478,11.1394,11.1024,11.0276,10.9155,10.8088,10.763,10.7514,10.6743,10.6376,10.6449,10.6853,10.6853,10.6413,10.6559,10.6339,10.5825,10.5018,10.4525,10.4199,10.3416,10.2668,10.2029,10.1842,10.1605,10.122,10.1074,10.1025,10.1025,10.1025,10.0525,9.9776,10.0204,9.988,9.8709,9.8703,9.849,9.7698,9.6841,9.6317,9.6317,9.6317,9.6457,9.6774,9.6774,9.6863,9.7112,9.7112,9.7112,9.7112,9.6956,9.6852,9.6852,9.7114,9.7359,9.75,9.7743,9.7762,9.7551,9.7006,9.6936,9.7744,9.8516,9.92,9.976,9.9739,9.9437,9.9084,9.8746,9.806,9.6889,9.7013,9.678,9.5848,9.5455,9.54,9.54,9.54,9.5468,9.54,9.54,9.54,9.54,9.54,9.54,9.54,9.54,9.54,9.54,9.54,9.54,9.54,9.54,9.54,9.54,9.54,9.54,9.5365,9.542,9.5075,9.4148,9.353,9.3011,9.1974,9.1608,9.1417,11.551,11.557,11.4139,11.3124,11.2588,11.1778,11.1447,11.141,11.1447,11.154,11.1747,11.1705,11.1035,10.9766,10.875,10.8334,10.8181,10.7404,10.7037,10.711,10.7661,10.7624,10.7147,10.7624,10.7581,10.6915,10.6065,10.5424,10.4903,10.3961,10.3094,10.2537,10.2442,10.2203,10.1717,10.1667,10.1667,10.1667,10.1667,10.156,10.1382,10.156,10.1162,10.0138,9.983,9.9576,9.9216,9.8269,9.7744,9.7744,9.7568,9.7428,9.7428,9.7148,9.7061,9.7149,9.6957,9.7027,9.7412,9.7114,9.6973,9.7165,9.7527,9.7806,9.7983,9.8293,9.8661,9.8899,9.8112,9.785,9.8832,9.9218,9.978,10.0693,10.0653,10.0474,10.0194,9.9682,9.9065,9.7906,9.7976,9.7514,9.636,9.5917,9.5813,9.6055,9.6089,9.5882,9.5744,9.571,9.5675,9.5434,9.5455,9.551,9.5455,9.54,9.54,9.54,9.54,9.54,9.54,9.54,9.54,9.54,9.54,9.54,9.54,9.5386,9.5303,9.4726,9.4159,9.3588,9.2982,9.2511,9.1937,11.5121,11.3615,11.2036,11.1853,11.2367,11.1552,11.1221,11.1229,11.1265,11.1316,11.1453,11.136,11.1286,11.1276,11.0423,11.0043,10.976,10.8945,10.8542,10.8542,10.8688,10.8725,10.8688,10.8725,10.8558,10.8046,10.7351,10.6437,10.5371,10.4953,10.4582,10.4108,10.3952,10.3746,10.323,10.3095,10.3238,10.3095,10.313,10.2881,10.231,10.2845,10.2558,10.1425,10.1251,10.0957,10.0448,9.971,9.9253,9.9288,9.8551,9.82,9.8165,9.7272,9.6938,9.7283,9.6707,9.6951,9.8065,9.7751,9.7647,9.8219,9.8304,9.8463,9.8463,9.8582,9.8707,9.8622,9.8552,9.8945,10.0041,9.9797,10.0043,10.136,10.1606,10.1236,10.0674,10.1006,10.078,9.9602,9.9154,9.8521,9.7582,9.6917,9.671,9.709,9.7434,9.7158,9.64,9.6296,9.6089,9.5662,9.553,9.5695,9.551,9.553,9.5475,9.5475,9.5585,9.5455,9.54,9.54,9.54,9.54,9.54,9.54,9.54,9.5372,9.5274,9.4938,9.465,9.4112,9.3868,9.3051,9.239,11.4809,11.3343,11.2893,11.2322,11.1625,11.1331,11.1221,11.1221,11.1221,11.1265,11.1316,11.136,11.136,11.1316,11.1153,11.0668,10.9936,10.9166,10.8799,10.8835,10.9312,10.9189,10.8618,10.9057,10.8888,10.8153,10.7861,10.7426,10.6816,10.5891,10.526,10.4899,10.4274,10.3729,10.343,10.338,10.338,10.338,10.338,10.3238,10.3023,10.3238,10.3087,10.2446,10.1779,10.1134,10.0623,9.9815,9.9394,9.9394,9.8534,9.8007,9.7919,9.7462,9.7422,9.7976,9.7836,9.7941,9.8339,9.8125,9.798,9.8167,9.8541,9.8818,9.8944,9.9234,9.9546,9.9723,9.925,9.9535,10.0285,10.021,10.0337,10.1411,10.1676,10.1606,10.143,10.1535,10.1236,9.9949,9.8886,9.7806,9.7661,9.6899,9.6434,9.6365,9.7055,9.709,9.6227,9.6158,9.6262,9.5606,9.551,9.553,9.5729,9.5858,9.5932,9.5932,9.5878,9.5804,9.5749,9.564,9.564,9.551,9.5455,9.54,9.54,9.553,9.5418,9.5427,9.5104,9.4826,9.4774,9.3885,9.3101,11.4648,11.3974,11.3609,11.304,11.2359,11.1808,11.1588,11.1552,11.1331,11.1221,11.1265,11.136,11.1316,11.1229,11.136,11.0979,11.0252,10.9658,10.9438,10.9387,10.99,10.9738,10.9274,10.9595,10.9468,10.8729,10.83,10.7989,10.7513,10.6676,10.609,10.5714,10.4763,10.4123,10.3823,10.3773,10.3701,10.3487,10.363,10.3773,10.3737,10.3523,10.3372,10.3085,10.2276,10.1574,10.1099,10.05,10.0078,9.9901,9.9074,9.8335,9.7964,9.7712,9.7916,9.8466,9.8361,9.85,9.8792,9.8554,9.8407,9.8649,9.8928,9.9274,9.9445,9.9723,10.0079,10.0239,9.9962,9.9801,10.0361,10.0398,10.055,10.1279,10.1439,10.1439,10.1404,10.1404,10.1029,10.0195,9.8854,9.8063,9.8028,9.7383,9.7077,9.6779,9.7641,9.7434,9.6538,9.6469,9.6469,9.5606,9.551,9.5695,9.5912,9.6128,9.6074,9.6021,9.6147,9.6128,9.5967,9.5858,9.5749,9.5585,9.551,9.5455,9.551,9.564,9.5754,9.5796,9.5592,9.5297,9.5053,9.4721,9.3935,11.4616,11.5134,11.3901,11.37,11.4112,11.2828,11.2314,11.2131,11.147,11.1096,11.1096,11.1177,11.1177,11.1177,11.1096,11.1015,11.0681,11.0526,11.0399,11.0298,11.0325,11.0362,11.0206,11.0242,11.0213,10.9942,10.9015,10.8195,10.7676,10.7364,10.698,10.6459,10.5701,10.5046,10.4629,10.4522,10.4165,10.3773,10.4165,10.4522,10.4522,10.3916,10.3713,10.371,10.3038,10.2457,10.2105,10.1767,10.1392,10.1119,10.04,9.9428,9.8341,9.8125,9.8325,9.8652,9.8216,9.8561,9.9561,9.9182,9.9147,9.9561,9.9814,9.978,9.9803,9.9849,9.9941,9.9999,9.9964,10.0056,10.032,10.0308,10.0479,10.0774,10.0907,10.0907,10.0886,10.083,10.0717,10.0374,9.9533,9.9398,9.9377,9.8561,9.7986,9.8538,9.878,9.8193,9.7193,9.7124,9.6848,9.5903,9.553,9.5695,9.6074,9.6395,9.6182,9.6021,9.6235,9.6307,9.6128,9.6021,9.5912,9.5749,9.5475,9.542,9.5455,9.5585,9.5487,9.5496,9.5505,9.5611,9.5383,9.5067,9.4754,11.4643,11.4304,11.3937,11.3687,11.3544,11.2345,11.1989,11.2016,11.1111,11.0654,11.0654,11.0654,11.0654,11.0654,11.0654,11.0517,11.0322,11.0322,11.0332,11.0379,11.0425,11.0369,11.0265,11.0218,11.033,11.0465,10.9753,10.9487,10.9439,10.8462,10.7677,10.7238,10.6392,10.5734,10.5343,10.4879,10.4451,10.4308,10.4487,10.4594,10.4665,10.4879,10.4991,10.4943,10.394,10.3287,10.3146,10.2226,10.1602,10.1309,10.032,9.9466,9.8788,9.8605,9.8894,9.9458,9.9366,9.9331,9.9745,9.9745,9.9676,9.9849,9.9918,9.9883,9.9883,9.9883,9.9883,9.9883,9.9883,9.9976,10.0033,10.0033,10.0263,10.0774,10.083,10.0774,10.0774,10.0774,10.0774,10.0557,9.9798,9.9373,9.9272,9.8674,9.8262,9.7952,9.8331,9.8228,9.6745,9.6745,9.6538,9.5627,9.5634,9.5695,9.6021,9.6289,9.6182,9.6235,9.6448,9.6501,9.6342,9.6235,9.6128,9.5858,9.5585,9.542,9.5455,9.5406,9.5343,9.5438,9.555,9.5604,9.5692,9.5395,9.496,11.4607,11.4158,11.428,11.4181,11.3787,11.2587,11.2159,11.207,11.0909,11.0388,11.0388,11.0388,11.0388,11.0388,11.0388,11.0468,11.0523,11.056,11.0752,11.0945,11.0654,11.0669,11.0779,11.0852,11.0973,11.1202,11.0827,11.0682,11.0827,10.9727,10.8795,10.8101,10.7182,10.6486,10.618,10.57,10.5343,10.5129,10.5343,10.545,10.5434,10.5526,10.5636,10.5622,10.465,10.3995,10.3728,10.2771,10.1828,10.1309,10.0433,9.988,9.9631,9.94,9.9538,10.0159,10.0332,10.0332,10.0366,10.0642,10.0745,10.0711,10.0504,10.0332,10.0297,10.0101,9.9802,9.9883,9.9802,9.9802,9.9883,9.9883,10.0056,10.04,10.0457,10.0457,10.0457,10.0457,10.0457,10.0239,9.987,9.9571,9.9388,9.902,9.8607,9.7986,9.8055,9.8159,9.6641,9.6434,9.6055,9.5675,9.5489,9.564,9.5912,9.6074,9.6182,9.6448,9.6712,9.6712,9.6642,9.6589,9.6483,9.5967,9.564,9.553,9.551,9.5455,9.5406,9.5482,9.5418,9.5304,9.5184,9.5253,9.4992,11.4636,11.4884,11.4884,11.4923,11.4826,11.3283,11.2591,11.2456,11.0941,11.0202,11.0202,11.0239,11.0249,11.0332,11.0395,11.0738,11.1177,11.1311,11.1614,11.1795,11.1528,11.1456,11.1854,11.1854,11.1963,11.2131,11.1986,11.1696,11.1298,11.0923,11.0328,10.9195,10.8533,10.7656,10.7283,10.7072,10.6572,10.595,10.6449,10.6735,10.6735,10.6099,10.5801,10.6227,10.5232,10.4537,10.4233,10.3471,10.2479,10.1484,10.0856,10.0679,10.0931,10.0459,10.047,10.109,10.1125,10.1125,10.1297,10.1573,10.1953,10.1884,10.1435,10.1125,10.0997,10.0442,10.0039,10.0146,9.9867,9.9798,9.9998,9.9998,10.0056,9.9987,10.0068,9.9999,9.9883,9.9941,9.9999,9.9941,9.9883,9.9849,9.9803,9.932,9.9159,9.9021,9.8435,9.7883,9.7296,9.6745,9.6262,9.6055,9.5986,9.6131,9.6581,9.6363,9.6472,9.6691,9.6904,9.68,9.6747,9.6747,9.6695,9.6217,9.5804,9.5675,9.5565,9.551,9.5317,9.5165,9.4998,9.478,9.4849,9.5037,9.5141,11.4333,11.4586,11.4586,11.4736,11.4679,11.2846,11.2108,11.1989,11.0161,10.9376,10.9376,10.9523,10.9656,10.9692,11.0465,11.0864,11.1227,11.165,11.2338,11.2855,11.2819,11.2385,11.2167,11.2131,11.2457,11.2855,11.2529,11.2276,11.2602,11.1973,11.1426,11.0995,11.0534,10.9972,10.9116,10.8368,10.7549,10.6699,10.677,10.6949,10.702,10.7237,10.7451,10.7452,10.6334,10.5621,10.5406,10.4319,10.3251,10.2218,10.1552,10.1532,10.2132,10.1819,10.1667,10.1874,10.1884,10.1918,10.1918,10.2125,10.2229,10.2194,10.1878,10.1527,10.1527,10.1295,10.1158,10.1114,10.0711,10.0393,10.0628,10.0604,10.057,10.0676,10.0297,9.9952,9.9883,9.9883,9.9883,9.9883,9.9883,9.9883,9.9814,9.9676,9.9262,9.8711,9.84,9.8124,9.7538,9.7296,9.6952,9.7158,9.7158,9.718,9.7245,9.6872,9.6849,9.7071,9.7025,9.6747,9.6747,9.6747,9.6695,9.6483,9.6074,9.5893,9.5729,9.553,9.5234,9.5006,9.5041,9.5081,9.5185,9.5303,9.5303,11.4282,11.4333,11.4471,11.4485,11.4318,11.2497,11.171,11.1421,10.9749,10.8878,10.8929,10.9065,10.9345,10.9669,11.0387,11.1186,11.1765,11.2335,11.3036,11.3725,11.3797,11.3544,11.3218,11.3145,11.3362,11.3725,11.3362,11.3118,11.3067,11.2619,11.2157,11.1507,11.1543,11.1102,11.0362,10.9812,10.9028,10.8264,10.8017,10.7912,10.7948,10.8076,10.8147,10.8039,10.7199,10.6517,10.5701,10.4897,10.4022,10.3092,10.2614,10.2699,10.3186,10.2744,10.2568,10.2845,10.2761,10.2642,10.2711,10.2918,10.316,10.2996,10.2584,10.2223,10.2094,10.1801,10.15,10.1579,10.0875,10.0883,10.1352,10.1362,10.1189,10.1056,10.0642,10.0263,9.9952,9.9883,9.9883,9.9883,9.9883,9.9883,9.9883,9.9883,9.9469,9.8952,9.878,9.8331,9.7848,9.7779,9.7779,9.7883,9.7905,9.7789,9.7513,9.7231,9.6927,9.7152,9.6865,9.6589,9.6747,9.68,9.6747,9.6695,9.6377,9.6109,9.5912,9.5695,9.5461,9.5372,9.542,9.54,9.54,9.54,9.54,11.4231,11.4077,11.4333,11.4282,11.3825,11.2453,11.1673,11.1144,10.9675,10.8993,10.8993,10.9007,10.9403,11.0101,11.0678,11.1501,11.2814,11.3176,11.3747,11.4181,11.4413,11.4304,11.4268,11.4195,11.4268,11.4377,11.4485,11.3935,11.3436,11.3118,11.2619,11.2105,11.1873,11.1555,11.1431,11.1152,11.0637,10.9816,10.948,10.9286,10.918,10.8911,10.8729,10.8638,10.7893,10.6866,10.6001,10.5362,10.4864,10.3974,10.3813,10.3935,10.4206,10.3429,10.3288,10.3655,10.3555,10.3436,10.3505,10.3953,10.4367,10.4134,10.3409,10.2917,10.2788,10.2289,10.1953,10.2231,10.1029,10.1278,10.1887,10.2204,10.1884,10.1401,10.1159,10.0676,10.0125,9.9883,9.9883,9.9883,9.9883,9.9883,9.9883,9.9883,9.978,9.909,9.9021,9.8849,9.8538,9.8469,9.84,9.8331,9.8285,9.8134,9.7823,9.75,9.7197,9.7072,9.658,9.6448,9.68,9.6904,9.6904,9.6747,9.6448,9.6235,9.6109,9.5912,9.564,9.5565,9.551,9.5455,9.54,9.54,9.54,11.3572,11.373,11.4041,11.399,11.355,11.2758,11.2134,11.1693,10.9978,10.9282,10.9282,10.9438,10.9685,10.9936,11.1236,11.2341,11.2979,11.3515,11.4174,11.4449,11.4521,11.4521,11.4521,11.4558,11.4521,11.4521,11.4521,11.4362,11.4116,11.3927,11.3855,11.3725,11.3062,11.2902,11.2516,11.2186,11.1619,11.0816,11.0603,11.0409,11.0107,10.9837,10.9619,10.9474,10.8478,10.7626,10.7034,10.638,10.5938,10.5579,10.5059,10.4865,10.496,10.4609,10.4337,10.4262,10.4281,10.4194,10.4229,10.4332,10.447,10.4436,10.3994,10.3741,10.3741,10.3508,10.3344,10.3398,10.2788,10.2334,10.2558,10.2385,10.2229,10.1953,10.1504,10.0849,10.0125,9.9883,9.9883,9.9883,9.9883,9.9883,9.9883,9.9883,9.9676,9.9262,9.9228,9.9331,9.9228,9.9124,9.9055,9.8952,9.9009,9.8837,9.8526,9.8065,9.7508,9.7121,9.663,9.643,9.6835,9.6956,9.6956,9.68,9.6554,9.6342,9.6128,9.5893,9.5565,9.5565,9.5565,9.5455,9.54,9.54,9.54,11.3413,11.3466,11.373,11.3677,11.3322,11.2588,11.207,11.1589,11.0392,10.9804,10.9857,10.9963,11.023,11.0677,11.1676,11.2477,11.3102,11.3721,11.418,11.4369,11.442,11.4521,11.463,11.4811,11.492,11.4666,11.492,11.4978,11.4825,11.4619,11.4463,11.4546,11.384,11.332,11.3206,11.2961,11.2319,11.1552,11.1285,11.1142,11.0927,11.071,11.038,10.996,10.8966,10.8097,10.7491,10.7504,10.6898,10.6398,10.6191,10.6041,10.5657,10.5365,10.4976,10.4737,10.4531,10.4531,10.447,10.447,10.447,10.447,10.4166,10.4078,10.4016,10.4016,10.4016,10.3844,10.3364,10.291,10.2944,10.3324,10.3125,10.2711,10.2366,10.1642,10.0676,10.0125,9.9883,9.9883,9.9883,9.9883,9.9883,9.9883,9.9849,9.9538,9.9538,9.9642,9.9642,9.9538,9.9642,9.9607,9.9711,9.9607,9.9297,9.8721,9.7819,9.7349,9.6824,9.6781,9.7009,9.7078,9.7008,9.68,9.6501,9.6289,9.6021,9.5695,9.551,9.551,9.5455,9.5455,9.54,9.54,9.54,11.336,11.3146,11.343,11.3413,11.3038,11.2483,11.2072,11.1749,11.0946,11.0589,11.0589,11.0589,11.091,11.1481,11.1947,11.2573,11.318,11.3694,11.4026,11.4026,11.418,11.4376,11.4644,11.5005,11.5258,11.4803,11.5433,11.5584,11.536,11.5097,11.4991,11.483,11.4059,11.379,11.3771,11.3503,11.3038,11.2304,11.2036,11.191,11.1748,11.1474,11.0973,11.032,10.9491,10.8685,10.8241,10.8184,10.7893,10.6506,10.7532,10.7333,10.6483,10.5715,10.5282,10.4891,10.4591,10.4531,10.447,10.447,10.447,10.4505,10.4261,10.4139,10.4043,10.4139,10.4139,10.3967,10.3623,10.3341,10.3211,10.3798,10.3884,10.3436,10.3263,10.2642,10.1539,10.0608,10.0401,9.9918,10.0125,10.0263,10.0021,9.9883,9.9883,9.9883,9.9883,9.9883,9.9883,9.9883,9.9883,9.9883,9.9883,9.9883,9.9607,9.809,9.7418,9.771,9.7171,9.6988,9.7027,9.6747,9.6677,9.6695,9.6448,9.6182,9.5967,9.5749,9.553,9.542,9.5365,9.54,9.54,9.54,9.54,11.2875,11.2875,11.311,11.3092,11.2929,11.2949,11.2787,11.2499,11.1731,11.1409,11.1409,11.1409,11.1318,11.1584,11.2318,11.2822,11.3146,11.3591,11.3749,11.3837,11.3962,11.4266,11.4843,11.5203,11.5366,11.5779,11.6137,11.6209,11.5871,11.5602,11.5602,11.5621,11.5024,11.4666,11.4472,11.4293,11.3683,11.3002,11.2751,11.2608,11.2425,11.1983,11.1475,11.0921,11.0113,10.954,10.9201,10.8675,10.8267,10.8231,10.8243,10.7938,10.7224,10.6464,10.5644,10.4963,10.4669,10.4608,10.4608,10.4539,10.4505,10.447,10.441,10.441,10.441,10.441,10.4349,10.4315,10.4246,10.4168,10.4237,10.4401,10.4057,10.3574,10.3298,10.2987,10.2229,10.1815,10.1228,10.047,10.0573,10.0642,10.0332,10.0021,9.9883,9.9883,9.9883,9.9883,9.9883,9.9883,9.9883,9.9883,9.9883,9.9883,9.9814,9.7814,9.6615,9.775,9.7612,9.7047,9.6916,9.6406,9.6213,9.6586,9.6535,9.6217,9.6001,9.5799,9.5813,9.5752,9.5593,9.5434,9.54,9.54,9.54,11.2801,11.2801,11.2929,11.2965,11.2856,11.2929,11.2929,11.273,11.2373,11.223,11.2176,11.203,11.1865,11.1897,11.2054,11.249,11.2892,11.3719,11.3987,11.4059,11.4561,11.4991,11.5477,11.5764,11.6106,11.6482,11.6824,11.6933,11.6627,11.6409,11.6299,11.6156,11.5538,11.5018,11.4845,11.4397,11.4056,11.3591,11.3234,11.2965,11.2746,11.2247,11.1736,11.14,11.0805,11.0242,10.9798,10.9914,10.9201,10.8781,10.9024,10.8622,10.7775,10.7013,10.6389,10.5739,10.5264,10.5057,10.5057,10.5057,10.4919,10.4505,10.447,10.447,10.447,10.447,10.447,10.447,10.447,10.447,10.4436,10.447,10.4263,10.4022,10.3884,10.3505,10.3091,10.316,10.2366,10.1263,10.109,10.1021,10.0676,10.0332,9.9987,9.9883,9.9883,9.9883,9.9883,9.9883,9.9883,9.9849,9.9814,9.9676,9.9642,9.8297,9.7029,9.7888,9.807,9.7508,9.7276,9.6908,9.6878,9.7004,9.6723,9.6422,9.6289,9.6166,9.6152,9.6118,9.6062,9.5882,9.5537,9.54,9.54,11.2801,11.2801,11.2801,11.2801,11.2801,11.2801,11.2801,11.2801,11.2765,11.273,11.2746,11.249,11.2232,11.2155,11.2042,11.2078,11.2338,11.3661,11.4165,11.429,11.5117,11.5782,11.6212,11.6607,11.6892,11.6977,11.7335,11.7606,11.7251,11.7032,11.6921,11.6758,11.5926,11.5442,11.5263,11.4962,11.4478,11.4014,11.3658,11.3229,11.283,11.2403,11.2063,11.2041,11.1485,11.091,11.0594,11.0511,11.0101,10.9597,10.9594,10.9669,10.8201,10.7637,10.7454,10.7112,10.6229,10.5747,10.5609,10.5574,10.5195,10.4574,10.4505,10.447,10.447,10.447,10.447,10.447,10.447,10.447,10.447,10.447,10.447,10.4436,10.4367,10.4263,10.3919,10.3781,10.3677,10.278,10.1987,10.1366,10.1021,10.0676,10.0366,9.9918,9.9883,9.9883,9.9883,9.9883,9.9883,9.9814,9.9711,9.9469,9.9297,9.909,9.8433,9.881,9.8533,9.7862,9.7826,9.7767,9.7717,9.7504,9.7221,9.6933,9.6795,9.6732,9.6801,9.6766,9.6663,9.6365,9.602,9.5572,9.54,11.2801,11.2801,11.2801,11.2801,11.2801,11.2801,11.2801,11.2801,11.2801,11.2801,11.2853,11.247,11.2226,11.2,11.1908,11.1908,11.2418,11.3436,11.4157,11.4224,11.5069,11.586,11.6197,11.634,11.6932,11.7233,11.7483,11.7497,11.7432,11.734,11.7354,11.7247,11.7105,11.6869,11.6156,11.5834,11.5656,11.5085,11.4835,11.4331,11.3573,11.3092,11.2784,11.2529,11.22,11.1857,11.1482,11.1153,11.0508,11.0616,11.0413,11.0398,10.9973,10.9165,10.9,10.8416,10.7208,10.5643,10.5712,10.5747,10.5436,10.4781,10.4505,10.4505,10.447,10.447,10.447,10.447,10.447,10.447,10.447,10.447,10.447,10.447,10.447,10.4436,10.4298,10.416,10.4057,10.3953,10.3056,10.2056,10.1401,10.1056,10.0745,10.0263,9.9883,9.9952,9.9918,9.9952,9.9883,9.9814,9.9745,9.9538,9.9469,9.9193,9.9274,9.9606,9.8983,9.8304,9.8493,9.8451,9.8118,9.7904,9.7675,9.7571,9.746,9.7431,9.7491,9.7469,9.7331,9.6917,9.6434,9.602,9.571,11.2691,11.2545,11.2711,11.2656,11.2545,11.2711,11.2801,11.2801,11.2801,11.2941,11.3095,11.285,11.2452,11.2,11.1775,11.1984,11.2708,11.3816,11.4739,11.511,11.5864,11.662,11.6905,11.6976,11.7262,11.7369,11.7512,11.7476,11.7512,11.7512,11.7512,11.7512,11.7476,11.7333,11.6869,11.6512,11.6156,11.5727,11.5371,11.4886,11.4412,11.3965,11.362,11.3481,11.3044,11.2619,11.2114,11.1738,11.1188,11.112,11.0802,11.0683,11.0293,10.9659,10.9209,10.9282,10.812,10.6966,10.6367,10.6264,10.5815,10.5195,10.4781,10.447,10.447,10.447,10.447,10.447,10.447,10.447,10.447,10.447,10.447,10.447,10.447,10.447,10.447,10.447,10.4367,10.4298,10.4057,10.2918,10.1918,10.1504,10.1159,10.0745,10.047,10.047,10.0332,10.0125,10.0021,9.9883,9.978,9.9642,9.9676,9.9573,9.9538,9.9711,9.9227,9.8813,9.9168,9.9121,9.8706,9.8624,9.8645,9.8416,9.8208,9.8234,9.8319,9.8193,9.8021,9.7538,9.709,9.7021,9.6676,11.2601,11.2343,11.2656,11.2656,11.247,11.287,11.3122,11.3122,11.3372,11.3511,11.3481,11.3141,11.2552,11.2,11.179,11.2199,11.2845,11.4028,11.5096,11.605,11.6934,11.7312,11.7405,11.744,11.744,11.7512,11.7512,11.7512,11.7512,11.7512,11.7512,11.7512,11.7512,11.744,11.7333,11.7012,11.6655,11.6584,11.5757,11.5309,11.5124,11.4666,11.4434,11.4199,11.3867,11.3297,11.277,11.2454,11.2068,11.1471,11.1331,11.1117,11.0528,11.0024,10.9583,10.9537,10.8701,10.8058,10.7326,10.6988,10.6609,10.5953,10.5229,10.4781,10.447,10.447,10.447,10.447,10.447,10.447,10.447,10.447,10.447,10.447,10.447,10.447,10.447,10.447,10.447,10.4401,10.4091,10.347,10.2608,10.2022,10.1573,10.1194,10.1056,10.1021,10.0676,10.0263,10.0056,9.9883,9.9849,9.9745,9.978,9.9814,9.9883,9.978,9.9297,9.9216,9.9538,9.9492,9.9111,9.9168,9.9329,9.9272,9.9042,9.9067,9.9055,9.8917,9.8676,9.8124,9.7779,9.7745,9.7538,11.2601,11.2323,11.2691,11.2801,11.2782,11.3586,11.3872,11.3836,11.4585,11.4458,11.4006,11.3305,11.2458,11.1743,11.2165,11.24,11.2422,11.3657,11.4798,11.5753,11.6472,11.7118,11.7362,11.7419,11.7512,11.7512,11.7512,11.7512,11.7547,11.769,11.7583,11.7512,11.7761,11.7583,11.7583,11.7619,11.7512,11.7312,11.652,11.5957,11.5749,11.5342,11.4952,11.4833,11.4592,11.428,11.421,11.3578,11.2876,11.2103,11.2033,11.1563,11.0903,11.0538,11.0236,10.9634,10.9386,10.8715,10.8051,10.7643,10.7333,10.6678,10.5988,10.5264,10.4746,10.4505,10.447,10.447,10.447,10.447,10.447,10.447,10.447,10.447,10.447,10.447,10.447,10.447,10.447,10.447,10.416,10.3643,10.3367,10.278,10.1815,10.1366,10.1056,10.1021,10.0539,10.0159,10.0021,9.9883,9.9883,9.9849,9.9849,9.9883,9.9883,9.9883,9.9642,9.9607,9.9803,9.9596,9.9412,9.955,9.9676,9.9792,9.9803,9.9573,9.9469,9.9573,9.9331,9.8814,9.8354,9.8112,9.7974,11.2996,11.3349,11.346,11.3119,11.2561,11.3567,11.3868,11.3863,11.4652,11.5074,11.4803,11.434,11.3751,11.3206,11.2925,11.3361,11.3808,11.4268,11.52,11.5967,11.6721,11.7038,11.7247,11.7362,11.7512,11.7512,11.7547,11.7833,11.8225,11.8225,11.8618,11.8654,11.8475,11.8654,11.8689,11.8439,11.8475,11.8418,11.7682,11.6997,11.7063,11.6321,11.5788,11.5643,11.5341,11.4842,11.4456,11.4175,11.3578,11.3051,11.2876,11.2229,11.1548,11.1288,11.0645,10.9904,10.9684,10.9192,10.8603,10.8161,10.754,10.6919,10.6402,10.5953,10.5126,10.4781,10.4539,10.447,10.447,10.447,10.447,10.447,10.447,10.447,10.447,10.447,10.447,10.447,10.447,10.447,10.4332,10.3988,10.3781,10.3574,10.247,10.1504,10.1228,10.0918,10.047,10.009,9.9952,9.9883,9.9883,9.9883,9.9883,9.9883,9.9883,9.9883,9.9883,9.9883,9.9883,9.9849,9.9769,9.9849,9.9883,9.9849,9.9814,9.9849,9.9849,9.978,9.9711,9.9538,9.9078,9.8618,9.848,11.3479,11.3979,11.4229,11.3868,11.3309,11.4224,11.4581,11.4519,11.5436,11.5658,11.5529,11.52,11.4727,11.418,11.3919,11.3944,11.4417,11.4783,11.5421,11.6084,11.6569,11.6781,11.6957,11.7167,11.7447,11.7611,11.7904,11.8261,11.901,11.901,11.9439,11.9666,11.9572,11.9608,11.9474,11.9403,11.9296,11.9367,11.8859,11.8114,11.8224,11.7289,11.6565,11.6262,11.5842,11.5333,11.4982,11.4772,11.4385,11.3894,11.3543,11.3131,11.2485,11.1873,11.1221,11.0471,10.9877,10.9463,10.8977,10.854,10.7885,10.7299,10.6781,10.6298,10.5678,10.4953,10.4505,10.447,10.447,10.447,10.447,10.447,10.447,10.447,10.447,10.447,10.447,10.447,10.447,10.447,10.4298,10.4125,10.3436,10.3125,10.2539,10.1746,10.1746,10.1194,10.0366,10.0056,9.9918,9.9883,9.9883,9.9883,9.9883,9.9883,9.9883,9.9883,9.9883,9.9883,9.9883,9.9883,9.9883,9.9883,9.9883,9.9883,9.9883,9.9883,9.9883,9.9883,9.9814,9.9745,9.9642,9.9216,9.9136,11.3979,11.405,11.48,11.5085,11.5065,11.5906,11.6099,11.5971,11.6812,11.6712,11.5904,11.5542,11.4894,11.4279,11.4331,11.4552,11.4587,11.4657,11.5155,11.5961,11.6282,11.6307,11.6569,11.6875,11.7335,11.8069,11.8351,11.881,11.9737,11.9679,12.0201,12.0582,12.05,12.0227,11.988,11.9831,11.9831,11.9773,11.9538,11.9124,11.8694,11.7816,11.7089,11.6607,11.5992,11.5474,11.5403,11.5333,11.4982,11.4526,11.442,11.3878,11.3029,11.252,11.1771,11.0842,11.0278,10.9753,10.9052,10.8989,10.854,10.7885,10.743,10.6609,10.5781,10.5057,10.4505,10.4539,10.447,10.447,10.447,10.447,10.447,10.447,10.447,10.447,10.447,10.447,10.447,10.447,10.4401,10.4125,10.3194,10.247,10.2194,10.1953,10.2091,10.1504,10.0401,10.0021,9.9918,9.9883,9.9883,9.9883,9.9883,9.9883,9.9883,9.9883,9.9883,9.9883,9.9883,9.9883,9.9883,9.9883,9.9883,9.9883,9.9883,9.9883,9.9883,9.9883,9.9883,9.9849,9.9849,9.978,9.9596,11.5049,11.5549,11.5799,11.6227,11.662,11.6405,11.6185,11.6121,11.6704,11.6837,11.6368,11.6179,11.5753,11.5226,11.5069,11.5158,11.5158,11.5193,11.5631,11.5728,11.5981,11.6102,11.6342,11.6651,11.7183,11.7775,11.8295,11.9218,12.0227,12.0286,12.0784,12.1163,12.1053,12.1053,12.0938,12.0867,12.0795,12.108,12.0404,11.9598,11.9474,11.8372,11.7362,11.6905,11.6141,11.5755,11.5719,11.5719,11.5474,11.5158,11.5088,11.4675,11.3896,11.3422,11.2662,11.1604,11.0898,11.0286,10.9573,10.9178,10.9046,10.8659,10.801,10.7092,10.6402,10.5678,10.5091,10.4643,10.4608,10.4574,10.447,10.447,10.447,10.447,10.447,10.447,10.447,10.447,10.447,10.447,10.4436,10.4401,10.3815,10.3056,10.2642,10.1815,10.178,10.1125,10.009,9.9952,9.9883,9.9883,9.9883,9.9883,9.9883,9.9883,9.9883,9.9883,9.9883,9.9883,9.9883,9.9883,9.9883,9.9883,9.9883,9.9883,9.9883,9.9883,9.9883,9.9883,9.9883,9.9883,9.9883,9.9849,9.9814,11.5834,11.6334,11.662,11.7012,11.7369,11.6941,11.6613,11.6513,11.6824,11.6863,11.6652,11.6451,11.6152,11.5824,11.5676,11.5614,11.5614,11.5614,11.5614,11.5614,11.5798,11.592,11.6041,11.6469,11.7286,11.7866,11.8648,11.9537,12.0673,12.0744,12.0932,12.1164,12.128,12.1138,12.118,12.1209,12.1402,12.158,12.0986,12.0713,12.0283,11.9413,11.8391,11.775,11.7072,11.6351,11.6106,11.5965,11.586,11.5719,11.5509,11.5368,11.4851,11.4202,11.3423,11.2356,11.095,11.0494,11.0065,10.9247,10.9316,10.9774,10.8659,10.7747,10.7126,10.6436,10.5919,10.5471,10.5057,10.4919,10.4884,10.485,10.4539,10.4539,10.4505,10.4505,10.447,10.447,10.447,10.447,10.447,10.447,10.4401,10.3919,10.3298,10.2332,10.1366,10.0676,10.0021,9.9918,9.9883,9.9883,9.9883,9.9883,9.9883,9.9883,9.9883,9.9883,9.9883,9.9883,9.9883,9.9883,9.9883,9.9883,9.9883,9.9883,9.9883,9.9883,9.9883,9.9883,9.9883,9.9883,9.9883,9.9883,9.9883,11.637,11.6441,11.7155,11.7476,11.7476,11.7405,11.744,11.7419,11.7096,11.698,11.6863,11.6342,11.6041,11.5981,11.5737,11.5614,11.5614,11.5614,11.5614,11.5614,11.5676,11.5676,11.5983,11.6589,11.7345,11.8375,11.9265,11.9944,12.1041,12.1006,12.0891,12.0811,12.0935,12.0873,12.0962,12.1174,12.1479,12.1529,12.1674,12.1436,12.0992,12.0253,11.9513,11.8825,11.8119,11.7362,11.6948,11.6667,11.6316,11.5965,11.5649,11.5614,11.5333,11.4842,11.3922,11.2671,11.0896,11.0529,11.0564,10.9746,10.9489,10.9753,10.8901,10.8224,10.7643,10.7126,10.6678,10.6264,10.5919,10.5747,10.5643,10.516,10.4677,10.4608,10.4539,10.4505,10.447,10.447,10.447,10.447,10.447,10.447,10.4401,10.4022,10.3712,10.2987,10.2056,10.1401,10.0711,9.9952,9.9918,9.9883,9.9883,9.9883,9.9883,9.9883,9.9883,9.9883,9.9883,9.9883,9.9883,9.9883,9.9883,9.9883,9.9883,9.9883,9.9883,9.9883,9.9883,9.9883,9.9883,9.9883,9.9883,9.9883,9.9883,11.7155,11.719,11.7405,11.7512,11.7512,11.7476,11.7362,11.7131,11.698,11.684,11.6307,11.6162,11.5981,11.5737,11.564,11.5614,11.5614,11.5614,11.5614,11.5614,11.5684,11.5649,11.5992,11.6616,11.7345,11.8181,11.9142,12.014,12.0634,12.0846,12.0721,12.0433,12.0496,12.0433,12.0595,12.0783,12.1095,12.1403,12.1646,12.1646,12.1286,12.0536,12.0078,11.9451,11.8682,11.7994,11.765,11.7089,11.6667,11.6457,11.586,11.5614,11.5544,11.5333,11.4789,11.3852,11.2102,11.0827,11.0896,11.0065,10.9545,10.9787,10.9171,10.8625,10.8085,10.7712,10.7333,10.7057,10.6712,10.6505,10.6264,10.5815,10.5402,10.5229,10.5022,10.4712,10.4643,10.4539,10.4505,10.447,10.447,10.447,10.4401,10.4367,10.4022,10.3436,10.2815,10.216,10.1435,10.0642,10.0159,10.0125,9.9883,9.9883,9.9883,9.9883,9.9883,9.9883,9.9883,9.9883,9.9883,9.9883,9.9883,9.9883,9.9883,9.9883,9.9883,9.9883,9.9883,9.9883,9.9883,9.9883,9.9883,9.9883,9.9883,11.7512,11.7512,11.7512,11.7419,11.7304,11.7304,11.7073,11.6722,11.6746,11.651,11.6102,11.592,11.5798,11.5676,11.5614,11.5614,11.5614,11.5614,11.5614,11.5649,11.593,11.579,11.6071,11.6948,11.7686,11.8408,11.9104,12.0144,12.0426,12.0531,12.0405,12.0277,12.0213,12.0213,12.0341,12.0433,12.0559,12.0935,12.128,12.1403,12.1093,12.0723,12.0396,11.9874,11.9104,11.8732,11.8282,11.7615,11.7124,11.6738,11.6,11.5614,11.5509,11.5333,11.5017,11.4018,11.2907,11.2145,11.2084,11.0966,11.0447,11.0051,10.974,10.9158,10.8826,10.8459,10.8092,10.785,10.7506,10.7161,10.6885,10.6574,10.6333,10.6057,10.554,10.5022,10.4815,10.4643,10.4539,10.4505,10.447,10.447,10.447,10.447,10.4367,10.3919,10.347,10.2918,10.2125,10.1263,10.078,10.0573,10.0194,9.9883,9.9918,9.9952,9.9883,9.9883,9.9883,9.9883,9.9883,9.9883,9.9883,9.9883,9.9883,9.9883,9.9883,9.9883,9.9883,9.9883,9.9883,9.9883,9.9883,9.9883,9.9883,11.7419,11.7362,11.7419,11.7247,11.698,11.6921,11.6664,11.6162,11.6367,11.6307,11.6041,11.5737,11.5614,11.5614,11.5614,11.5614,11.5684,11.5755,11.5895,11.5755,11.6562,11.6597,11.6843,11.7861,11.8353,11.8669,11.9259,12.0165,12.0207,12.0277,12.0277,12.0213,12.0213,12.0213,12.0213,12.0277,12.0369,12.0496,12.1059,12.1464,12.1245,12.1086,12.1095,12.0713,12.0222,11.9792,11.9125,11.8388,11.758,11.6843,11.6141,11.5684,11.5403,11.5123,11.4736,11.4263,11.3458,11.323,11.2862,11.1874,11.1542,11.1078,11.0606,10.9788,10.9255,10.8908,10.8575,10.8506,10.8161,10.7988,10.7781,10.7299,10.6919,10.6643,10.6229,10.5678,10.5264,10.4988,10.4677,10.4608,10.4574,10.4539,10.447,10.447,10.4229,10.4091,10.3781,10.3298,10.2815,10.1918,10.1539,10.1159,10.0642,10.0263,10.0159,10.0125,9.9918,9.9883,9.9883,9.9883,9.9883,9.9883,9.9883,9.9883,9.9883,9.9883,9.9883,9.9883,9.9883,9.9883,9.9883,9.9883,9.9883,9.9883,9.9883,11.698,11.6746,11.6746,11.6687,11.6628,11.6593,11.6426,11.6102,11.6162,11.6041,11.5737,11.5676,11.5684,11.579,11.579,11.5825,11.586,11.6316,11.6457,11.6738,11.7299,11.744,11.7475,11.8458,11.8914,11.9195,11.9652,12.0213,12.0213,12.0213,12.0213,12.0213,12.0213,12.0213,12.0213,12.0213,12.0242,12.0242,12.0811,12.1245,12.1245,12.1183,12.1121,12.0873,12.0587,12.0207,11.9476,11.8634,11.8072,11.7475,11.6246,11.5755,11.5579,11.5403,11.5333,11.5096,11.4254,11.4053,11.3545,11.2714,11.1998,11.1386,11.0776,11.0139,10.9614,10.9178,10.8989,10.8954,10.8885,10.8747,10.854,10.8023,10.7574,10.7264,10.6919,10.6333,10.5747,10.5298,10.485,10.4746,10.4712,10.4574,10.4505,10.4332,10.4125,10.385,10.3539,10.3229,10.3125,10.2539,10.2332,10.1918,10.1228,10.0814,10.0608,10.0297,10.0056,9.9952,9.9987,9.9952,9.9883,9.9883,9.9883,9.9883,9.9883,9.9883,9.9883,9.9883,9.9883,9.9883,9.9883,9.9883,9.9883,9.9883,9.9883,11.6687,11.6474,11.6474,11.6451,11.6367,11.6367,11.6127,11.592,11.5859,11.6009,11.6106,11.6141,11.6281,11.6527,11.6597,11.6527,11.6632,11.7054,11.7229,11.751,11.7931,11.8037,11.8493,11.902,11.9125,11.9406,11.9862,12.0213,12.0213,12.0213,12.0213,12.0213,12.0213,12.0213,12.0213,12.0213,12.0213,12.0277,12.0748,12.0997,12.1183,12.1306,12.1183,12.0935,12.0658,12.0369,11.9862,11.902,11.8423,11.7615,11.6387,11.5755,11.5614,11.5544,11.5579,11.5412,11.507,11.4701,11.4254,11.3554,11.2513,11.1971,11.1291,11.0794,10.9834,10.949,10.9115,10.908,10.8989,10.8885,10.8851,10.8471,10.8402,10.8195,10.7643,10.7057,10.6333,10.5712,10.5402,10.5264,10.4988,10.4539,10.447,10.447,10.4263,10.4229,10.385,10.3712,10.347,10.3091,10.2918,10.2642,10.1918,10.1263,10.0918,10.0539,10.0125,10.009,10.0159,10.0021,9.9987,9.9918,9.9883,9.9883,9.9883,9.9883,9.9883,9.9883,9.9883,9.9883,9.9883,9.9883,9.9883,9.9883,9.9883,11.6451,11.6415,11.6391,11.6212,11.6041,11.6077,11.5929,11.5851,11.579,11.6316,11.7089,11.7159,11.7475,11.7721,11.7896,11.7896,11.7931,11.7966,11.8037,11.8282,11.8879,11.8851,11.8963,11.9349,11.9454,11.9524,11.984,12.0079,12.0213,12.0213,12.0213,12.0213,12.0213,12.0213,12.0213,12.0213,12.0178,12.0341,12.0658,12.0971,12.1183,12.1428,12.1183,12.0935,12.0721,12.0531,12.0095,11.9476,11.8704,11.765,11.6492,11.586,11.5614,11.5614,11.5614,11.5544,11.5482,11.5377,11.5237,11.457,11.3833,11.3141,11.2259,11.1316,11.0358,10.9773,10.9463,10.9212,10.9086,10.9023,10.9023,10.8989,10.8954,10.8851,10.823,10.7816,10.7057,10.6195,10.5884,10.5678,10.5195,10.4677,10.447,10.447,10.4436,10.4436,10.4367,10.4332,10.4125,10.3539,10.316,10.2987,10.2539,10.1953,10.1504,10.1056,10.0676,10.0642,10.0676,10.0332,10.0056,9.9987,9.9952,9.9883,9.9883,9.9883,9.9883,9.9883,9.9883,9.9883,9.9883,9.9883,9.9883,9.9883,9.9883,11.6162,11.6127,11.5885,11.5702,11.5737,11.5676,11.6027,11.6492,11.6562,11.7299,11.8282,11.8563,11.8493,11.7896,11.7896,11.8002,11.829,11.857,11.8844,11.902,11.9448,11.953,11.9472,11.9542,11.9687,11.9657,11.9722,11.9886,12.0085,12.0149,12.0213,12.0213,12.0213,12.0213,12.0213,12.0213,12.0213,12.0341,12.0622,12.0997,12.1121,12.1245,12.1245,12.0997,12.0846,12.0496,12.013,11.9476,11.8704,11.7721,11.6597,11.593,11.5719,11.5755,11.5719,11.5614,11.5614,11.5614,11.5368,11.4947,11.428,11.3543,11.2625,11.1803,11.0976,11.028,10.9911,10.9504,10.9379,10.9086,10.9023,10.9086,10.9052,10.8816,10.8368,10.8437,10.8126,10.6954,10.6057,10.5781,10.5367,10.4884,10.447,10.4401,10.4194,10.4125,10.3884,10.3884,10.3919,10.3643,10.3401,10.3263,10.3091,10.3091,10.2849,10.1987,10.1573,10.1435,10.1228,10.0883,10.0504,10.0125,10.0021,9.9918,9.9883,9.9883,9.9883,9.9883,9.9883,9.9883,9.9883,9.9883,9.9918,10.0056,10.0228]}]]